<?xml version="1.0" encoding="UTF-8"?>
<gpx xmlns="http://www.topografix.com/GPX/1/1" xmlns:xsi="http://www.w3.org/2001/XMLSchema-instance" version="1.1" xsi:schemaLocation="http://www.topografix.com/GPX/1/1 http://www.topografix.com/GPX/1/1/gpx.xsd">
  <metadata>
    <name>Saugerties Triathlon 2023 - 70.3 Aquabike</name>
  </metadata>
  <trk>
    <name>Saugerties Triathlon 2023 - 70.3 Aquabike</name>
    <trkseg>
      <trkpt lat="42.072981" lon="-73.950937">
        <ele>22.959551</ele>
        <time>2024-09-15T07:58:00.000Z</time>
      </trkpt>
      <trkpt lat="42.073163" lon="-73.950842">
        <ele>22.959547</ele>
        <time>2024-09-15T07:58:02.000Z</time>
      </trkpt>
      <trkpt lat="42.073665" lon="-73.950542">
        <ele>22.959542</ele>
        <time>2024-09-15T07:58:08.000Z</time>
      </trkpt>
      <trkpt lat="42.07373" lon="-73.950521">
        <ele>22.959549</ele>
        <time>2024-09-15T07:58:09.000Z</time>
      </trkpt>
      <trkpt lat="42.073797" lon="-73.950522">
        <ele>22.959555</ele>
        <time>2024-09-15T07:58:10.000Z</time>
      </trkpt>
      <trkpt lat="42.074043" lon="-73.950615">
        <ele>24.626785</ele>
        <time>2024-09-15T07:58:13.000Z</time>
      </trkpt>
      <trkpt lat="42.074377" lon="-73.950799">
        <ele>27.152017</ele>
        <time>2024-09-15T07:58:17.000Z</time>
      </trkpt>
      <trkpt lat="42.07493" lon="-73.951111">
        <ele>31.414548</ele>
        <time>2024-09-15T07:58:24.000Z</time>
      </trkpt>
      <trkpt lat="42.075408" lon="-73.951323">
        <ele>35.04937</ele>
        <time>2024-09-15T07:58:30.000Z</time>
      </trkpt>
      <trkpt lat="42.075678" lon="-73.951435">
        <ele>36.628455</ele>
        <time>2024-09-15T07:58:33.000Z</time>
      </trkpt>
      <trkpt lat="42.075836" lon="-73.951496">
        <ele>37.370295</ele>
        <time>2024-09-15T07:58:35.000Z</time>
      </trkpt>
      <trkpt lat="42.076012" lon="-73.951575">
        <ele>38.188097</ele>
        <time>2024-09-15T07:58:37.000Z</time>
      </trkpt>
      <trkpt lat="42.076307" lon="-73.951704">
        <ele>39.538692</ele>
        <time>2024-09-15T07:58:40.000Z</time>
      </trkpt>
      <trkpt lat="42.076702" lon="-73.951898">
        <ele>41.47471</ele>
        <time>2024-09-15T07:58:45.000Z</time>
      </trkpt>
      <trkpt lat="42.077143" lon="-73.952102">
        <ele>43.596933</ele>
        <time>2024-09-15T07:58:50.000Z</time>
      </trkpt>
      <trkpt lat="42.077779" lon="-73.952423">
        <ele>44.489041</ele>
        <time>2024-09-15T07:58:58.000Z</time>
      </trkpt>
      <trkpt lat="42.078223" lon="-73.951076">
        <ele>45.491589</ele>
        <time>2024-09-15T07:59:10.000Z</time>
      </trkpt>
      <trkpt lat="42.078591" lon="-73.950044">
        <ele>45.343742</ele>
        <time>2024-09-15T07:59:19.000Z</time>
      </trkpt>
      <trkpt lat="42.079009" lon="-73.948847">
        <ele>45.028121</ele>
        <time>2024-09-15T07:59:30.000Z</time>
      </trkpt>
      <trkpt lat="42.079333" lon="-73.947928">
        <ele>44.825993</ele>
        <time>2024-09-15T07:59:38.000Z</time>
      </trkpt>
      <trkpt lat="42.079601" lon="-73.94721">
        <ele>44.671909</ele>
        <time>2024-09-15T07:59:45.000Z</time>
      </trkpt>
      <trkpt lat="42.079699" lon="-73.946881">
        <ele>44.60262</ele>
        <time>2024-09-15T07:59:48.000Z</time>
      </trkpt>
      <trkpt lat="42.079797" lon="-73.946522">
        <ele>44.57365</ele>
        <time>2024-09-15T07:59:51.000Z</time>
      </trkpt>
      <trkpt lat="42.079903" lon="-73.946076">
        <ele>45.21904</ele>
        <time>2024-09-15T07:59:55.000Z</time>
      </trkpt>
      <trkpt lat="42.079961" lon="-73.945805">
        <ele>45.596116</ele>
        <time>2024-09-15T07:59:57.000Z</time>
      </trkpt>
      <trkpt lat="42.080281" lon="-73.944319">
        <ele>47.722632</ele>
        <time>2024-09-15T08:00:10.000Z</time>
      </trkpt>
      <trkpt lat="42.080369" lon="-73.944123">
        <ele>48.017221</ele>
        <time>2024-09-15T08:00:12.000Z</time>
      </trkpt>
      <trkpt lat="42.080547" lon="-73.944089">
        <ele>48.347187</ele>
        <time>2024-09-15T08:00:14.000Z</time>
      </trkpt>
      <trkpt lat="42.08073" lon="-73.944112">
        <ele>48.700739</ele>
        <time>2024-09-15T08:00:16.000Z</time>
      </trkpt>
      <trkpt lat="42.081536" lon="-73.944087">
        <ele>50.169688</ele>
        <time>2024-09-15T08:00:25.000Z</time>
      </trkpt>
      <trkpt lat="42.081887" lon="-73.944042">
        <ele>50.806205</ele>
        <time>2024-09-15T08:00:29.000Z</time>
      </trkpt>
      <trkpt lat="42.082255" lon="-73.943959">
        <ele>50.665869</ele>
        <time>2024-09-15T08:00:33.000Z</time>
      </trkpt>
      <trkpt lat="42.082446" lon="-73.943936">
        <ele>50.179344</ele>
        <time>2024-09-15T08:00:35.000Z</time>
      </trkpt>
      <trkpt lat="42.08304" lon="-73.943822">
        <ele>48.813175</ele>
        <time>2024-09-15T08:00:42.000Z</time>
      </trkpt>
      <trkpt lat="42.083545" lon="-73.94372">
        <ele>47.583295</ele>
        <time>2024-09-15T08:00:48.000Z</time>
      </trkpt>
      <trkpt lat="42.083831" lon="-73.943634">
        <ele>46.922445</ele>
        <time>2024-09-15T08:00:51.000Z</time>
      </trkpt>
      <trkpt lat="42.084195" lon="-73.943376">
        <ele>45.609786</ele>
        <time>2024-09-15T08:00:56.000Z</time>
      </trkpt>
      <trkpt lat="42.084274" lon="-73.943303">
        <ele>45.27507</ele>
        <time>2024-09-15T08:00:57.000Z</time>
      </trkpt>
      <trkpt lat="42.084426" lon="-73.94319">
        <ele>44.724989</ele>
        <time>2024-09-15T08:00:59.000Z</time>
      </trkpt>
      <trkpt lat="42.085018" lon="-73.942664">
        <ele>42.479401</ele>
        <time>2024-09-15T08:01:07.000Z</time>
      </trkpt>
      <trkpt lat="42.085478" lon="-73.942349">
        <ele>41.163564</ele>
        <time>2024-09-15T08:01:13.000Z</time>
      </trkpt>
      <trkpt lat="42.086869" lon="-73.941804">
        <ele>41.256266</ele>
        <time>2024-09-15T08:01:29.000Z</time>
      </trkpt>
      <trkpt lat="42.087401" lon="-73.941729">
        <ele>41.51715</ele>
        <time>2024-09-15T08:01:35.000Z</time>
      </trkpt>
      <trkpt lat="42.088262" lon="-73.941617">
        <ele>42.25004</ele>
        <time>2024-09-15T08:01:45.000Z</time>
      </trkpt>
      <trkpt lat="42.088719" lon="-73.941464">
        <ele>42.638241</ele>
        <time>2024-09-15T08:01:50.000Z</time>
      </trkpt>
      <trkpt lat="42.089153" lon="-73.941214">
        <ele>43.092361</ele>
        <time>2024-09-15T08:01:55.000Z</time>
      </trkpt>
      <trkpt lat="42.0894" lon="-73.940982">
        <ele>43.412615</ele>
        <time>2024-09-15T08:01:58.000Z</time>
      </trkpt>
      <trkpt lat="42.089697" lon="-73.940657">
        <ele>43.803756</ele>
        <time>2024-09-15T08:02:02.000Z</time>
      </trkpt>
      <trkpt lat="42.090032" lon="-73.94027">
        <ele>44.254178</ele>
        <time>2024-09-15T08:02:07.000Z</time>
      </trkpt>
      <trkpt lat="42.090375" lon="-73.939969">
        <ele>44.717294</ele>
        <time>2024-09-15T08:02:12.000Z</time>
      </trkpt>
      <trkpt lat="42.090658" lon="-73.9398">
        <ele>45.422071</ele>
        <time>2024-09-15T08:02:15.000Z</time>
      </trkpt>
      <trkpt lat="42.090999" lon="-73.939722">
        <ele>46.201251</ele>
        <time>2024-09-15T08:02:19.000Z</time>
      </trkpt>
      <trkpt lat="42.091437" lon="-73.939639">
        <ele>47.198291</ele>
        <time>2024-09-15T08:02:24.000Z</time>
      </trkpt>
      <trkpt lat="42.091886" lon="-73.939609">
        <ele>48.215705</ele>
        <time>2024-09-15T08:02:29.000Z</time>
      </trkpt>
      <trkpt lat="42.092851" lon="-73.93969">
        <ele>50.388938</ele>
        <time>2024-09-15T08:02:40.000Z</time>
      </trkpt>
      <trkpt lat="42.09325" lon="-73.939736">
        <ele>51.255028</ele>
        <time>2024-09-15T08:02:44.000Z</time>
      </trkpt>
      <trkpt lat="42.094005" lon="-73.939959">
        <ele>52.83739</ele>
        <time>2024-09-15T08:02:53.000Z</time>
      </trkpt>
      <trkpt lat="42.094148" lon="-73.939968">
        <ele>52.997341</ele>
        <time>2024-09-15T08:02:55.000Z</time>
      </trkpt>
      <trkpt lat="42.094433" lon="-73.939963">
        <ele>53.335432</ele>
        <time>2024-09-15T08:02:58.000Z</time>
      </trkpt>
      <trkpt lat="42.095021" lon="-73.939811">
        <ele>54.046238</ele>
        <time>2024-09-15T08:03:05.000Z</time>
      </trkpt>
      <trkpt lat="42.095367" lon="-73.93967">
        <ele>54.452231</ele>
        <time>2024-09-15T08:03:09.000Z</time>
      </trkpt>
      <trkpt lat="42.095968" lon="-73.939422">
        <ele>54.485752</ele>
        <time>2024-09-15T08:03:16.000Z</time>
      </trkpt>
      <trkpt lat="42.096062" lon="-73.939391">
        <ele>54.396775</ele>
        <time>2024-09-15T08:03:17.000Z</time>
      </trkpt>
      <trkpt lat="42.096431" lon="-73.939247">
        <ele>54.056896</ele>
        <time>2024-09-15T08:03:21.000Z</time>
      </trkpt>
      <trkpt lat="42.096668" lon="-73.939183">
        <ele>53.849575</ele>
        <time>2024-09-15T08:03:24.000Z</time>
      </trkpt>
      <trkpt lat="42.097255" lon="-73.939059">
        <ele>53.326745</ele>
        <time>2024-09-15T08:03:31.000Z</time>
      </trkpt>
      <trkpt lat="42.097495" lon="-73.939012">
        <ele>52.901361</ele>
        <time>2024-09-15T08:03:34.000Z</time>
      </trkpt>
      <trkpt lat="42.098281" lon="-73.938897">
        <ele>50.679795</ele>
        <time>2024-09-15T08:03:43.000Z</time>
      </trkpt>
      <trkpt lat="42.099358" lon="-73.938826">
        <ele>47.846735</ele>
        <time>2024-09-15T08:03:55.000Z</time>
      </trkpt>
      <trkpt lat="42.099629" lon="-73.938746">
        <ele>47.292548</ele>
        <time>2024-09-15T08:03:58.000Z</time>
      </trkpt>
      <trkpt lat="42.100105" lon="-73.938585">
        <ele>46.340676</ele>
        <time>2024-09-15T08:04:03.000Z</time>
      </trkpt>
      <trkpt lat="42.101245" lon="-73.938105">
        <ele>44.602185</ele>
        <time>2024-09-15T08:04:16.000Z</time>
      </trkpt>
      <trkpt lat="42.101799" lon="-73.937838">
        <ele>44.437673</ele>
        <time>2024-09-15T08:04:23.000Z</time>
      </trkpt>
      <trkpt lat="42.102296" lon="-73.937629">
        <ele>44.295869</ele>
        <time>2024-09-15T08:04:29.000Z</time>
      </trkpt>
      <trkpt lat="42.102689" lon="-73.937544">
        <ele>44.197499</ele>
        <time>2024-09-15T08:04:33.000Z</time>
      </trkpt>
      <trkpt lat="42.103019" lon="-73.937499">
        <ele>44.176262</ele>
        <time>2024-09-15T08:04:37.000Z</time>
      </trkpt>
      <trkpt lat="42.103379" lon="-73.937536">
        <ele>44.152445</ele>
        <time>2024-09-15T08:04:41.000Z</time>
      </trkpt>
      <trkpt lat="42.103987" lon="-73.937712">
        <ele>44.112844</ele>
        <time>2024-09-15T08:04:48.000Z</time>
      </trkpt>
      <trkpt lat="42.105054" lon="-73.937921">
        <ele>43.909724</ele>
        <time>2024-09-15T08:05:00.000Z</time>
      </trkpt>
      <trkpt lat="42.105296" lon="-73.937937">
        <ele>43.843234</ele>
        <time>2024-09-15T08:05:03.000Z</time>
      </trkpt>
      <trkpt lat="42.105777" lon="-73.937899">
        <ele>43.711717</ele>
        <time>2024-09-15T08:05:08.000Z</time>
      </trkpt>
      <trkpt lat="42.105949" lon="-73.937902">
        <ele>43.665212</ele>
        <time>2024-09-15T08:05:10.000Z</time>
      </trkpt>
      <trkpt lat="42.107397" lon="-73.937799">
        <ele>43.87683</ele>
        <time>2024-09-15T08:05:26.000Z</time>
      </trkpt>
      <trkpt lat="42.108049" lon="-73.937703">
        <ele>44.013098</ele>
        <time>2024-09-15T08:05:33.000Z</time>
      </trkpt>
      <trkpt lat="42.108435" lon="-73.937614">
        <ele>43.914832</ele>
        <time>2024-09-15T08:05:37.000Z</time>
      </trkpt>
      <trkpt lat="42.108809" lon="-73.937432">
        <ele>43.821118</ele>
        <time>2024-09-15T08:05:41.000Z</time>
      </trkpt>
      <trkpt lat="42.109089" lon="-73.937275">
        <ele>43.748061</ele>
        <time>2024-09-15T08:05:44.000Z</time>
      </trkpt>
      <trkpt lat="42.109419" lon="-73.937082">
        <ele>43.661639</ele>
        <time>2024-09-15T08:05:48.000Z</time>
      </trkpt>
      <trkpt lat="42.111105" lon="-73.936088">
        <ele>44.426147</ele>
        <time>2024-09-15T08:06:08.000Z</time>
      </trkpt>
      <trkpt lat="42.111382" lon="-73.935948">
        <ele>44.615377</ele>
        <time>2024-09-15T08:06:11.000Z</time>
      </trkpt>
      <trkpt lat="42.111592" lon="-73.935918">
        <ele>44.882946</ele>
        <time>2024-09-15T08:06:13.000Z</time>
      </trkpt>
      <trkpt lat="42.111783" lon="-73.935936">
        <ele>45.117662</ele>
        <time>2024-09-15T08:06:15.000Z</time>
      </trkpt>
      <trkpt lat="42.112528" lon="-73.936191">
        <ele>46.065389</ele>
        <time>2024-09-15T08:06:24.000Z</time>
      </trkpt>
      <trkpt lat="42.112706" lon="-73.936246">
        <ele>46.301172</ele>
        <time>2024-09-15T08:06:26.000Z</time>
      </trkpt>
      <trkpt lat="42.113085" lon="-73.936248">
        <ele>46.77432</ele>
        <time>2024-09-15T08:06:30.000Z</time>
      </trkpt>
      <trkpt lat="42.113906" lon="-73.936174">
        <ele>47.101189</ele>
        <time>2024-09-15T08:06:39.000Z</time>
      </trkpt>
      <trkpt lat="42.114743" lon="-73.935982">
        <ele>47.422909</ele>
        <time>2024-09-15T08:06:48.000Z</time>
      </trkpt>
      <trkpt lat="42.116194" lon="-73.935631">
        <ele>47.288654</ele>
        <time>2024-09-15T08:07:04.000Z</time>
      </trkpt>
      <trkpt lat="42.116477" lon="-73.935535">
        <ele>47.247685</ele>
        <time>2024-09-15T08:07:07.000Z</time>
      </trkpt>
      <trkpt lat="42.116651" lon="-73.935432">
        <ele>47.2206</ele>
        <time>2024-09-15T08:07:09.000Z</time>
      </trkpt>
      <trkpt lat="42.116971" lon="-73.935173">
        <ele>47.493982</ele>
        <time>2024-09-15T08:07:13.000Z</time>
      </trkpt>
      <trkpt lat="42.117205" lon="-73.934966">
        <ele>47.704759</ele>
        <time>2024-09-15T08:07:16.000Z</time>
      </trkpt>
      <trkpt lat="42.117278" lon="-73.935241">
        <ele>47.869808</ele>
        <time>2024-09-15T08:07:18.000Z</time>
      </trkpt>
      <trkpt lat="42.117409" lon="-73.936788">
        <ele>48.425829</ele>
        <time>2024-09-15T08:07:31.000Z</time>
      </trkpt>
      <trkpt lat="42.117464" lon="-73.93716">
        <ele>48.295651</ele>
        <time>2024-09-15T08:07:34.000Z</time>
      </trkpt>
      <trkpt lat="42.117535" lon="-73.937684">
        <ele>48.112781</ele>
        <time>2024-09-15T08:07:38.000Z</time>
      </trkpt>
      <trkpt lat="42.117648" lon="-73.937979">
        <ele>47.993279</ele>
        <time>2024-09-15T08:07:41.000Z</time>
      </trkpt>
      <trkpt lat="42.118736" lon="-73.940051">
        <ele>45.997489</ele>
        <time>2024-09-15T08:08:02.000Z</time>
      </trkpt>
      <trkpt lat="42.119159" lon="-73.94092">
        <ele>45.160064</ele>
        <time>2024-09-15T08:08:11.000Z</time>
      </trkpt>
      <trkpt lat="42.120489" lon="-73.944362">
        <ele>44.641285</ele>
        <time>2024-09-15T08:08:43.000Z</time>
      </trkpt>
      <trkpt lat="42.120598" lon="-73.944692">
        <ele>44.653844</ele>
        <time>2024-09-15T08:08:46.000Z</time>
      </trkpt>
      <trkpt lat="42.120632" lon="-73.944916">
        <ele>44.662338</ele>
        <time>2024-09-15T08:08:48.000Z</time>
      </trkpt>
      <trkpt lat="42.120675" lon="-73.945125">
        <ele>44.71539</ele>
        <time>2024-09-15T08:08:50.000Z</time>
      </trkpt>
      <trkpt lat="42.120734" lon="-73.945263">
        <ele>44.77673</ele>
        <time>2024-09-15T08:08:51.000Z</time>
      </trkpt>
      <trkpt lat="42.120954" lon="-73.945578">
        <ele>44.933951</ele>
        <time>2024-09-15T08:08:55.000Z</time>
      </trkpt>
      <trkpt lat="42.121118" lon="-73.94596">
        <ele>45.095598</ele>
        <time>2024-09-15T08:08:59.000Z</time>
      </trkpt>
      <trkpt lat="42.121111" lon="-73.945968">
        <ele>45.104695</ele>
        <time>2024-09-15T08:08:59.000Z</time>
      </trkpt>
      <trkpt lat="42.121368" lon="-73.946541">
        <ele>45.345924</ele>
        <time>2024-09-15T08:09:05.000Z</time>
      </trkpt>
      <trkpt lat="42.121946" lon="-73.947881">
        <ele>46.16532</ele>
        <time>2024-09-15T08:09:18.000Z</time>
      </trkpt>
      <trkpt lat="42.122312" lon="-73.948629">
        <ele>46.713691</ele>
        <time>2024-09-15T08:09:25.000Z</time>
      </trkpt>
      <trkpt lat="42.122331" lon="-73.948667">
        <ele>46.751044</ele>
        <time>2024-09-15T08:09:25.000Z</time>
      </trkpt>
      <trkpt lat="42.122443" lon="-73.948186">
        <ele>47.059732</ele>
        <time>2024-09-15T08:09:29.000Z</time>
      </trkpt>
      <trkpt lat="42.12255" lon="-73.947834">
        <ele>47.435524</ele>
        <time>2024-09-15T08:09:32.000Z</time>
      </trkpt>
      <trkpt lat="42.122787" lon="-73.947534">
        <ele>47.857804</ele>
        <time>2024-09-15T08:09:36.000Z</time>
      </trkpt>
      <trkpt lat="42.123444" lon="-73.946955">
        <ele>48.90258</ele>
        <time>2024-09-15T08:09:45.000Z</time>
      </trkpt>
      <trkpt lat="42.123551" lon="-73.946776">
        <ele>49.147037</ele>
        <time>2024-09-15T08:09:47.000Z</time>
      </trkpt>
      <trkpt lat="42.123595" lon="-73.946667">
        <ele>49.255366</ele>
        <time>2024-09-15T08:09:48.000Z</time>
      </trkpt>
      <trkpt lat="42.123643" lon="-73.946467">
        <ele>49.459891</ele>
        <time>2024-09-15T08:09:50.000Z</time>
      </trkpt>
      <trkpt lat="42.123802" lon="-73.946256">
        <ele>49.517838</ele>
        <time>2024-09-15T08:09:52.000Z</time>
      </trkpt>
      <trkpt lat="42.124217" lon="-73.945633">
        <ele>49.676043</ele>
        <time>2024-09-15T08:09:59.000Z</time>
      </trkpt>
      <trkpt lat="42.124487" lon="-73.945285">
        <ele>49.76828</ele>
        <time>2024-09-15T08:10:03.000Z</time>
      </trkpt>
      <trkpt lat="42.125313" lon="-73.944373">
        <ele>49.81328</ele>
        <time>2024-09-15T08:10:15.000Z</time>
      </trkpt>
      <trkpt lat="42.125522" lon="-73.944121">
        <ele>49.755408</ele>
        <time>2024-09-15T08:10:18.000Z</time>
      </trkpt>
      <trkpt lat="42.125612" lon="-73.944038">
        <ele>49.734516</ele>
        <time>2024-09-15T08:10:19.000Z</time>
      </trkpt>
      <trkpt lat="42.125753" lon="-73.943905">
        <ele>49.6991</ele>
        <time>2024-09-15T08:10:21.000Z</time>
      </trkpt>
      <trkpt lat="42.126113" lon="-73.943559">
        <ele>49.609746</ele>
        <time>2024-09-15T08:10:26.000Z</time>
      </trkpt>
      <trkpt lat="42.126734" lon="-73.942989">
        <ele>49.314006</ele>
        <time>2024-09-15T08:10:34.000Z</time>
      </trkpt>
      <trkpt lat="42.127137" lon="-73.942738">
        <ele>49.070531</ele>
        <time>2024-09-15T08:10:39.000Z</time>
      </trkpt>
      <trkpt lat="42.127571" lon="-73.942534">
        <ele>48.830233</ele>
        <time>2024-09-15T08:10:44.000Z</time>
      </trkpt>
      <trkpt lat="42.127899" lon="-73.9424">
        <ele>48.651624</ele>
        <time>2024-09-15T08:10:48.000Z</time>
      </trkpt>
      <trkpt lat="42.128664" lon="-73.942309">
        <ele>48.329848</ele>
        <time>2024-09-15T08:10:57.000Z</time>
      </trkpt>
      <trkpt lat="42.129516" lon="-73.942096">
        <ele>47.989539</ele>
        <time>2024-09-15T08:11:07.000Z</time>
      </trkpt>
      <trkpt lat="42.12971" lon="-73.941983">
        <ele>47.902272</ele>
        <time>2024-09-15T08:11:09.000Z</time>
      </trkpt>
      <trkpt lat="42.129815" lon="-73.941843">
        <ele>47.977109</ele>
        <time>2024-09-15T08:11:11.000Z</time>
      </trkpt>
      <trkpt lat="42.129931" lon="-73.941493">
        <ele>48.255124</ele>
        <time>2024-09-15T08:11:14.000Z</time>
      </trkpt>
      <trkpt lat="42.130182" lon="-73.940055">
        <ele>49.36122</ele>
        <time>2024-09-15T08:11:26.000Z</time>
      </trkpt>
      <trkpt lat="42.130207" lon="-73.939916">
        <ele>49.466869</ele>
        <time>2024-09-15T08:11:27.000Z</time>
      </trkpt>
      <trkpt lat="42.130342" lon="-73.939165">
        <ele>49.872584</ele>
        <time>2024-09-15T08:11:33.000Z</time>
      </trkpt>
      <trkpt lat="42.130379" lon="-73.939034">
        <ele>49.930381</ele>
        <time>2024-09-15T08:11:34.000Z</time>
      </trkpt>
      <trkpt lat="42.130607" lon="-73.939148">
        <ele>50.054249</ele>
        <time>2024-09-15T08:11:37.000Z</time>
      </trkpt>
      <trkpt lat="42.131012" lon="-73.939214">
        <ele>50.271907</ele>
        <time>2024-09-15T08:11:42.000Z</time>
      </trkpt>
      <trkpt lat="42.131655" lon="-73.939325">
        <ele>50.609396</ele>
        <time>2024-09-15T08:11:49.000Z</time>
      </trkpt>
      <trkpt lat="42.131773" lon="-73.939394">
        <ele>50.595905</ele>
        <time>2024-09-15T08:11:50.000Z</time>
      </trkpt>
      <trkpt lat="42.132014" lon="-73.939587">
        <ele>50.477931</ele>
        <time>2024-09-15T08:11:53.000Z</time>
      </trkpt>
      <trkpt lat="42.132135" lon="-73.939686">
        <ele>50.419485</ele>
        <time>2024-09-15T08:11:55.000Z</time>
      </trkpt>
      <trkpt lat="42.132335" lon="-73.939937">
        <ele>50.303843</ele>
        <time>2024-09-15T08:11:58.000Z</time>
      </trkpt>
      <trkpt lat="42.133308" lon="-73.941709">
        <ele>49.649322</ele>
        <time>2024-09-15T08:12:16.000Z</time>
      </trkpt>
      <trkpt lat="42.133462" lon="-73.941962">
        <ele>49.559221</ele>
        <time>2024-09-15T08:12:19.000Z</time>
      </trkpt>
      <trkpt lat="42.133769" lon="-73.94224">
        <ele>49.424733</ele>
        <time>2024-09-15T08:12:23.000Z</time>
      </trkpt>
      <trkpt lat="42.133805" lon="-73.942324">
        <ele>49.396054</ele>
        <time>2024-09-15T08:12:24.000Z</time>
      </trkpt>
      <trkpt lat="42.133894" lon="-73.942555">
        <ele>49.327729</ele>
        <time>2024-09-15T08:12:26.000Z</time>
      </trkpt>
      <trkpt lat="42.134101" lon="-73.94341">
        <ele>49.07178</ele>
        <time>2024-09-15T08:12:33.000Z</time>
      </trkpt>
      <trkpt lat="42.134166" lon="-73.943525">
        <ele>49.027516</ele>
        <time>2024-09-15T08:12:34.000Z</time>
      </trkpt>
      <trkpt lat="42.13433" lon="-73.943729">
        <ele>48.938728</ele>
        <time>2024-09-15T08:12:36.000Z</time>
      </trkpt>
      <trkpt lat="42.134946" lon="-73.944354">
        <ele>48.630458</ele>
        <time>2024-09-15T08:12:45.000Z</time>
      </trkpt>
      <trkpt lat="42.135518" lon="-73.944965">
        <ele>48.603116</ele>
        <time>2024-09-15T08:12:53.000Z</time>
      </trkpt>
      <trkpt lat="42.135668" lon="-73.945143">
        <ele>48.661966</ele>
        <time>2024-09-15T08:12:55.000Z</time>
      </trkpt>
      <trkpt lat="42.135874" lon="-73.945353">
        <ele>48.730303</ele>
        <time>2024-09-15T08:12:58.000Z</time>
      </trkpt>
      <trkpt lat="42.13605" lon="-73.945505">
        <ele>48.788993</ele>
        <time>2024-09-15T08:13:00.000Z</time>
      </trkpt>
      <trkpt lat="42.136184" lon="-73.945567">
        <ele>48.82839</ele>
        <time>2024-09-15T08:13:02.000Z</time>
      </trkpt>
      <trkpt lat="42.136464" lon="-73.945558">
        <ele>48.904951</ele>
        <time>2024-09-15T08:13:05.000Z</time>
      </trkpt>
      <trkpt lat="42.137" lon="-73.945335">
        <ele>48.989285</ele>
        <time>2024-09-15T08:13:11.000Z</time>
      </trkpt>
      <trkpt lat="42.137244" lon="-73.945348">
        <ele>48.98782</ele>
        <time>2024-09-15T08:13:14.000Z</time>
      </trkpt>
      <trkpt lat="42.137355" lon="-73.945413">
        <ele>48.98706</ele>
        <time>2024-09-15T08:13:15.000Z</time>
      </trkpt>
      <trkpt lat="42.137448" lon="-73.945536">
        <ele>48.986208</ele>
        <time>2024-09-15T08:13:16.000Z</time>
      </trkpt>
      <trkpt lat="42.137572" lon="-73.945771">
        <ele>48.98498</ele>
        <time>2024-09-15T08:13:18.000Z</time>
      </trkpt>
      <trkpt lat="42.137845" lon="-73.946565">
        <ele>48.980986</ele>
        <time>2024-09-15T08:13:25.000Z</time>
      </trkpt>
      <trkpt lat="42.137987" lon="-73.946936">
        <ele>48.937951</ele>
        <time>2024-09-15T08:13:28.000Z</time>
      </trkpt>
      <trkpt lat="42.1389" lon="-73.948998">
        <ele>48.385713</ele>
        <time>2024-09-15T08:13:48.000Z</time>
      </trkpt>
      <trkpt lat="42.139224" lon="-73.949709">
        <ele>48.819459</ele>
        <time>2024-09-15T08:13:55.000Z</time>
      </trkpt>
      <trkpt lat="42.140206" lon="-73.951945">
        <ele>50.508604</ele>
        <time>2024-09-15T08:14:16.000Z</time>
      </trkpt>
      <trkpt lat="42.140213" lon="-73.951954">
        <ele>50.5152</ele>
        <time>2024-09-15T08:14:16.000Z</time>
      </trkpt>
      <trkpt lat="42.140468" lon="-73.952385">
        <ele>50.973881</ele>
        <time>2024-09-15T08:14:21.000Z</time>
      </trkpt>
      <trkpt lat="42.141337" lon="-73.953582">
        <ele>53.165436</ele>
        <time>2024-09-15T08:14:35.000Z</time>
      </trkpt>
      <trkpt lat="42.141389" lon="-73.95367">
        <ele>53.372151</ele>
        <time>2024-09-15T08:14:36.000Z</time>
      </trkpt>
      <trkpt lat="42.140156" lon="-73.954042">
        <ele>56.412872</ele>
        <time>2024-09-15T08:14:50.000Z</time>
      </trkpt>
      <trkpt lat="42.139862" lon="-73.954229">
        <ele>57.30553</ele>
        <time>2024-09-15T08:14:54.000Z</time>
      </trkpt>
      <trkpt lat="42.139393" lon="-73.954616">
        <ele>58.797215</ele>
        <time>2024-09-15T08:15:00.000Z</time>
      </trkpt>
      <trkpt lat="42.138986" lon="-73.954818">
        <ele>60.030942</ele>
        <time>2024-09-15T08:15:05.000Z</time>
      </trkpt>
      <trkpt lat="42.138102" lon="-73.955195">
        <ele>61.668362</ele>
        <time>2024-09-15T08:15:15.000Z</time>
      </trkpt>
      <trkpt lat="42.137156" lon="-73.955435">
        <ele>63.088073</ele>
        <time>2024-09-15T08:15:26.000Z</time>
      </trkpt>
      <trkpt lat="42.136302" lon="-73.955646">
        <ele>63.986853</ele>
        <time>2024-09-15T08:15:36.000Z</time>
      </trkpt>
      <trkpt lat="42.136021" lon="-73.95577">
        <ele>64.263518</ele>
        <time>2024-09-15T08:15:39.000Z</time>
      </trkpt>
      <trkpt lat="42.135592" lon="-73.956015">
        <ele>64.6935</ele>
        <time>2024-09-15T08:15:44.000Z</time>
      </trkpt>
      <trkpt lat="42.135049" lon="-73.956368">
        <ele>65.207682</ele>
        <time>2024-09-15T08:15:51.000Z</time>
      </trkpt>
      <trkpt lat="42.134426" lon="-73.956754">
        <ele>65.713837</ele>
        <time>2024-09-15T08:15:59.000Z</time>
      </trkpt>
      <trkpt lat="42.13386" lon="-73.957031">
        <ele>66.157055</ele>
        <time>2024-09-15T08:16:06.000Z</time>
      </trkpt>
      <trkpt lat="42.133484" lon="-73.957175">
        <ele>66.474379</ele>
        <time>2024-09-15T08:16:10.000Z</time>
      </trkpt>
      <trkpt lat="42.133413" lon="-73.957202">
        <ele>66.542838</ele>
        <time>2024-09-15T08:16:11.000Z</time>
      </trkpt>
      <trkpt lat="42.132852" lon="-73.957291">
        <ele>67.086623</ele>
        <time>2024-09-15T08:16:17.000Z</time>
      </trkpt>
      <trkpt lat="42.132557" lon="-73.957359">
        <ele>67.379153</ele>
        <time>2024-09-15T08:16:20.000Z</time>
      </trkpt>
      <trkpt lat="42.132347" lon="-73.957416">
        <ele>67.584906</ele>
        <time>2024-09-15T08:16:22.000Z</time>
      </trkpt>
      <trkpt lat="42.131747" lon="-73.957688">
        <ele>68.199879</ele>
        <time>2024-09-15T08:16:29.000Z</time>
      </trkpt>
      <trkpt lat="42.131191" lon="-73.957939">
        <ele>68.770688</ele>
        <time>2024-09-15T08:16:36.000Z</time>
      </trkpt>
      <trkpt lat="42.130911" lon="-73.95813">
        <ele>69.078497</ele>
        <time>2024-09-15T08:16:39.000Z</time>
      </trkpt>
      <trkpt lat="42.130726" lon="-73.958282">
        <ele>69.279445</ele>
        <time>2024-09-15T08:16:41.000Z</time>
      </trkpt>
      <trkpt lat="42.130391" lon="-73.958583">
        <ele>69.669407</ele>
        <time>2024-09-15T08:16:45.000Z</time>
      </trkpt>
      <trkpt lat="42.13027" lon="-73.958626">
        <ele>69.782879</ele>
        <time>2024-09-15T08:16:46.000Z</time>
      </trkpt>
      <trkpt lat="42.130057" lon="-73.958679">
        <ele>69.718045</ele>
        <time>2024-09-15T08:16:48.000Z</time>
      </trkpt>
      <trkpt lat="42.129108" lon="-73.95875">
        <ele>69.412664</ele>
        <time>2024-09-15T08:16:59.000Z</time>
      </trkpt>
      <trkpt lat="42.128943" lon="-73.958776">
        <ele>69.360386</ele>
        <time>2024-09-15T08:17:01.000Z</time>
      </trkpt>
      <trkpt lat="42.128715" lon="-73.958792">
        <ele>69.286079</ele>
        <time>2024-09-15T08:17:04.000Z</time>
      </trkpt>
      <trkpt lat="42.128596" lon="-73.958791">
        <ele>69.251945</ele>
        <time>2024-09-15T08:17:05.000Z</time>
      </trkpt>
      <trkpt lat="42.127915" lon="-73.958879">
        <ele>69.115962</ele>
        <time>2024-09-15T08:17:13.000Z</time>
      </trkpt>
      <trkpt lat="42.127684" lon="-73.958941">
        <ele>69.074186</ele>
        <time>2024-09-15T08:17:16.000Z</time>
      </trkpt>
      <trkpt lat="42.126598" lon="-73.959393">
        <ele>68.986525</ele>
        <time>2024-09-15T08:17:29.000Z</time>
      </trkpt>
      <trkpt lat="42.126889" lon="-73.959683">
        <ele>69.207662</ele>
        <time>2024-09-15T08:17:33.000Z</time>
      </trkpt>
      <trkpt lat="42.127024" lon="-73.959804">
        <ele>69.314714</ele>
        <time>2024-09-15T08:17:35.000Z</time>
      </trkpt>
      <trkpt lat="42.127984" lon="-73.960335">
        <ele>69.966001</ele>
        <time>2024-09-15T08:17:47.000Z</time>
      </trkpt>
      <trkpt lat="42.128255" lon="-73.960472">
        <ele>69.791328</ele>
        <time>2024-09-15T08:17:50.000Z</time>
      </trkpt>
      <trkpt lat="42.129046" lon="-73.960867">
        <ele>68.697182</ele>
        <time>2024-09-15T08:17:59.000Z</time>
      </trkpt>
      <trkpt lat="42.129368" lon="-73.960959">
        <ele>68.294276</ele>
        <time>2024-09-15T08:18:03.000Z</time>
      </trkpt>
      <trkpt lat="42.129628" lon="-73.961034">
        <ele>67.94363</ele>
        <time>2024-09-15T08:18:06.000Z</time>
      </trkpt>
      <trkpt lat="42.130181" lon="-73.961068">
        <ele>66.790076</ele>
        <time>2024-09-15T08:18:12.000Z</time>
      </trkpt>
      <trkpt lat="42.130466" lon="-73.961131">
        <ele>66.125384</ele>
        <time>2024-09-15T08:18:15.000Z</time>
      </trkpt>
      <trkpt lat="42.131199" lon="-73.961509">
        <ele>64.229378</ele>
        <time>2024-09-15T08:18:24.000Z</time>
      </trkpt>
      <trkpt lat="42.131717" lon="-73.961682">
        <ele>62.798816</ele>
        <time>2024-09-15T08:18:30.000Z</time>
      </trkpt>
      <trkpt lat="42.132051" lon="-73.961701">
        <ele>61.675639</ele>
        <time>2024-09-15T08:18:34.000Z</time>
      </trkpt>
      <trkpt lat="42.132312" lon="-73.96166">
        <ele>60.786942</ele>
        <time>2024-09-15T08:18:37.000Z</time>
      </trkpt>
      <trkpt lat="42.133173" lon="-73.961397">
        <ele>57.947222</ele>
        <time>2024-09-15T08:18:47.000Z</time>
      </trkpt>
      <trkpt lat="42.133345" lon="-73.961437">
        <ele>57.236167</ele>
        <time>2024-09-15T08:18:49.000Z</time>
      </trkpt>
      <trkpt lat="42.13347" lon="-73.961568">
        <ele>56.467644</ele>
        <time>2024-09-15T08:18:51.000Z</time>
      </trkpt>
      <trkpt lat="42.133534" lon="-73.961868">
        <ele>55.346091</ele>
        <time>2024-09-15T08:18:54.000Z</time>
      </trkpt>
      <trkpt lat="42.13359" lon="-73.963889">
        <ele>48.21105</ele>
        <time>2024-09-15T08:19:11.000Z</time>
      </trkpt>
      <trkpt lat="42.133606" lon="-73.964104">
        <ele>47.716214</ele>
        <time>2024-09-15T08:19:13.000Z</time>
      </trkpt>
      <trkpt lat="42.133678" lon="-73.964506">
        <ele>46.763767</ele>
        <time>2024-09-15T08:19:16.000Z</time>
      </trkpt>
      <trkpt lat="42.133882" lon="-73.965202">
        <ele>45.051826</ele>
        <time>2024-09-15T08:19:22.000Z</time>
      </trkpt>
      <trkpt lat="42.133951" lon="-73.965401">
        <ele>44.51218</ele>
        <time>2024-09-15T08:19:24.000Z</time>
      </trkpt>
      <trkpt lat="42.134127" lon="-73.965559">
        <ele>43.901821</ele>
        <time>2024-09-15T08:19:26.000Z</time>
      </trkpt>
      <trkpt lat="42.136918" lon="-73.966617">
        <ele>43.69594</ele>
        <time>2024-09-15T08:19:58.000Z</time>
      </trkpt>
      <trkpt lat="42.137754" lon="-73.967168">
        <ele>44.840052</ele>
        <time>2024-09-15T08:20:08.000Z</time>
      </trkpt>
      <trkpt lat="42.137862" lon="-73.967232">
        <ele>45.081381</ele>
        <time>2024-09-15T08:20:09.000Z</time>
      </trkpt>
      <trkpt lat="42.137943" lon="-73.967384">
        <ele>45.422116</ele>
        <time>2024-09-15T08:20:11.000Z</time>
      </trkpt>
      <trkpt lat="42.137973" lon="-73.967476">
        <ele>45.608943</ele>
        <time>2024-09-15T08:20:12.000Z</time>
      </trkpt>
      <trkpt lat="42.137984" lon="-73.96757">
        <ele>45.771082</ele>
        <time>2024-09-15T08:20:13.000Z</time>
      </trkpt>
      <trkpt lat="42.137938" lon="-73.967747">
        <ele>46.093878</ele>
        <time>2024-09-15T08:20:15.000Z</time>
      </trkpt>
      <trkpt lat="42.137839" lon="-73.968056">
        <ele>46.689658</ele>
        <time>2024-09-15T08:20:18.000Z</time>
      </trkpt>
      <trkpt lat="42.137294" lon="-73.969441">
        <ele>49.450143</ele>
        <time>2024-09-15T08:20:31.000Z</time>
      </trkpt>
      <trkpt lat="42.13717" lon="-73.969653">
        <ele>49.87462</ele>
        <time>2024-09-15T08:20:33.000Z</time>
      </trkpt>
      <trkpt lat="42.13711" lon="-73.969722">
        <ele>50.066723</ele>
        <time>2024-09-15T08:20:34.000Z</time>
      </trkpt>
      <trkpt lat="42.136945" lon="-73.969853">
        <ele>50.466819</ele>
        <time>2024-09-15T08:20:36.000Z</time>
      </trkpt>
      <trkpt lat="42.136571" lon="-73.970033">
        <ele>51.348143</ele>
        <time>2024-09-15T08:20:40.000Z</time>
      </trkpt>
      <trkpt lat="42.136365" lon="-73.970184">
        <ele>51.852561</ele>
        <time>2024-09-15T08:20:43.000Z</time>
      </trkpt>
      <trkpt lat="42.135774" lon="-73.970812">
        <ele>53.874063</ele>
        <time>2024-09-15T08:20:51.000Z</time>
      </trkpt>
      <trkpt lat="42.135529" lon="-73.971198">
        <ele>55.438056</ele>
        <time>2024-09-15T08:20:55.000Z</time>
      </trkpt>
      <trkpt lat="42.135425" lon="-73.971455">
        <ele>56.316219</ele>
        <time>2024-09-15T08:20:57.000Z</time>
      </trkpt>
      <trkpt lat="42.135373" lon="-73.97176">
        <ele>57.310396</ele>
        <time>2024-09-15T08:21:00.000Z</time>
      </trkpt>
      <trkpt lat="42.13537" lon="-73.972012">
        <ele>58.119523</ele>
        <time>2024-09-15T08:21:02.000Z</time>
      </trkpt>
      <trkpt lat="42.135431" lon="-73.972518">
        <ele>59.701112</ele>
        <time>2024-09-15T08:21:06.000Z</time>
      </trkpt>
      <trkpt lat="42.135433" lon="-73.972983">
        <ele>61.304705</ele>
        <time>2024-09-15T08:21:10.000Z</time>
      </trkpt>
      <trkpt lat="42.135461" lon="-73.973093">
        <ele>61.816258</ele>
        <time>2024-09-15T08:21:11.000Z</time>
      </trkpt>
      <trkpt lat="42.135542" lon="-73.973301">
        <ele>62.870889</ele>
        <time>2024-09-15T08:21:13.000Z</time>
      </trkpt>
      <trkpt lat="42.135885" lon="-73.973732">
        <ele>65.560234</ele>
        <time>2024-09-15T08:21:18.000Z</time>
      </trkpt>
      <trkpt lat="42.13619" lon="-73.97397">
        <ele>67.543014</ele>
        <time>2024-09-15T08:21:22.000Z</time>
      </trkpt>
      <trkpt lat="42.136333" lon="-73.974189">
        <ele>68.807738</ele>
        <time>2024-09-15T08:21:24.000Z</time>
      </trkpt>
      <trkpt lat="42.136368" lon="-73.974319">
        <ele>69.337112</ele>
        <time>2024-09-15T08:21:25.000Z</time>
      </trkpt>
      <trkpt lat="42.136491" lon="-73.9751">
        <ele>73.120403</ele>
        <time>2024-09-15T08:21:32.000Z</time>
      </trkpt>
      <trkpt lat="42.136516" lon="-73.975284">
        <ele>74.074156</ele>
        <time>2024-09-15T08:21:34.000Z</time>
      </trkpt>
      <trkpt lat="42.13655" lon="-73.976359">
        <ele>79.484518</ele>
        <time>2024-09-15T08:21:43.000Z</time>
      </trkpt>
      <trkpt lat="42.136644" lon="-73.977466">
        <ele>84.588117</ele>
        <time>2024-09-15T08:21:52.000Z</time>
      </trkpt>
      <trkpt lat="42.136658" lon="-73.978391">
        <ele>88.024424</ele>
        <time>2024-09-15T08:22:00.000Z</time>
      </trkpt>
      <trkpt lat="42.136564" lon="-73.978988">
        <ele>90.250524</ele>
        <time>2024-09-15T08:22:05.000Z</time>
      </trkpt>
      <trkpt lat="42.136503" lon="-73.979549">
        <ele>92.230779</ele>
        <time>2024-09-15T08:22:10.000Z</time>
      </trkpt>
      <trkpt lat="42.136503" lon="-73.979726">
        <ele>92.41087</ele>
        <time>2024-09-15T08:22:11.000Z</time>
      </trkpt>
      <trkpt lat="42.136586" lon="-73.980436">
        <ele>93.151462</ele>
        <time>2024-09-15T08:22:17.000Z</time>
      </trkpt>
      <trkpt lat="42.136754" lon="-73.980844">
        <ele>93.641639</ele>
        <time>2024-09-15T08:22:21.000Z</time>
      </trkpt>
      <trkpt lat="42.136968" lon="-73.98118">
        <ele>94.118951</ele>
        <time>2024-09-15T08:22:25.000Z</time>
      </trkpt>
      <trkpt lat="42.137333" lon="-73.981687">
        <ele>94.833867</ele>
        <time>2024-09-15T08:22:31.000Z</time>
      </trkpt>
      <trkpt lat="42.137656" lon="-73.982202">
        <ele>95.390168</ele>
        <time>2024-09-15T08:22:37.000Z</time>
      </trkpt>
      <trkpt lat="42.138009" lon="-73.982626">
        <ele>95.920562</ele>
        <time>2024-09-15T08:22:42.000Z</time>
      </trkpt>
      <trkpt lat="42.138062" lon="-73.982767">
        <ele>96.049521</ele>
        <time>2024-09-15T08:22:43.000Z</time>
      </trkpt>
      <trkpt lat="42.138224" lon="-73.983344">
        <ele>96.552206</ele>
        <time>2024-09-15T08:22:48.000Z</time>
      </trkpt>
      <trkpt lat="42.138523" lon="-73.984144">
        <ele>97.458471</ele>
        <time>2024-09-15T08:22:55.000Z</time>
      </trkpt>
      <trkpt lat="42.13861" lon="-73.984284">
        <ele>97.640468</ele>
        <time>2024-09-15T08:22:57.000Z</time>
      </trkpt>
      <trkpt lat="42.138863" lon="-73.984569">
        <ele>98.114803</ele>
        <time>2024-09-15T08:23:01.000Z</time>
      </trkpt>
      <trkpt lat="42.13921" lon="-73.985177">
        <ele>98.927434</ele>
        <time>2024-09-15T08:23:07.000Z</time>
      </trkpt>
      <trkpt lat="42.139348" lon="-73.985316">
        <ele>99.167358</ele>
        <time>2024-09-15T08:23:09.000Z</time>
      </trkpt>
      <trkpt lat="42.139508" lon="-73.985461">
        <ele>99.356253</ele>
        <time>2024-09-15T08:23:11.000Z</time>
      </trkpt>
      <trkpt lat="42.139784" lon="-73.985608">
        <ele>99.555129</ele>
        <time>2024-09-15T08:23:14.000Z</time>
      </trkpt>
      <trkpt lat="42.140235" lon="-73.985701">
        <ele>99.864852</ele>
        <time>2024-09-15T08:23:19.000Z</time>
      </trkpt>
      <trkpt lat="42.140376" lon="-73.98571">
        <ele>99.964097</ele>
        <time>2024-09-15T08:23:21.000Z</time>
      </trkpt>
      <trkpt lat="42.140676" lon="-73.985661">
        <ele>100.168844</ele>
        <time>2024-09-15T08:23:24.000Z</time>
      </trkpt>
      <trkpt lat="42.140806" lon="-73.985692">
        <ele>100.258486</ele>
        <time>2024-09-15T08:23:25.000Z</time>
      </trkpt>
      <trkpt lat="42.140945" lon="-73.985777">
        <ele>100.358033</ele>
        <time>2024-09-15T08:23:27.000Z</time>
      </trkpt>
      <trkpt lat="42.140999" lon="-73.985866">
        <ele>100.415871</ele>
        <time>2024-09-15T08:23:28.000Z</time>
      </trkpt>
      <trkpt lat="42.141329" lon="-73.987476">
        <ele>100.163038</ele>
        <time>2024-09-15T08:23:42.000Z</time>
      </trkpt>
      <trkpt lat="42.141603" lon="-73.989348">
        <ele>99.992873</ele>
        <time>2024-09-15T08:23:58.000Z</time>
      </trkpt>
      <trkpt lat="42.141633" lon="-73.98965">
        <ele>100.00109</ele>
        <time>2024-09-15T08:24:01.000Z</time>
      </trkpt>
      <trkpt lat="42.142244" lon="-73.989254">
        <ele>100.025621</ele>
        <time>2024-09-15T08:24:09.000Z</time>
      </trkpt>
      <trkpt lat="42.142515" lon="-73.989154">
        <ele>100.063288</ele>
        <time>2024-09-15T08:24:12.000Z</time>
      </trkpt>
      <trkpt lat="42.142709" lon="-73.989121">
        <ele>100.112802</ele>
        <time>2024-09-15T08:24:14.000Z</time>
      </trkpt>
      <trkpt lat="42.143278" lon="-73.988984">
        <ele>100.267499</ele>
        <time>2024-09-15T08:24:20.000Z</time>
      </trkpt>
      <trkpt lat="42.143436" lon="-73.988919">
        <ele>100.307556</ele>
        <time>2024-09-15T08:24:22.000Z</time>
      </trkpt>
      <trkpt lat="42.143794" lon="-73.988748">
        <ele>100.406929</ele>
        <time>2024-09-15T08:24:26.000Z</time>
      </trkpt>
      <trkpt lat="42.144026" lon="-73.988689">
        <ele>100.467925</ele>
        <time>2024-09-15T08:24:29.000Z</time>
      </trkpt>
      <trkpt lat="42.144286" lon="-73.988652">
        <ele>100.657504</ele>
        <time>2024-09-15T08:24:32.000Z</time>
      </trkpt>
      <trkpt lat="42.144717" lon="-73.988465">
        <ele>101.167681</ele>
        <time>2024-09-15T08:24:37.000Z</time>
      </trkpt>
      <trkpt lat="42.144731" lon="-73.988448">
        <ele>101.175991</ele>
        <time>2024-09-15T08:24:37.000Z</time>
      </trkpt>
      <trkpt lat="42.145171" lon="-73.988261">
        <ele>101.708919</ele>
        <time>2024-09-15T08:24:42.000Z</time>
      </trkpt>
      <trkpt lat="42.145309" lon="-73.988279">
        <ele>101.864354</ele>
        <time>2024-09-15T08:24:44.000Z</time>
      </trkpt>
      <trkpt lat="42.145427" lon="-73.988332">
        <ele>102.004674</ele>
        <time>2024-09-15T08:24:45.000Z</time>
      </trkpt>
      <trkpt lat="42.145642" lon="-73.988477">
        <ele>102.269511</ele>
        <time>2024-09-15T08:24:48.000Z</time>
      </trkpt>
      <trkpt lat="42.145751" lon="-73.988536">
        <ele>102.413406</ele>
        <time>2024-09-15T08:24:49.000Z</time>
      </trkpt>
      <trkpt lat="42.145868" lon="-73.988553">
        <ele>102.548673</ele>
        <time>2024-09-15T08:24:50.000Z</time>
      </trkpt>
      <trkpt lat="42.146358" lon="-73.988419">
        <ele>103.294946</ele>
        <time>2024-09-15T08:24:56.000Z</time>
      </trkpt>
      <trkpt lat="42.146996" lon="-73.988247">
        <ele>104.250785</ele>
        <time>2024-09-15T08:25:03.000Z</time>
      </trkpt>
      <trkpt lat="42.147833" lon="-73.987873">
        <ele>105.246467</ele>
        <time>2024-09-15T08:25:13.000Z</time>
      </trkpt>
      <trkpt lat="42.14885" lon="-73.987375">
        <ele>105.462363</ele>
        <time>2024-09-15T08:25:25.000Z</time>
      </trkpt>
      <trkpt lat="42.149367" lon="-73.987124">
        <ele>105.504163</ele>
        <time>2024-09-15T08:25:31.000Z</time>
      </trkpt>
      <trkpt lat="42.149564" lon="-73.98703">
        <ele>105.341509</ele>
        <time>2024-09-15T08:25:33.000Z</time>
      </trkpt>
      <trkpt lat="42.149699" lon="-73.986915">
        <ele>105.220128</ele>
        <time>2024-09-15T08:25:35.000Z</time>
      </trkpt>
      <trkpt lat="42.149787" lon="-73.986827">
        <ele>105.140642</ele>
        <time>2024-09-15T08:25:36.000Z</time>
      </trkpt>
      <trkpt lat="42.14996" lon="-73.986379">
        <ele>104.859102</ele>
        <time>2024-09-15T08:25:40.000Z</time>
      </trkpt>
      <trkpt lat="42.150138" lon="-73.986031">
        <ele>104.624591</ele>
        <time>2024-09-15T08:25:43.000Z</time>
      </trkpt>
      <trkpt lat="42.150301" lon="-73.985823">
        <ele>104.444429</ele>
        <time>2024-09-15T08:25:45.000Z</time>
      </trkpt>
      <trkpt lat="42.150752" lon="-73.985374">
        <ele>103.868916</ele>
        <time>2024-09-15T08:25:51.000Z</time>
      </trkpt>
      <trkpt lat="42.151154" lon="-73.984909">
        <ele>103.088132</ele>
        <time>2024-09-15T08:25:57.000Z</time>
      </trkpt>
      <trkpt lat="42.151467" lon="-73.984755">
        <ele>102.609888</ele>
        <time>2024-09-15T08:26:01.000Z</time>
      </trkpt>
      <trkpt lat="42.151738" lon="-73.984573">
        <ele>102.165905</ele>
        <time>2024-09-15T08:26:04.000Z</time>
      </trkpt>
      <trkpt lat="42.152069" lon="-73.984115">
        <ele>101.486409</ele>
        <time>2024-09-15T08:26:09.000Z</time>
      </trkpt>
      <trkpt lat="42.152499" lon="-73.983689">
        <ele>100.73072</ele>
        <time>2024-09-15T08:26:15.000Z</time>
      </trkpt>
      <trkpt lat="42.153431" lon="-73.982897">
        <ele>99.202159</ele>
        <time>2024-09-15T08:26:27.000Z</time>
      </trkpt>
      <trkpt lat="42.154018" lon="-73.982491">
        <ele>98.511404</ele>
        <time>2024-09-15T08:26:34.000Z</time>
      </trkpt>
      <trkpt lat="42.15424" lon="-73.982282">
        <ele>98.233378</ele>
        <time>2024-09-15T08:26:37.000Z</time>
      </trkpt>
      <trkpt lat="42.154492" lon="-73.982019">
        <ele>97.914334</ele>
        <time>2024-09-15T08:26:41.000Z</time>
      </trkpt>
      <trkpt lat="42.154983" lon="-73.981343">
        <ele>97.07567</ele>
        <time>2024-09-15T08:26:49.000Z</time>
      </trkpt>
      <trkpt lat="42.155219" lon="-73.981068">
        <ele>95.984774</ele>
        <time>2024-09-15T08:26:52.000Z</time>
      </trkpt>
      <trkpt lat="42.155749" lon="-73.980589">
        <ele>93.669394</ele>
        <time>2024-09-15T08:26:59.000Z</time>
      </trkpt>
      <trkpt lat="42.155881" lon="-73.98049">
        <ele>93.180944</ele>
        <time>2024-09-15T08:27:01.000Z</time>
      </trkpt>
      <trkpt lat="42.156597" lon="-73.979878">
        <ele>90.227825</ele>
        <time>2024-09-15T08:27:10.000Z</time>
      </trkpt>
      <trkpt lat="42.156796" lon="-73.97968">
        <ele>89.473957</ele>
        <time>2024-09-15T08:27:13.000Z</time>
      </trkpt>
      <trkpt lat="42.156917" lon="-73.979507">
        <ele>88.936074</ele>
        <time>2024-09-15T08:27:15.000Z</time>
      </trkpt>
      <trkpt lat="42.157226" lon="-73.978804">
        <ele>87.029766</ele>
        <time>2024-09-15T08:27:22.000Z</time>
      </trkpt>
      <trkpt lat="42.157354" lon="-73.978611">
        <ele>86.452382</ele>
        <time>2024-09-15T08:27:24.000Z</time>
      </trkpt>
      <trkpt lat="42.157464" lon="-73.978517">
        <ele>86.012234</ele>
        <time>2024-09-15T08:27:25.000Z</time>
      </trkpt>
      <trkpt lat="42.157478" lon="-73.978506">
        <ele>85.954367</ele>
        <time>2024-09-15T08:27:25.000Z</time>
      </trkpt>
      <trkpt lat="42.15755" lon="-73.978469">
        <ele>85.713375</ele>
        <time>2024-09-15T08:27:26.000Z</time>
      </trkpt>
      <trkpt lat="42.158295" lon="-73.978337">
        <ele>84.87133</ele>
        <time>2024-09-15T08:27:34.000Z</time>
      </trkpt>
      <trkpt lat="42.159493" lon="-73.978008">
        <ele>84.07159</ele>
        <time>2024-09-15T08:27:48.000Z</time>
      </trkpt>
      <trkpt lat="42.15978" lon="-73.977874">
        <ele>83.877155</ele>
        <time>2024-09-15T08:27:51.000Z</time>
      </trkpt>
      <trkpt lat="42.160461" lon="-73.97753">
        <ele>83.403279</ele>
        <time>2024-09-15T08:27:59.000Z</time>
      </trkpt>
      <trkpt lat="42.160903" lon="-73.97736">
        <ele>83.109668</ele>
        <time>2024-09-15T08:28:04.000Z</time>
      </trkpt>
      <trkpt lat="42.161158" lon="-73.977173">
        <ele>82.925921</ele>
        <time>2024-09-15T08:28:07.000Z</time>
      </trkpt>
      <trkpt lat="42.161457" lon="-73.976889">
        <ele>83.038542</ele>
        <time>2024-09-15T08:28:11.000Z</time>
      </trkpt>
      <trkpt lat="42.161421" lon="-73.976755">
        <ele>83.072155</ele>
        <time>2024-09-15T08:28:12.000Z</time>
      </trkpt>
      <trkpt lat="42.161399" lon="-73.976581">
        <ele>83.108617</ele>
        <time>2024-09-15T08:28:13.000Z</time>
      </trkpt>
      <trkpt lat="42.161416" lon="-73.976445">
        <ele>83.141718</ele>
        <time>2024-09-15T08:28:14.000Z</time>
      </trkpt>
      <trkpt lat="42.161636" lon="-73.975952">
        <ele>83.271784</ele>
        <time>2024-09-15T08:28:19.000Z</time>
      </trkpt>
      <trkpt lat="42.161668" lon="-73.975898">
        <ele>83.286005</ele>
        <time>2024-09-15T08:28:20.000Z</time>
      </trkpt>
      <trkpt lat="42.16173" lon="-73.975695">
        <ele>83.338086</ele>
        <time>2024-09-15T08:28:22.000Z</time>
      </trkpt>
      <trkpt lat="42.161746" lon="-73.975283">
        <ele>83.433351</ele>
        <time>2024-09-15T08:28:25.000Z</time>
      </trkpt>
      <trkpt lat="42.161665" lon="-73.974632">
        <ele>83.427734</ele>
        <time>2024-09-15T08:28:30.000Z</time>
      </trkpt>
      <trkpt lat="42.161677" lon="-73.974016">
        <ele>83.354936</ele>
        <time>2024-09-15T08:28:35.000Z</time>
      </trkpt>
      <trkpt lat="42.161738" lon="-73.973691">
        <ele>83.315763</ele>
        <time>2024-09-15T08:28:38.000Z</time>
      </trkpt>
      <trkpt lat="42.161987" lon="-73.973323">
        <ele>83.257564</ele>
        <time>2024-09-15T08:28:42.000Z</time>
      </trkpt>
      <trkpt lat="42.16204" lon="-73.973171">
        <ele>83.237103</ele>
        <time>2024-09-15T08:28:43.000Z</time>
      </trkpt>
      <trkpt lat="42.16204" lon="-73.972969">
        <ele>83.21323</ele>
        <time>2024-09-15T08:28:45.000Z</time>
      </trkpt>
      <trkpt lat="42.161977" lon="-73.972567">
        <ele>82.601076</ele>
        <time>2024-09-15T08:28:48.000Z</time>
      </trkpt>
      <trkpt lat="42.161985" lon="-73.972492">
        <ele>82.387016</ele>
        <time>2024-09-15T08:28:49.000Z</time>
      </trkpt>
      <trkpt lat="42.161844" lon="-73.972345">
        <ele>81.786166</ele>
        <time>2024-09-15T08:28:51.000Z</time>
      </trkpt>
      <trkpt lat="42.161733" lon="-73.972167">
        <ele>81.210231</ele>
        <time>2024-09-15T08:28:53.000Z</time>
      </trkpt>
      <trkpt lat="42.161673" lon="-73.971935">
        <ele>80.634693</ele>
        <time>2024-09-15T08:28:55.000Z</time>
      </trkpt>
      <trkpt lat="42.161672" lon="-73.971677">
        <ele>80.026667</ele>
        <time>2024-09-15T08:28:57.000Z</time>
      </trkpt>
      <trkpt lat="42.161724" lon="-73.971478">
        <ele>79.51381</ele>
        <time>2024-09-15T08:28:59.000Z</time>
      </trkpt>
      <trkpt lat="42.162047" lon="-73.971036">
        <ele>77.985049</ele>
        <time>2024-09-15T08:29:04.000Z</time>
      </trkpt>
      <trkpt lat="42.162198" lon="-73.970727">
        <ele>77.051098</ele>
        <time>2024-09-15T08:29:07.000Z</time>
      </trkpt>
      <trkpt lat="42.162256" lon="-73.970471">
        <ele>76.293365</ele>
        <time>2024-09-15T08:29:09.000Z</time>
      </trkpt>
      <trkpt lat="42.162288" lon="-73.970034">
        <ele>75.033039</ele>
        <time>2024-09-15T08:29:13.000Z</time>
      </trkpt>
      <trkpt lat="42.162338" lon="-73.969929">
        <ele>74.706199</ele>
        <time>2024-09-15T08:29:14.000Z</time>
      </trkpt>
      <trkpt lat="42.162558" lon="-73.969494">
        <ele>73.205163</ele>
        <time>2024-09-15T08:29:18.000Z</time>
      </trkpt>
      <trkpt lat="42.162607" lon="-73.969349">
        <ele>72.738284</ele>
        <time>2024-09-15T08:29:19.000Z</time>
      </trkpt>
      <trkpt lat="42.162617" lon="-73.969027">
        <ele>71.831086</ele>
        <time>2024-09-15T08:29:22.000Z</time>
      </trkpt>
      <trkpt lat="42.162577" lon="-73.968727">
        <ele>70.941942</ele>
        <time>2024-09-15T08:29:25.000Z</time>
      </trkpt>
      <trkpt lat="42.162335" lon="-73.968083">
        <ele>71.830249</ele>
        <time>2024-09-15T08:29:31.000Z</time>
      </trkpt>
      <trkpt lat="42.162191" lon="-73.967816">
        <ele>72.717709</ele>
        <time>2024-09-15T08:29:34.000Z</time>
      </trkpt>
      <trkpt lat="42.162117" lon="-73.967676">
        <ele>73.194007</ele>
        <time>2024-09-15T08:29:35.000Z</time>
      </trkpt>
      <trkpt lat="42.162293" lon="-73.967502">
        <ele>73.98849</ele>
        <time>2024-09-15T08:29:37.000Z</time>
      </trkpt>
      <trkpt lat="42.162585" lon="-73.967029">
        <ele>75.663727</ele>
        <time>2024-09-15T08:29:42.000Z</time>
      </trkpt>
      <trkpt lat="42.162733" lon="-73.966902">
        <ele>76.305318</ele>
        <time>2024-09-15T08:29:44.000Z</time>
      </trkpt>
      <trkpt lat="42.162998" lon="-73.966708">
        <ele>78.093781</ele>
        <time>2024-09-15T08:29:47.000Z</time>
      </trkpt>
      <trkpt lat="42.163572" lon="-73.965764">
        <ele>86.167738</ele>
        <time>2024-09-15T08:29:57.000Z</time>
      </trkpt>
      <trkpt lat="42.16388" lon="-73.965138">
        <ele>91.143794</ele>
        <time>2024-09-15T08:30:03.000Z</time>
      </trkpt>
      <trkpt lat="42.163908" lon="-73.964982">
        <ele>92.115096</ele>
        <time>2024-09-15T08:30:04.000Z</time>
      </trkpt>
      <trkpt lat="42.163923" lon="-73.964571">
        <ele>93.651786</ele>
        <time>2024-09-15T08:30:07.000Z</time>
      </trkpt>
      <trkpt lat="42.164007" lon="-73.964265">
        <ele>94.451157</ele>
        <time>2024-09-15T08:30:10.000Z</time>
      </trkpt>
      <trkpt lat="42.164544" lon="-73.963348">
        <ele>97.207668</ele>
        <time>2024-09-15T08:30:20.000Z</time>
      </trkpt>
      <trkpt lat="42.164712" lon="-73.962967">
        <ele>98.256245</ele>
        <time>2024-09-15T08:30:24.000Z</time>
      </trkpt>
      <trkpt lat="42.1649" lon="-73.962608">
        <ele>98.147873</ele>
        <time>2024-09-15T08:30:28.000Z</time>
      </trkpt>
      <trkpt lat="42.165293" lon="-73.962054">
        <ele>96.05625</ele>
        <time>2024-09-15T08:30:34.000Z</time>
      </trkpt>
      <trkpt lat="42.165444" lon="-73.961754">
        <ele>95.098434</ele>
        <time>2024-09-15T08:30:37.000Z</time>
      </trkpt>
      <trkpt lat="42.165552" lon="-73.961377">
        <ele>93.948093</ele>
        <time>2024-09-15T08:30:40.000Z</time>
      </trkpt>
      <trkpt lat="42.165764" lon="-73.960359">
        <ele>90.28678</ele>
        <time>2024-09-15T08:30:49.000Z</time>
      </trkpt>
      <trkpt lat="42.165876" lon="-73.959932">
        <ele>88.207525</ele>
        <time>2024-09-15T08:30:53.000Z</time>
      </trkpt>
      <trkpt lat="42.166021" lon="-73.959512">
        <ele>85.951611</ele>
        <time>2024-09-15T08:30:57.000Z</time>
      </trkpt>
      <trkpt lat="42.166258" lon="-73.958982">
        <ele>83.049981</ele>
        <time>2024-09-15T08:31:02.000Z</time>
      </trkpt>
      <trkpt lat="42.166505" lon="-73.958632">
        <ele>80.793477</ele>
        <time>2024-09-15T08:31:06.000Z</time>
      </trkpt>
      <trkpt lat="42.166936" lon="-73.958219">
        <ele>77.648081</ele>
        <time>2024-09-15T08:31:12.000Z</time>
      </trkpt>
      <trkpt lat="42.167521" lon="-73.957899">
        <ele>73.842609</ele>
        <time>2024-09-15T08:31:19.000Z</time>
      </trkpt>
      <trkpt lat="42.168108" lon="-73.957466">
        <ele>69.904623</ele>
        <time>2024-09-15T08:31:26.000Z</time>
      </trkpt>
      <trkpt lat="42.16838" lon="-73.957129">
        <ele>68.626279</ele>
        <time>2024-09-15T08:31:30.000Z</time>
      </trkpt>
      <trkpt lat="42.168515" lon="-73.956926">
        <ele>67.900572</ele>
        <time>2024-09-15T08:31:32.000Z</time>
      </trkpt>
      <trkpt lat="42.168722" lon="-73.956486">
        <ele>66.584752</ele>
        <time>2024-09-15T08:31:36.000Z</time>
      </trkpt>
      <trkpt lat="42.168813" lon="-73.956319">
        <ele>66.046904</ele>
        <time>2024-09-15T08:31:38.000Z</time>
      </trkpt>
      <trkpt lat="42.168939" lon="-73.956163">
        <ele>65.47012</ele>
        <time>2024-09-15T08:31:40.000Z</time>
      </trkpt>
      <trkpt lat="42.169314" lon="-73.95581">
        <ele>63.894741</ele>
        <time>2024-09-15T08:31:45.000Z</time>
      </trkpt>
      <trkpt lat="42.169957" lon="-73.955345">
        <ele>63.258335</ele>
        <time>2024-09-15T08:31:53.000Z</time>
      </trkpt>
      <trkpt lat="42.170554" lon="-73.954978">
        <ele>62.786596</ele>
        <time>2024-09-15T08:32:00.000Z</time>
      </trkpt>
      <trkpt lat="42.170892" lon="-73.954756">
        <ele>62.511423</ele>
        <time>2024-09-15T08:32:04.000Z</time>
      </trkpt>
      <trkpt lat="42.171576" lon="-73.954071">
        <ele>62.630432</ele>
        <time>2024-09-15T08:32:13.000Z</time>
      </trkpt>
      <trkpt lat="42.171852" lon="-73.953698">
        <ele>62.710822</ele>
        <time>2024-09-15T08:32:17.000Z</time>
      </trkpt>
      <trkpt lat="42.172086" lon="-73.953228">
        <ele>62.796941</ele>
        <time>2024-09-15T08:32:22.000Z</time>
      </trkpt>
      <trkpt lat="42.172333" lon="-73.952386">
        <ele>62.249015</ele>
        <time>2024-09-15T08:32:29.000Z</time>
      </trkpt>
      <trkpt lat="42.17252" lon="-73.951862">
        <ele>61.69418</ele>
        <time>2024-09-15T08:32:34.000Z</time>
      </trkpt>
      <trkpt lat="42.17263" lon="-73.951609">
        <ele>61.424692</ele>
        <time>2024-09-15T08:32:36.000Z</time>
      </trkpt>
      <trkpt lat="42.172874" lon="-73.951219">
        <ele>60.946332</ele>
        <time>2024-09-15T08:32:40.000Z</time>
      </trkpt>
      <trkpt lat="42.173137" lon="-73.950956">
        <ele>60.503569</ele>
        <time>2024-09-15T08:32:44.000Z</time>
      </trkpt>
      <trkpt lat="42.173313" lon="-73.950826">
        <ele>60.078822</ele>
        <time>2024-09-15T08:32:46.000Z</time>
      </trkpt>
      <trkpt lat="42.17377" lon="-73.950631">
        <ele>59.052485</ele>
        <time>2024-09-15T08:32:51.000Z</time>
      </trkpt>
      <trkpt lat="42.174087" lon="-73.950434">
        <ele>58.298696</ele>
        <time>2024-09-15T08:32:55.000Z</time>
      </trkpt>
      <trkpt lat="42.175223" lon="-73.949956">
        <ele>54.972252</ele>
        <time>2024-09-15T08:33:08.000Z</time>
      </trkpt>
      <trkpt lat="42.175608" lon="-73.949721">
        <ele>53.226542</ele>
        <time>2024-09-15T08:33:13.000Z</time>
      </trkpt>
      <trkpt lat="42.175907" lon="-73.949493">
        <ele>51.896726</ele>
        <time>2024-09-15T08:33:17.000Z</time>
      </trkpt>
      <trkpt lat="42.176466" lon="-73.948709">
        <ele>48.838927</ele>
        <time>2024-09-15T08:33:26.000Z</time>
      </trkpt>
      <trkpt lat="42.176736" lon="-73.948223">
        <ele>47.43505</ele>
        <time>2024-09-15T08:33:31.000Z</time>
      </trkpt>
      <trkpt lat="42.176853" lon="-73.947404">
        <ele>45.532707</ele>
        <time>2024-09-15T08:33:38.000Z</time>
      </trkpt>
      <trkpt lat="42.176923" lon="-73.94723">
        <ele>45.06703</ele>
        <time>2024-09-15T08:33:40.000Z</time>
      </trkpt>
      <trkpt lat="42.177023" lon="-73.947029">
        <ele>44.513792</ele>
        <time>2024-09-15T08:33:42.000Z</time>
      </trkpt>
      <trkpt lat="42.177296" lon="-73.946629">
        <ele>43.52884</ele>
        <time>2024-09-15T08:33:46.000Z</time>
      </trkpt>
      <trkpt lat="42.177554" lon="-73.946363">
        <ele>42.959096</ele>
        <time>2024-09-15T08:33:50.000Z</time>
      </trkpt>
      <trkpt lat="42.178399" lon="-73.945756">
        <ele>41.264129</ele>
        <time>2024-09-15T08:34:01.000Z</time>
      </trkpt>
      <trkpt lat="42.178644" lon="-73.945514">
        <ele>40.738593</ele>
        <time>2024-09-15T08:34:04.000Z</time>
      </trkpt>
      <trkpt lat="42.178686" lon="-73.945363">
        <ele>40.201405</ele>
        <time>2024-09-15T08:34:05.000Z</time>
      </trkpt>
      <trkpt lat="42.178687" lon="-73.94513">
        <ele>39.442725</ele>
        <time>2024-09-15T08:34:07.000Z</time>
      </trkpt>
      <trkpt lat="42.178671" lon="-73.945032">
        <ele>39.136951</ele>
        <time>2024-09-15T08:34:08.000Z</time>
      </trkpt>
      <trkpt lat="42.178426" lon="-73.944213">
        <ele>36.180738</ele>
        <time>2024-09-15T08:34:15.000Z</time>
      </trkpt>
      <trkpt lat="42.178354" lon="-73.943805">
        <ele>34.767088</ele>
        <time>2024-09-15T08:34:18.000Z</time>
      </trkpt>
      <trkpt lat="42.178302" lon="-73.943427">
        <ele>33.490326</ele>
        <time>2024-09-15T08:34:21.000Z</time>
      </trkpt>
      <trkpt lat="42.178308" lon="-73.943177">
        <ele>32.65766</ele>
        <time>2024-09-15T08:34:23.000Z</time>
      </trkpt>
      <trkpt lat="42.17836" lon="-73.94287">
        <ele>32.051181</ele>
        <time>2024-09-15T08:34:26.000Z</time>
      </trkpt>
      <trkpt lat="42.178461" lon="-73.942627">
        <ele>31.562314</ele>
        <time>2024-09-15T08:34:28.000Z</time>
      </trkpt>
      <trkpt lat="42.178748" lon="-73.942118">
        <ele>30.422063</ele>
        <time>2024-09-15T08:34:33.000Z</time>
      </trkpt>
      <trkpt lat="42.179001" lon="-73.941725">
        <ele>29.473314</ele>
        <time>2024-09-15T08:34:37.000Z</time>
      </trkpt>
      <trkpt lat="42.179994" lon="-73.940303">
        <ele>28.964121</ele>
        <time>2024-09-15T08:34:53.000Z</time>
      </trkpt>
      <trkpt lat="42.180183" lon="-73.940218">
        <ele>29.131062</ele>
        <time>2024-09-15T08:34:55.000Z</time>
      </trkpt>
      <trkpt lat="42.180265" lon="-73.940237">
        <ele>29.186598</ele>
        <time>2024-09-15T08:34:56.000Z</time>
      </trkpt>
      <trkpt lat="42.180414" lon="-73.940283">
        <ele>29.306483</ele>
        <time>2024-09-15T08:34:58.000Z</time>
      </trkpt>
      <trkpt lat="42.180529" lon="-73.940301">
        <ele>29.402638</ele>
        <time>2024-09-15T08:34:59.000Z</time>
      </trkpt>
      <trkpt lat="42.180641" lon="-73.940317">
        <ele>29.498484</ele>
        <time>2024-09-15T08:35:00.000Z</time>
      </trkpt>
      <trkpt lat="42.180707" lon="-73.940267">
        <ele>29.551652</ele>
        <time>2024-09-15T08:35:01.000Z</time>
      </trkpt>
      <trkpt lat="42.180749" lon="-73.940138">
        <ele>29.633469</ele>
        <time>2024-09-15T08:35:02.000Z</time>
      </trkpt>
      <trkpt lat="42.180781" lon="-73.939969">
        <ele>29.734003</ele>
        <time>2024-09-15T08:35:03.000Z</time>
      </trkpt>
      <trkpt lat="42.180728" lon="-73.939792">
        <ele>29.856378</ele>
        <time>2024-09-15T08:35:05.000Z</time>
      </trkpt>
      <trkpt lat="42.180336" lon="-73.939361">
        <ele>30.274028</ele>
        <time>2024-09-15T08:35:11.000Z</time>
      </trkpt>
      <trkpt lat="42.179723" lon="-73.938553">
        <ele>30.990053</ele>
        <time>2024-09-15T08:35:21.000Z</time>
      </trkpt>
      <trkpt lat="42.180323" lon="-73.93937">
        <ele>30.418301</ele>
        <time>2024-09-15T08:35:30.000Z</time>
      </trkpt>
      <trkpt lat="42.180718" lon="-73.939785">
        <ele>29.866509</ele>
        <time>2024-09-15T08:35:36.000Z</time>
      </trkpt>
      <trkpt lat="42.180775" lon="-73.939983">
        <ele>29.704844</ele>
        <time>2024-09-15T08:35:38.000Z</time>
      </trkpt>
      <trkpt lat="42.180759" lon="-73.940145">
        <ele>29.570794</ele>
        <time>2024-09-15T08:35:39.000Z</time>
      </trkpt>
      <trkpt lat="42.18071" lon="-73.940254">
        <ele>29.45691</ele>
        <time>2024-09-15T08:35:40.000Z</time>
      </trkpt>
      <trkpt lat="42.180654" lon="-73.940304">
        <ele>29.382891</ele>
        <time>2024-09-15T08:35:41.000Z</time>
      </trkpt>
      <trkpt lat="42.180518" lon="-73.940313">
        <ele>29.249451</ele>
        <time>2024-09-15T08:35:43.000Z</time>
      </trkpt>
      <trkpt lat="42.180415" lon="-73.940288">
        <ele>29.149547</ele>
        <time>2024-09-15T08:35:44.000Z</time>
      </trkpt>
      <trkpt lat="42.180255" lon="-73.940236">
        <ele>29.089826</ele>
        <time>2024-09-15T08:35:46.000Z</time>
      </trkpt>
      <trkpt lat="42.180195" lon="-73.940227">
        <ele>29.062167</ele>
        <time>2024-09-15T08:35:47.000Z</time>
      </trkpt>
      <trkpt lat="42.179989" lon="-73.940311">
        <ele>28.979004</ele>
        <time>2024-09-15T08:35:49.000Z</time>
      </trkpt>
      <trkpt lat="42.179005" lon="-73.941727">
        <ele>28.877235</ele>
        <time>2024-09-15T08:36:05.000Z</time>
      </trkpt>
      <trkpt lat="42.178739" lon="-73.942121">
        <ele>30.170883</ele>
        <time>2024-09-15T08:36:09.000Z</time>
      </trkpt>
      <trkpt lat="42.178468" lon="-73.942632">
        <ele>31.725676</ele>
        <time>2024-09-15T08:36:14.000Z</time>
      </trkpt>
      <trkpt lat="42.178363" lon="-73.942879">
        <ele>32.392233</ele>
        <time>2024-09-15T08:36:16.000Z</time>
      </trkpt>
      <trkpt lat="42.178319" lon="-73.943181">
        <ele>33.184812</ele>
        <time>2024-09-15T08:36:19.000Z</time>
      </trkpt>
      <trkpt lat="42.178312" lon="-73.943425">
        <ele>33.797393</ele>
        <time>2024-09-15T08:36:21.000Z</time>
      </trkpt>
      <trkpt lat="42.17835" lon="-73.943809">
        <ele>34.811335</ele>
        <time>2024-09-15T08:36:24.000Z</time>
      </trkpt>
      <trkpt lat="42.178433" lon="-73.944224">
        <ele>36.101973</ele>
        <time>2024-09-15T08:36:28.000Z</time>
      </trkpt>
      <trkpt lat="42.178683" lon="-73.945034">
        <ele>38.800957</ele>
        <time>2024-09-15T08:36:35.000Z</time>
      </trkpt>
      <trkpt lat="42.178685" lon="-73.945134">
        <ele>39.080129</ele>
        <time>2024-09-15T08:36:36.000Z</time>
      </trkpt>
      <trkpt lat="42.178677" lon="-73.945351">
        <ele>39.772796</ele>
        <time>2024-09-15T08:36:38.000Z</time>
      </trkpt>
      <trkpt lat="42.178643" lon="-73.945524">
        <ele>40.296489</ele>
        <time>2024-09-15T08:36:39.000Z</time>
      </trkpt>
      <trkpt lat="42.178396" lon="-73.945741">
        <ele>41.517066</ele>
        <time>2024-09-15T08:36:42.000Z</time>
      </trkpt>
      <trkpt lat="42.177563" lon="-73.94637">
        <ele>43.172265</ele>
        <time>2024-09-15T08:36:53.000Z</time>
      </trkpt>
      <trkpt lat="42.177296" lon="-73.946617">
        <ele>43.661705</ele>
        <time>2024-09-15T08:36:57.000Z</time>
      </trkpt>
      <trkpt lat="42.177015" lon="-73.94703">
        <ele>44.282965</ele>
        <time>2024-09-15T08:37:02.000Z</time>
      </trkpt>
      <trkpt lat="42.176912" lon="-73.947218">
        <ele>44.554255</ele>
        <time>2024-09-15T08:37:04.000Z</time>
      </trkpt>
      <trkpt lat="42.176853" lon="-73.947416">
        <ele>45.087924</ele>
        <time>2024-09-15T08:37:06.000Z</time>
      </trkpt>
      <trkpt lat="42.176727" lon="-73.948206">
        <ele>47.375999</ele>
        <time>2024-09-15T08:37:13.000Z</time>
      </trkpt>
      <trkpt lat="42.176475" lon="-73.948709">
        <ele>49.064513</ele>
        <time>2024-09-15T08:37:18.000Z</time>
      </trkpt>
      <trkpt lat="42.175892" lon="-73.949491">
        <ele>52.044163</ele>
        <time>2024-09-15T08:37:27.000Z</time>
      </trkpt>
      <trkpt lat="42.175619" lon="-73.949719">
        <ele>53.218524</ele>
        <time>2024-09-15T08:37:31.000Z</time>
      </trkpt>
      <trkpt lat="42.175209" lon="-73.949949">
        <ele>54.760196</ele>
        <time>2024-09-15T08:37:36.000Z</time>
      </trkpt>
      <trkpt lat="42.174092" lon="-73.950426">
        <ele>58.382212</ele>
        <time>2024-09-15T08:37:49.000Z</time>
      </trkpt>
      <trkpt lat="42.173777" lon="-73.950633">
        <ele>59.084771</ele>
        <time>2024-09-15T08:37:53.000Z</time>
      </trkpt>
      <trkpt lat="42.173314" lon="-73.950832">
        <ele>60.041365</ele>
        <time>2024-09-15T08:37:58.000Z</time>
      </trkpt>
      <trkpt lat="42.173142" lon="-73.95095">
        <ele>60.437249</ele>
        <time>2024-09-15T08:38:00.000Z</time>
      </trkpt>
      <trkpt lat="42.172862" lon="-73.951228">
        <ele>61.098787</ele>
        <time>2024-09-15T08:38:04.000Z</time>
      </trkpt>
      <trkpt lat="42.172628" lon="-73.951603">
        <ele>61.529937</ele>
        <time>2024-09-15T08:38:08.000Z</time>
      </trkpt>
      <trkpt lat="42.172514" lon="-73.951863">
        <ele>61.731649</ele>
        <time>2024-09-15T08:38:10.000Z</time>
      </trkpt>
      <trkpt lat="42.172344" lon="-73.9524">
        <ele>62.146959</ele>
        <time>2024-09-15T08:38:15.000Z</time>
      </trkpt>
      <trkpt lat="42.172087" lon="-73.953227">
        <ele>62.79145</ele>
        <time>2024-09-15T08:38:22.000Z</time>
      </trkpt>
      <trkpt lat="42.171854" lon="-73.953701">
        <ele>62.883303</ele>
        <time>2024-09-15T08:38:27.000Z</time>
      </trkpt>
      <trkpt lat="42.171592" lon="-73.954066">
        <ele>62.760041</ele>
        <time>2024-09-15T08:38:31.000Z</time>
      </trkpt>
      <trkpt lat="42.170905" lon="-73.95474">
        <ele>62.488697</ele>
        <time>2024-09-15T08:38:40.000Z</time>
      </trkpt>
      <trkpt lat="42.17056" lon="-73.954982">
        <ele>62.460518</ele>
        <time>2024-09-15T08:38:44.000Z</time>
      </trkpt>
      <trkpt lat="42.169962" lon="-73.955342">
        <ele>63.283571</ele>
        <time>2024-09-15T08:38:51.000Z</time>
      </trkpt>
      <trkpt lat="42.169316" lon="-73.955815">
        <ele>64.20137</ele>
        <time>2024-09-15T08:38:59.000Z</time>
      </trkpt>
      <trkpt lat="42.16894" lon="-73.956171">
        <ele>65.074632</ele>
        <time>2024-09-15T08:39:04.000Z</time>
      </trkpt>
      <trkpt lat="42.168824" lon="-73.956316">
        <ele>65.756853</ele>
        <time>2024-09-15T08:39:06.000Z</time>
      </trkpt>
      <trkpt lat="42.168719" lon="-73.95647">
        <ele>66.393</ele>
        <time>2024-09-15T08:39:08.000Z</time>
      </trkpt>
      <trkpt lat="42.16852" lon="-73.956918">
        <ele>67.949287</ele>
        <time>2024-09-15T08:39:12.000Z</time>
      </trkpt>
      <trkpt lat="42.168383" lon="-73.957124">
        <ele>68.807629</ele>
        <time>2024-09-15T08:39:14.000Z</time>
      </trkpt>
      <trkpt lat="42.168115" lon="-73.957456">
        <ele>70.319611</ele>
        <time>2024-09-15T08:39:18.000Z</time>
      </trkpt>
      <trkpt lat="42.167519" lon="-73.957897">
        <ele>73.638821</ele>
        <time>2024-09-15T08:39:26.000Z</time>
      </trkpt>
      <trkpt lat="42.166925" lon="-73.958214">
        <ele>77.645158</ele>
        <time>2024-09-15T08:39:33.000Z</time>
      </trkpt>
      <trkpt lat="42.166502" lon="-73.95862">
        <ele>80.952548</ele>
        <time>2024-09-15T08:39:39.000Z</time>
      </trkpt>
      <trkpt lat="42.166257" lon="-73.95899">
        <ele>83.178884</ele>
        <time>2024-09-15T08:39:43.000Z</time>
      </trkpt>
      <trkpt lat="42.16603" lon="-73.959506">
        <ele>85.958262</ele>
        <time>2024-09-15T08:39:48.000Z</time>
      </trkpt>
      <trkpt lat="42.165861" lon="-73.959933">
        <ele>88.115755</ele>
        <time>2024-09-15T08:39:52.000Z</time>
      </trkpt>
      <trkpt lat="42.16575" lon="-73.960358">
        <ele>90.104301</ele>
        <time>2024-09-15T08:39:56.000Z</time>
      </trkpt>
      <trkpt lat="42.165563" lon="-73.96137">
        <ele>94.505572</ele>
        <time>2024-09-15T08:40:05.000Z</time>
      </trkpt>
      <trkpt lat="42.165438" lon="-73.961758">
        <ele>95.278278</ele>
        <time>2024-09-15T08:40:08.000Z</time>
      </trkpt>
      <trkpt lat="42.1653" lon="-73.962049">
        <ele>95.921659</ele>
        <time>2024-09-15T08:40:11.000Z</time>
      </trkpt>
      <trkpt lat="42.164907" lon="-73.962623">
        <ele>97.326649</ele>
        <time>2024-09-15T08:40:17.000Z</time>
      </trkpt>
      <trkpt lat="42.164714" lon="-73.962968">
        <ele>98.13047</ele>
        <time>2024-09-15T08:40:21.000Z</time>
      </trkpt>
      <trkpt lat="42.164543" lon="-73.963336">
        <ele>98.216427</ele>
        <time>2024-09-15T08:40:25.000Z</time>
      </trkpt>
      <trkpt lat="42.164009" lon="-73.964263">
        <ele>94.07245</ele>
        <time>2024-09-15T08:40:35.000Z</time>
      </trkpt>
      <trkpt lat="42.16393" lon="-73.964572">
        <ele>92.87074</ele>
        <time>2024-09-15T08:40:38.000Z</time>
      </trkpt>
      <trkpt lat="42.163904" lon="-73.964998">
        <ele>91.399436</ele>
        <time>2024-09-15T08:40:42.000Z</time>
      </trkpt>
      <trkpt lat="42.16387" lon="-73.96513">
        <ele>90.873042</ele>
        <time>2024-09-15T08:40:43.000Z</time>
      </trkpt>
      <trkpt lat="42.163558" lon="-73.965752">
        <ele>86.648551</ele>
        <time>2024-09-15T08:40:49.000Z</time>
      </trkpt>
      <trkpt lat="42.16301" lon="-73.966705">
        <ele>78.619689</ele>
        <time>2024-09-15T08:40:59.000Z</time>
      </trkpt>
      <trkpt lat="42.162735" lon="-73.966892">
        <ele>75.90064</ele>
        <time>2024-09-15T08:41:02.000Z</time>
      </trkpt>
      <trkpt lat="42.162587" lon="-73.967029">
        <ele>74.34343</ele>
        <time>2024-09-15T08:41:04.000Z</time>
      </trkpt>
      <trkpt lat="42.16229" lon="-73.967505">
        <ele>73.381699</ele>
        <time>2024-09-15T08:41:09.000Z</time>
      </trkpt>
      <trkpt lat="42.162106" lon="-73.967674">
        <ele>73.031841</ele>
        <time>2024-09-15T08:41:11.000Z</time>
      </trkpt>
      <trkpt lat="42.162199" lon="-73.967805">
        <ele>72.822106</ele>
        <time>2024-09-15T08:41:12.000Z</time>
      </trkpt>
      <trkpt lat="42.162325" lon="-73.968089">
        <ele>72.431304</ele>
        <time>2024-09-15T08:41:15.000Z</time>
      </trkpt>
      <trkpt lat="42.162581" lon="-73.968719">
        <ele>71.57152</ele>
        <time>2024-09-15T08:41:21.000Z</time>
      </trkpt>
      <trkpt lat="42.162615" lon="-73.969027">
        <ele>71.200105</ele>
        <time>2024-09-15T08:41:24.000Z</time>
      </trkpt>
      <trkpt lat="42.162597" lon="-73.969342">
        <ele>72.145792</ele>
        <time>2024-09-15T08:41:27.000Z</time>
      </trkpt>
      <trkpt lat="42.162554" lon="-73.969497">
        <ele>72.673956</ele>
        <time>2024-09-15T08:41:28.000Z</time>
      </trkpt>
      <trkpt lat="42.162324" lon="-73.969922">
        <ele>74.371966</ele>
        <time>2024-09-15T08:41:32.000Z</time>
      </trkpt>
      <trkpt lat="42.162287" lon="-73.970019">
        <ele>74.741716</ele>
        <time>2024-09-15T08:41:33.000Z</time>
      </trkpt>
      <trkpt lat="42.162256" lon="-73.970459">
        <ele>76.167456</ele>
        <time>2024-09-15T08:41:37.000Z</time>
      </trkpt>
      <trkpt lat="42.162206" lon="-73.970727">
        <ele>77.024638</ele>
        <time>2024-09-15T08:41:39.000Z</time>
      </trkpt>
      <trkpt lat="42.162047" lon="-73.971025">
        <ele>78.215258</ele>
        <time>2024-09-15T08:41:42.000Z</time>
      </trkpt>
      <trkpt lat="42.161713" lon="-73.971471">
        <ele>79.755323</ele>
        <time>2024-09-15T08:41:47.000Z</time>
      </trkpt>
      <trkpt lat="42.161683" lon="-73.971689">
        <ele>80.16567</ele>
        <time>2024-09-15T08:41:49.000Z</time>
      </trkpt>
      <trkpt lat="42.16168" lon="-73.971924">
        <ele>80.652195</ele>
        <time>2024-09-15T08:41:51.000Z</time>
      </trkpt>
      <trkpt lat="42.161731" lon="-73.972149">
        <ele>81.112707</ele>
        <time>2024-09-15T08:41:53.000Z</time>
      </trkpt>
      <trkpt lat="42.161834" lon="-73.972339">
        <ele>81.573556</ele>
        <time>2024-09-15T08:41:55.000Z</time>
      </trkpt>
      <trkpt lat="42.161988" lon="-73.972481">
        <ele>82.054332</ele>
        <time>2024-09-15T08:41:57.000Z</time>
      </trkpt>
      <trkpt lat="42.161974" lon="-73.972574">
        <ele>82.225627</ele>
        <time>2024-09-15T08:41:58.000Z</time>
      </trkpt>
      <trkpt lat="42.162039" lon="-73.972953">
        <ele>82.996054</ele>
        <time>2024-09-15T08:42:01.000Z</time>
      </trkpt>
      <trkpt lat="42.162045" lon="-73.973156">
        <ele>83.387708</ele>
        <time>2024-09-15T08:42:03.000Z</time>
      </trkpt>
      <trkpt lat="42.161993" lon="-73.973317">
        <ele>83.710399</ele>
        <time>2024-09-15T08:42:04.000Z</time>
      </trkpt>
      <trkpt lat="42.16175" lon="-73.973696">
        <ele>83.613269</ele>
        <time>2024-09-15T08:42:08.000Z</time>
      </trkpt>
      <trkpt lat="42.161693" lon="-73.974006">
        <ele>83.547914</ele>
        <time>2024-09-15T08:42:11.000Z</time>
      </trkpt>
      <trkpt lat="42.161651" lon="-73.974628">
        <ele>83.426447</ele>
        <time>2024-09-15T08:42:16.000Z</time>
      </trkpt>
      <trkpt lat="42.161761" lon="-73.975287">
        <ele>83.294625</ele>
        <time>2024-09-15T08:42:22.000Z</time>
      </trkpt>
      <trkpt lat="42.161725" lon="-73.975698">
        <ele>83.227242</ele>
        <time>2024-09-15T08:42:25.000Z</time>
      </trkpt>
      <trkpt lat="42.161655" lon="-73.975899">
        <ele>83.213762</ele>
        <time>2024-09-15T08:42:27.000Z</time>
      </trkpt>
      <trkpt lat="42.161643" lon="-73.975962">
        <ele>83.210095</ele>
        <time>2024-09-15T08:42:28.000Z</time>
      </trkpt>
      <trkpt lat="42.161434" lon="-73.976452">
        <ele>83.176416</ele>
        <time>2024-09-15T08:42:33.000Z</time>
      </trkpt>
      <trkpt lat="42.161408" lon="-73.976592">
        <ele>83.167848</ele>
        <time>2024-09-15T08:42:34.000Z</time>
      </trkpt>
      <trkpt lat="42.16141" lon="-73.976753">
        <ele>83.158425</ele>
        <time>2024-09-15T08:42:35.000Z</time>
      </trkpt>
      <trkpt lat="42.161458" lon="-73.976882">
        <ele>83.149725</ele>
        <time>2024-09-15T08:42:36.000Z</time>
      </trkpt>
      <trkpt lat="42.16116" lon="-73.977185">
        <ele>83.119971</ele>
        <time>2024-09-15T08:42:40.000Z</time>
      </trkpt>
      <trkpt lat="42.160899" lon="-73.977348">
        <ele>83.097174</ele>
        <time>2024-09-15T08:42:43.000Z</time>
      </trkpt>
      <trkpt lat="42.160471" lon="-73.977522">
        <ele>83.328132</ele>
        <time>2024-09-15T08:42:48.000Z</time>
      </trkpt>
      <trkpt lat="42.159791" lon="-73.977891">
        <ele>83.822971</ele>
        <time>2024-09-15T08:42:56.000Z</time>
      </trkpt>
      <trkpt lat="42.159491" lon="-73.978006">
        <ele>84.025998</ele>
        <time>2024-09-15T08:42:59.000Z</time>
      </trkpt>
      <trkpt lat="42.158291" lon="-73.978329">
        <ele>85.047125</ele>
        <time>2024-09-15T08:43:13.000Z</time>
      </trkpt>
      <trkpt lat="42.157548" lon="-73.978464">
        <ele>85.714745</ele>
        <time>2024-09-15T08:43:21.000Z</time>
      </trkpt>
      <trkpt lat="42.157487" lon="-73.978514">
        <ele>85.784592</ele>
        <time>2024-09-15T08:43:22.000Z</time>
      </trkpt>
      <trkpt lat="42.157478" lon="-73.978513">
        <ele>85.801369</ele>
        <time>2024-09-15T08:43:22.000Z</time>
      </trkpt>
      <trkpt lat="42.15734" lon="-73.978623">
        <ele>85.928948</ele>
        <time>2024-09-15T08:43:24.000Z</time>
      </trkpt>
      <trkpt lat="42.157225" lon="-73.978819">
        <ele>86.599517</ele>
        <time>2024-09-15T08:43:26.000Z</time>
      </trkpt>
      <trkpt lat="42.156917" lon="-73.979505">
        <ele>88.83756</ele>
        <time>2024-09-15T08:43:33.000Z</time>
      </trkpt>
      <trkpt lat="42.156784" lon="-73.979683">
        <ele>89.469057</ele>
        <time>2024-09-15T08:43:35.000Z</time>
      </trkpt>
      <trkpt lat="42.156598" lon="-73.979889">
        <ele>90.354113</ele>
        <time>2024-09-15T08:43:38.000Z</time>
      </trkpt>
      <trkpt lat="42.155873" lon="-73.980485">
        <ele>93.313721</ele>
        <time>2024-09-15T08:43:47.000Z</time>
      </trkpt>
      <trkpt lat="42.155765" lon="-73.980577">
        <ele>93.727924</ele>
        <time>2024-09-15T08:43:48.000Z</time>
      </trkpt>
      <trkpt lat="42.155213" lon="-73.981066">
        <ele>95.691419</ele>
        <time>2024-09-15T08:43:55.000Z</time>
      </trkpt>
      <trkpt lat="42.154988" lon="-73.981345">
        <ele>96.616527</ele>
        <time>2024-09-15T08:43:58.000Z</time>
      </trkpt>
      <trkpt lat="42.154495" lon="-73.982019">
        <ele>98.165416</ele>
        <time>2024-09-15T08:44:06.000Z</time>
      </trkpt>
      <trkpt lat="42.154241" lon="-73.982299">
        <ele>98.424539</ele>
        <time>2024-09-15T08:44:10.000Z</time>
      </trkpt>
      <trkpt lat="42.154005" lon="-73.9825">
        <ele>98.650353</ele>
        <time>2024-09-15T08:44:13.000Z</time>
      </trkpt>
      <trkpt lat="42.153429" lon="-73.982899">
        <ele>99.175045</ele>
        <time>2024-09-15T08:44:20.000Z</time>
      </trkpt>
      <trkpt lat="42.152506" lon="-73.983682">
        <ele>100.682203</ele>
        <time>2024-09-15T08:44:32.000Z</time>
      </trkpt>
      <trkpt lat="42.152062" lon="-73.984112">
        <ele>101.534248</ele>
        <time>2024-09-15T08:44:38.000Z</time>
      </trkpt>
      <trkpt lat="42.151727" lon="-73.98457">
        <ele>102.264408</ele>
        <time>2024-09-15T08:44:43.000Z</time>
      </trkpt>
      <trkpt lat="42.151466" lon="-73.984758">
        <ele>102.663131</ele>
        <time>2024-09-15T08:44:46.000Z</time>
      </trkpt>
      <trkpt lat="42.151163" lon="-73.984914">
        <ele>103.092656</ele>
        <time>2024-09-15T08:44:50.000Z</time>
      </trkpt>
      <trkpt lat="42.150756" lon="-73.985369">
        <ele>103.793881</ele>
        <time>2024-09-15T08:44:56.000Z</time>
      </trkpt>
      <trkpt lat="42.150313" lon="-73.985824">
        <ele>104.520484</ele>
        <time>2024-09-15T08:45:02.000Z</time>
      </trkpt>
      <trkpt lat="42.150135" lon="-73.986027">
        <ele>104.69962</ele>
        <time>2024-09-15T08:45:05.000Z</time>
      </trkpt>
      <trkpt lat="42.14995" lon="-73.986386">
        <ele>104.882958</ele>
        <time>2024-09-15T08:45:09.000Z</time>
      </trkpt>
      <trkpt lat="42.149777" lon="-73.986818">
        <ele>105.103076</ele>
        <time>2024-09-15T08:45:13.000Z</time>
      </trkpt>
      <trkpt lat="42.149695" lon="-73.986917">
        <ele>105.165217</ele>
        <time>2024-09-15T08:45:14.000Z</time>
      </trkpt>
      <trkpt lat="42.149555" lon="-73.98702">
        <ele>105.260116</ele>
        <time>2024-09-15T08:45:16.000Z</time>
      </trkpt>
      <trkpt lat="42.14936" lon="-73.98713">
        <ele>105.387272</ele>
        <time>2024-09-15T08:45:18.000Z</time>
      </trkpt>
      <trkpt lat="42.148839" lon="-73.987383">
        <ele>105.61494</ele>
        <time>2024-09-15T08:45:24.000Z</time>
      </trkpt>
      <trkpt lat="42.147837" lon="-73.987863">
        <ele>105.089784</ele>
        <time>2024-09-15T08:45:36.000Z</time>
      </trkpt>
      <trkpt lat="42.146989" lon="-73.988243">
        <ele>104.385428</ele>
        <time>2024-09-15T08:45:46.000Z</time>
      </trkpt>
      <trkpt lat="42.146352" lon="-73.988416">
        <ele>103.37016</ele>
        <time>2024-09-15T08:45:53.000Z</time>
      </trkpt>
      <trkpt lat="42.14587" lon="-73.988566">
        <ele>102.577454</ele>
        <time>2024-09-15T08:45:59.000Z</time>
      </trkpt>
      <trkpt lat="42.145755" lon="-73.988546">
        <ele>102.393475</ele>
        <time>2024-09-15T08:46:00.000Z</time>
      </trkpt>
      <trkpt lat="42.145626" lon="-73.988473">
        <ele>102.193343</ele>
        <time>2024-09-15T08:46:02.000Z</time>
      </trkpt>
      <trkpt lat="42.145436" lon="-73.988339">
        <ele>101.881691</ele>
        <time>2024-09-15T08:46:04.000Z</time>
      </trkpt>
      <trkpt lat="42.145303" lon="-73.988276">
        <ele>101.770615</ele>
        <time>2024-09-15T08:46:06.000Z</time>
      </trkpt>
      <trkpt lat="42.14518" lon="-73.988255">
        <ele>101.647584</ele>
        <time>2024-09-15T08:46:07.000Z</time>
      </trkpt>
      <trkpt lat="42.144281" lon="-73.988649">
        <ele>100.815364</ele>
        <time>2024-09-15T08:46:18.000Z</time>
      </trkpt>
      <trkpt lat="42.144018" lon="-73.988687">
        <ele>100.573395</ele>
        <time>2024-09-15T08:46:21.000Z</time>
      </trkpt>
      <trkpt lat="42.143793" lon="-73.988744">
        <ele>100.36515</ele>
        <time>2024-09-15T08:46:24.000Z</time>
      </trkpt>
      <trkpt lat="42.143422" lon="-73.988915">
        <ele>100.269736</ele>
        <time>2024-09-15T08:46:28.000Z</time>
      </trkpt>
      <trkpt lat="42.143281" lon="-73.988975">
        <ele>100.236734</ele>
        <time>2024-09-15T08:46:30.000Z</time>
      </trkpt>
      <trkpt lat="42.142703" lon="-73.98911">
        <ele>100.10927</ele>
        <time>2024-09-15T08:46:37.000Z</time>
      </trkpt>
      <trkpt lat="42.142514" lon="-73.989151">
        <ele>100.06847</ele>
        <time>2024-09-15T08:46:39.000Z</time>
      </trkpt>
      <trkpt lat="42.142239" lon="-73.989255">
        <ele>100.007332</ele>
        <time>2024-09-15T08:46:42.000Z</time>
      </trkpt>
      <trkpt lat="42.141641" lon="-73.989659">
        <ele>99.985962</ele>
        <time>2024-09-15T08:46:49.000Z</time>
      </trkpt>
      <trkpt lat="42.141602" lon="-73.989342">
        <ele>99.999602</ele>
        <time>2024-09-15T08:46:52.000Z</time>
      </trkpt>
      <trkpt lat="42.141341" lon="-73.987492">
        <ele>100.130263</ele>
        <time>2024-09-15T08:47:08.000Z</time>
      </trkpt>
      <trkpt lat="42.140998" lon="-73.985862">
        <ele>100.403135</ele>
        <time>2024-09-15T08:47:22.000Z</time>
      </trkpt>
      <trkpt lat="42.140945" lon="-73.985778">
        <ele>100.421827</ele>
        <time>2024-09-15T08:47:23.000Z</time>
      </trkpt>
      <trkpt lat="42.140807" lon="-73.985675">
        <ele>100.454005</ele>
        <time>2024-09-15T08:47:25.000Z</time>
      </trkpt>
      <trkpt lat="42.140686" lon="-73.985668">
        <ele>100.373502</ele>
        <time>2024-09-15T08:47:26.000Z</time>
      </trkpt>
      <trkpt lat="42.140373" lon="-73.985698">
        <ele>100.085125</ele>
        <time>2024-09-15T08:47:29.000Z</time>
      </trkpt>
      <trkpt lat="42.140237" lon="-73.985702">
        <ele>99.945357</ele>
        <time>2024-09-15T08:47:31.000Z</time>
      </trkpt>
      <trkpt lat="42.13979" lon="-73.985601">
        <ele>99.509112</ele>
        <time>2024-09-15T08:47:36.000Z</time>
      </trkpt>
      <trkpt lat="42.139519" lon="-73.985452">
        <ele>99.229017</ele>
        <time>2024-09-15T08:47:39.000Z</time>
      </trkpt>
      <trkpt lat="42.139339" lon="-73.985317">
        <ele>99.040712</ele>
        <time>2024-09-15T08:47:41.000Z</time>
      </trkpt>
      <trkpt lat="42.139218" lon="-73.985184">
        <ele>98.879075</ele>
        <time>2024-09-15T08:47:43.000Z</time>
      </trkpt>
      <trkpt lat="42.138874" lon="-73.984563">
        <ele>98.142278</ele>
        <time>2024-09-15T08:47:49.000Z</time>
      </trkpt>
      <trkpt lat="42.138617" lon="-73.984288">
        <ele>97.675407</ele>
        <time>2024-09-15T08:47:53.000Z</time>
      </trkpt>
      <trkpt lat="42.138521" lon="-73.984148">
        <ele>97.496281</ele>
        <time>2024-09-15T08:47:55.000Z</time>
      </trkpt>
      <trkpt lat="42.138236" lon="-73.983333">
        <ele>96.559999</ele>
        <time>2024-09-15T08:48:02.000Z</time>
      </trkpt>
      <trkpt lat="42.138073" lon="-73.982778">
        <ele>96.003714</ele>
        <time>2024-09-15T08:48:07.000Z</time>
      </trkpt>
      <trkpt lat="42.138007" lon="-73.982635">
        <ele>95.881413</ele>
        <time>2024-09-15T08:48:08.000Z</time>
      </trkpt>
      <trkpt lat="42.137664" lon="-73.982199">
        <ele>95.378419</ele>
        <time>2024-09-15T08:48:13.000Z</time>
      </trkpt>
      <trkpt lat="42.137348" lon="-73.98169">
        <ele>94.850859</ele>
        <time>2024-09-15T08:48:18.000Z</time>
      </trkpt>
      <trkpt lat="42.13696" lon="-73.981193">
        <ele>94.263811</ele>
        <time>2024-09-15T08:48:24.000Z</time>
      </trkpt>
      <trkpt lat="42.136749" lon="-73.980845">
        <ele>93.627464</ele>
        <time>2024-09-15T08:48:28.000Z</time>
      </trkpt>
      <trkpt lat="42.136582" lon="-73.980432">
        <ele>92.976082</ele>
        <time>2024-09-15T08:48:32.000Z</time>
      </trkpt>
      <trkpt lat="42.136587" lon="-73.980436">
        <ele>92.973747</ele>
        <time>2024-09-15T08:48:32.000Z</time>
      </trkpt>
      <trkpt lat="42.136502" lon="-73.979724">
        <ele>91.986359</ele>
        <time>2024-09-15T08:48:38.000Z</time>
      </trkpt>
      <trkpt lat="42.136508" lon="-73.979552">
        <ele>91.746238</ele>
        <time>2024-09-15T08:48:39.000Z</time>
      </trkpt>
      <trkpt lat="42.136563" lon="-73.978978">
        <ele>90.935236</ele>
        <time>2024-09-15T08:48:44.000Z</time>
      </trkpt>
      <trkpt lat="42.136658" lon="-73.978386">
        <ele>88.358901</ele>
        <time>2024-09-15T08:48:49.000Z</time>
      </trkpt>
      <trkpt lat="42.136629" lon="-73.977462">
        <ele>84.381381</ele>
        <time>2024-09-15T08:48:57.000Z</time>
      </trkpt>
      <trkpt lat="42.136543" lon="-73.976351">
        <ele>79.496053</ele>
        <time>2024-09-15T08:49:06.000Z</time>
      </trkpt>
      <trkpt lat="42.136516" lon="-73.975285">
        <ele>74.173632</ele>
        <time>2024-09-15T08:49:15.000Z</time>
      </trkpt>
      <trkpt lat="42.136496" lon="-73.975109">
        <ele>73.235391</ele>
        <time>2024-09-15T08:49:16.000Z</time>
      </trkpt>
      <trkpt lat="42.136361" lon="-73.974309">
        <ele>69.217485</ele>
        <time>2024-09-15T08:49:23.000Z</time>
      </trkpt>
      <trkpt lat="42.136336" lon="-73.974195">
        <ele>68.601702</ele>
        <time>2024-09-15T08:49:24.000Z</time>
      </trkpt>
      <trkpt lat="42.136194" lon="-73.973967">
        <ele>67.388836</ele>
        <time>2024-09-15T08:49:26.000Z</time>
      </trkpt>
      <trkpt lat="42.135888" lon="-73.973723">
        <ele>65.502882</ele>
        <time>2024-09-15T08:49:30.000Z</time>
      </trkpt>
      <trkpt lat="42.135555" lon="-73.973305">
        <ele>62.944872</ele>
        <time>2024-09-15T08:49:35.000Z</time>
      </trkpt>
      <trkpt lat="42.135451" lon="-73.973098">
        <ele>61.941723</ele>
        <time>2024-09-15T08:49:37.000Z</time>
      </trkpt>
      <trkpt lat="42.13543" lon="-73.972975">
        <ele>61.455149</ele>
        <time>2024-09-15T08:49:38.000Z</time>
      </trkpt>
      <trkpt lat="42.135431" lon="-73.97253">
        <ele>59.597695</ele>
        <time>2024-09-15T08:49:42.000Z</time>
      </trkpt>
      <trkpt lat="42.135362" lon="-73.972011">
        <ele>57.908013</ele>
        <time>2024-09-15T08:49:46.000Z</time>
      </trkpt>
      <trkpt lat="42.135355" lon="-73.971752">
        <ele>57.196318</ele>
        <time>2024-09-15T08:49:48.000Z</time>
      </trkpt>
      <trkpt lat="42.135417" lon="-73.971445">
        <ele>56.321872</ele>
        <time>2024-09-15T08:49:51.000Z</time>
      </trkpt>
      <trkpt lat="42.13553" lon="-73.971187">
        <ele>55.549451</ele>
        <time>2024-09-15T08:49:53.000Z</time>
      </trkpt>
      <trkpt lat="42.13576" lon="-73.970819">
        <ele>54.173798</ele>
        <time>2024-09-15T08:49:57.000Z</time>
      </trkpt>
      <trkpt lat="42.13637" lon="-73.970176">
        <ele>51.68874</ele>
        <time>2024-09-15T08:50:06.000Z</time>
      </trkpt>
      <trkpt lat="42.136561" lon="-73.970035">
        <ele>51.211924</ele>
        <time>2024-09-15T08:50:08.000Z</time>
      </trkpt>
      <trkpt lat="42.136948" lon="-73.969852">
        <ele>50.378821</ele>
        <time>2024-09-15T08:50:13.000Z</time>
      </trkpt>
      <trkpt lat="42.137109" lon="-73.969723">
        <ele>50.000628</ele>
        <time>2024-09-15T08:50:15.000Z</time>
      </trkpt>
      <trkpt lat="42.137183" lon="-73.969644">
        <ele>49.819044</ele>
        <time>2024-09-15T08:50:16.000Z</time>
      </trkpt>
      <trkpt lat="42.137298" lon="-73.969452">
        <ele>49.417793</ele>
        <time>2024-09-15T08:50:18.000Z</time>
      </trkpt>
      <trkpt lat="42.137842" lon="-73.968055">
        <ele>46.776385</ele>
        <time>2024-09-15T08:50:31.000Z</time>
      </trkpt>
      <trkpt lat="42.137946" lon="-73.967747">
        <ele>46.171417</ele>
        <time>2024-09-15T08:50:34.000Z</time>
      </trkpt>
      <trkpt lat="42.137982" lon="-73.967578">
        <ele>45.843658</ele>
        <time>2024-09-15T08:50:35.000Z</time>
      </trkpt>
      <trkpt lat="42.13796" lon="-73.967486">
        <ele>45.679004</ele>
        <time>2024-09-15T08:50:36.000Z</time>
      </trkpt>
      <trkpt lat="42.137953" lon="-73.96738">
        <ele>45.48931</ele>
        <time>2024-09-15T08:50:37.000Z</time>
      </trkpt>
      <trkpt lat="42.137856" lon="-73.967227">
        <ele>45.143306</ele>
        <time>2024-09-15T08:50:39.000Z</time>
      </trkpt>
      <trkpt lat="42.137761" lon="-73.96717">
        <ele>44.858806</ele>
        <time>2024-09-15T08:50:40.000Z</time>
      </trkpt>
      <trkpt lat="42.136926" lon="-73.966602">
        <ele>43.581356</ele>
        <time>2024-09-15T08:50:50.000Z</time>
      </trkpt>
      <trkpt lat="42.134115" lon="-73.965567">
        <ele>43.556392</ele>
        <time>2024-09-15T08:51:22.000Z</time>
      </trkpt>
      <trkpt lat="42.133964" lon="-73.965401">
        <ele>43.932071</ele>
        <time>2024-09-15T08:51:24.000Z</time>
      </trkpt>
      <trkpt lat="42.133864" lon="-73.965203">
        <ele>44.600965</ele>
        <time>2024-09-15T08:51:26.000Z</time>
      </trkpt>
      <trkpt lat="42.133689" lon="-73.964514">
        <ele>46.722888</ele>
        <time>2024-09-15T08:51:32.000Z</time>
      </trkpt>
      <trkpt lat="42.133614" lon="-73.964118">
        <ele>47.903449</ele>
        <time>2024-09-15T08:51:35.000Z</time>
      </trkpt>
      <trkpt lat="42.133586" lon="-73.963904">
        <ele>48.516784</ele>
        <time>2024-09-15T08:51:37.000Z</time>
      </trkpt>
      <trkpt lat="42.133526" lon="-73.961864">
        <ele>55.181798</ele>
        <time>2024-09-15T08:51:54.000Z</time>
      </trkpt>
      <trkpt lat="42.133477" lon="-73.961572">
        <ele>56.264037</ele>
        <time>2024-09-15T08:51:56.000Z</time>
      </trkpt>
      <trkpt lat="42.133353" lon="-73.961443">
        <ele>57.005603</ele>
        <time>2024-09-15T08:51:58.000Z</time>
      </trkpt>
      <trkpt lat="42.133166" lon="-73.9614">
        <ele>57.911538</ele>
        <time>2024-09-15T08:52:00.000Z</time>
      </trkpt>
      <trkpt lat="42.132316" lon="-73.96166">
        <ele>60.894798</ele>
        <time>2024-09-15T08:52:10.000Z</time>
      </trkpt>
      <trkpt lat="42.132055" lon="-73.961697">
        <ele>61.688549</ele>
        <time>2024-09-15T08:52:13.000Z</time>
      </trkpt>
      <trkpt lat="42.131719" lon="-73.961682">
        <ele>62.691711</ele>
        <time>2024-09-15T08:52:17.000Z</time>
      </trkpt>
      <trkpt lat="42.131202" lon="-73.961497">
        <ele>64.240153</ele>
        <time>2024-09-15T08:52:23.000Z</time>
      </trkpt>
      <trkpt lat="42.130453" lon="-73.961137">
        <ele>66.086311</ele>
        <time>2024-09-15T08:52:32.000Z</time>
      </trkpt>
      <trkpt lat="42.130186" lon="-73.961057">
        <ele>66.725298</ele>
        <time>2024-09-15T08:52:35.000Z</time>
      </trkpt>
      <trkpt lat="42.129637" lon="-73.961026">
        <ele>68.020081</ele>
        <time>2024-09-15T08:52:41.000Z</time>
      </trkpt>
      <trkpt lat="42.12936" lon="-73.960969">
        <ele>68.566132</ele>
        <time>2024-09-15T08:52:44.000Z</time>
      </trkpt>
      <trkpt lat="42.129052" lon="-73.960859">
        <ele>68.816291</ele>
        <time>2024-09-15T08:52:48.000Z</time>
      </trkpt>
      <trkpt lat="42.128248" lon="-73.960473">
        <ele>69.495653</ele>
        <time>2024-09-15T08:52:57.000Z</time>
      </trkpt>
      <trkpt lat="42.127993" lon="-73.960345">
        <ele>69.71512</ele>
        <time>2024-09-15T08:53:00.000Z</time>
      </trkpt>
      <trkpt lat="42.127023" lon="-73.95981">
        <ele>69.43294</ele>
        <time>2024-09-15T08:53:12.000Z</time>
      </trkpt>
      <trkpt lat="42.126874" lon="-73.959688">
        <ele>69.315369</ele>
        <time>2024-09-15T08:53:14.000Z</time>
      </trkpt>
      <trkpt lat="42.126601" lon="-73.959397">
        <ele>69.072482</ele>
        <time>2024-09-15T08:53:18.000Z</time>
      </trkpt>
      <trkpt lat="42.127699" lon="-73.958954">
        <ele>68.986619</ele>
        <time>2024-09-15T08:53:31.000Z</time>
      </trkpt>
      <trkpt lat="42.127925" lon="-73.958883">
        <ele>69.094288</ele>
        <time>2024-09-15T08:53:34.000Z</time>
      </trkpt>
      <trkpt lat="42.128598" lon="-73.9588">
        <ele>69.402986</ele>
        <time>2024-09-15T08:53:42.000Z</time>
      </trkpt>
      <trkpt lat="42.128715" lon="-73.958799">
        <ele>69.451608</ele>
        <time>2024-09-15T08:53:43.000Z</time>
      </trkpt>
      <trkpt lat="42.128947" lon="-73.958766">
        <ele>69.527037</ele>
        <time>2024-09-15T08:53:46.000Z</time>
      </trkpt>
      <trkpt lat="42.129098" lon="-73.958747">
        <ele>69.528136</ele>
        <time>2024-09-15T08:53:48.000Z</time>
      </trkpt>
      <trkpt lat="42.13006" lon="-73.958671">
        <ele>69.53452</ele>
        <time>2024-09-15T08:53:59.000Z</time>
      </trkpt>
      <trkpt lat="42.130262" lon="-73.95864">
        <ele>69.535891</ele>
        <time>2024-09-15T08:54:01.000Z</time>
      </trkpt>
      <trkpt lat="42.1304" lon="-73.958571">
        <ele>69.536804</ele>
        <time>2024-09-15T08:54:03.000Z</time>
      </trkpt>
      <trkpt lat="42.130728" lon="-73.958293">
        <ele>69.393454</ele>
        <time>2024-09-15T08:54:07.000Z</time>
      </trkpt>
      <trkpt lat="42.130897" lon="-73.95812">
        <ele>69.173634</ele>
        <time>2024-09-15T08:54:09.000Z</time>
      </trkpt>
      <trkpt lat="42.13119" lon="-73.957942">
        <ele>68.836935</ele>
        <time>2024-09-15T08:54:13.000Z</time>
      </trkpt>
      <trkpt lat="42.131737" lon="-73.957685">
        <ele>68.212549</ele>
        <time>2024-09-15T08:54:19.000Z</time>
      </trkpt>
      <trkpt lat="42.132358" lon="-73.957411">
        <ele>67.547466</ele>
        <time>2024-09-15T08:54:26.000Z</time>
      </trkpt>
      <trkpt lat="42.13255" lon="-73.957353">
        <ele>67.354867</ele>
        <time>2024-09-15T08:54:28.000Z</time>
      </trkpt>
      <trkpt lat="42.132864" lon="-73.957289">
        <ele>67.081007</ele>
        <time>2024-09-15T08:54:32.000Z</time>
      </trkpt>
      <trkpt lat="42.133414" lon="-73.957204">
        <ele>66.571911</ele>
        <time>2024-09-15T08:54:38.000Z</time>
      </trkpt>
      <trkpt lat="42.133488" lon="-73.957181">
        <ele>66.50783</ele>
        <time>2024-09-15T08:54:39.000Z</time>
      </trkpt>
      <trkpt lat="42.133845" lon="-73.957036">
        <ele>66.16636</ele>
        <time>2024-09-15T08:54:43.000Z</time>
      </trkpt>
      <trkpt lat="42.134424" lon="-73.956751">
        <ele>65.692675</ele>
        <time>2024-09-15T08:54:50.000Z</time>
      </trkpt>
      <trkpt lat="42.135048" lon="-73.956383">
        <ele>65.18514</ele>
        <time>2024-09-15T08:54:58.000Z</time>
      </trkpt>
      <trkpt lat="42.135593" lon="-73.956013">
        <ele>64.736841</ele>
        <time>2024-09-15T08:55:05.000Z</time>
      </trkpt>
      <trkpt lat="42.136011" lon="-73.955764">
        <ele>64.288258</ele>
        <time>2024-09-15T08:55:10.000Z</time>
      </trkpt>
      <trkpt lat="42.136303" lon="-73.955647">
        <ele>63.985758</ele>
        <time>2024-09-15T08:55:13.000Z</time>
      </trkpt>
      <trkpt lat="42.137152" lon="-73.955442">
        <ele>63.081588</ele>
        <time>2024-09-15T08:55:23.000Z</time>
      </trkpt>
      <trkpt lat="42.138096" lon="-73.955191">
        <ele>61.61498</ele>
        <time>2024-09-15T08:55:34.000Z</time>
      </trkpt>
      <trkpt lat="42.138972" lon="-73.954818">
        <ele>60.059576</ele>
        <time>2024-09-15T08:55:44.000Z</time>
      </trkpt>
      <trkpt lat="42.139394" lon="-73.954622">
        <ele>58.956607</ele>
        <time>2024-09-15T08:55:49.000Z</time>
      </trkpt>
      <trkpt lat="42.139851" lon="-73.954226">
        <ele>57.38072</ele>
        <time>2024-09-15T08:55:55.000Z</time>
      </trkpt>
      <trkpt lat="42.140162" lon="-73.954054">
        <ele>56.437692</ele>
        <time>2024-09-15T08:55:59.000Z</time>
      </trkpt>
      <trkpt lat="42.141389" lon="-73.953658">
        <ele>53.316183</ele>
        <time>2024-09-15T08:56:13.000Z</time>
      </trkpt>
      <trkpt lat="42.140483" lon="-73.952377">
        <ele>50.839001</ele>
        <time>2024-09-15T08:56:28.000Z</time>
      </trkpt>
      <trkpt lat="42.140204" lon="-73.951937">
        <ele>50.401832</ele>
        <time>2024-09-15T08:56:33.000Z</time>
      </trkpt>
      <trkpt lat="42.139222" lon="-73.949714">
        <ele>48.833378</ele>
        <time>2024-09-15T08:56:54.000Z</time>
      </trkpt>
      <trkpt lat="42.138906" lon="-73.949005">
        <ele>48.569546</ele>
        <time>2024-09-15T08:57:01.000Z</time>
      </trkpt>
      <trkpt lat="42.137994" lon="-73.946925">
        <ele>48.926947</ele>
        <time>2024-09-15T08:57:21.000Z</time>
      </trkpt>
      <trkpt lat="42.137843" lon="-73.946566">
        <ele>49.06554</ele>
        <time>2024-09-15T08:57:24.000Z</time>
      </trkpt>
      <trkpt lat="42.13756" lon="-73.945777">
        <ele>49.051637</ele>
        <time>2024-09-15T08:57:31.000Z</time>
      </trkpt>
      <trkpt lat="42.13746" lon="-73.945549">
        <ele>49.011446</ele>
        <time>2024-09-15T08:57:33.000Z</time>
      </trkpt>
      <trkpt lat="42.137362" lon="-73.945419">
        <ele>48.984176</ele>
        <time>2024-09-15T08:57:35.000Z</time>
      </trkpt>
      <trkpt lat="42.137232" lon="-73.94535">
        <ele>48.959436</ele>
        <time>2024-09-15T08:57:37.000Z</time>
      </trkpt>
      <trkpt lat="42.137013" lon="-73.945339">
        <ele>48.912206</ele>
        <time>2024-09-15T08:57:39.000Z</time>
      </trkpt>
      <trkpt lat="42.136461" lon="-73.945558">
        <ele>48.800646</ele>
        <time>2024-09-15T08:57:45.000Z</time>
      </trkpt>
      <trkpt lat="42.136185" lon="-73.945571">
        <ele>48.762003</ele>
        <time>2024-09-15T08:57:48.000Z</time>
      </trkpt>
      <trkpt lat="42.136055" lon="-73.945499">
        <ele>48.745279</ele>
        <time>2024-09-15T08:57:50.000Z</time>
      </trkpt>
      <trkpt lat="42.135873" lon="-73.94535">
        <ele>48.720345</ele>
        <time>2024-09-15T08:57:52.000Z</time>
      </trkpt>
      <trkpt lat="42.135683" lon="-73.945151">
        <ele>48.69134</ele>
        <time>2024-09-15T08:57:55.000Z</time>
      </trkpt>
      <trkpt lat="42.135502" lon="-73.944968">
        <ele>48.666337</ele>
        <time>2024-09-15T08:57:58.000Z</time>
      </trkpt>
      <trkpt lat="42.134956" lon="-73.944352">
        <ele>48.581536</ele>
        <time>2024-09-15T08:58:06.000Z</time>
      </trkpt>
      <trkpt lat="42.134337" lon="-73.943723">
        <ele>48.892352</ele>
        <time>2024-09-15T08:58:15.000Z</time>
      </trkpt>
      <trkpt lat="42.134171" lon="-73.943527">
        <ele>48.990018</ele>
        <time>2024-09-15T08:58:17.000Z</time>
      </trkpt>
      <trkpt lat="42.134111" lon="-73.943397">
        <ele>49.038699</ele>
        <time>2024-09-15T08:58:18.000Z</time>
      </trkpt>
      <trkpt lat="42.133893" lon="-73.942556">
        <ele>49.332491</ele>
        <time>2024-09-15T08:58:25.000Z</time>
      </trkpt>
      <trkpt lat="42.133815" lon="-73.942329">
        <ele>49.405642</ele>
        <time>2024-09-15T08:58:27.000Z</time>
      </trkpt>
      <trkpt lat="42.133764" lon="-73.942249">
        <ele>49.433135</ele>
        <time>2024-09-15T08:58:28.000Z</time>
      </trkpt>
      <trkpt lat="42.13346" lon="-73.94196">
        <ele>49.562074</ele>
        <time>2024-09-15T08:58:32.000Z</time>
      </trkpt>
      <trkpt lat="42.133306" lon="-73.941696">
        <ele>49.648456</ele>
        <time>2024-09-15T08:58:35.000Z</time>
      </trkpt>
      <trkpt lat="42.132813" lon="-73.940828">
        <ele>49.929338</ele>
        <time>2024-09-15T08:58:44.000Z</time>
      </trkpt>
      <trkpt lat="42.13264" lon="-73.940501">
        <ele>50.033207</ele>
        <time>2024-09-15T08:58:47.000Z</time>
      </trkpt>
      <trkpt lat="42.132332" lon="-73.93994">
        <ele>50.22534</ele>
        <time>2024-09-15T08:58:53.000Z</time>
      </trkpt>
      <trkpt lat="42.13213" lon="-73.939687">
        <ele>50.323793</ele>
        <time>2024-09-15T08:58:56.000Z</time>
      </trkpt>
      <trkpt lat="42.132013" lon="-73.939572">
        <ele>50.373556</ele>
        <time>2024-09-15T08:58:58.000Z</time>
      </trkpt>
      <trkpt lat="42.131765" lon="-73.939394">
        <ele>50.473997</ele>
        <time>2024-09-15T08:59:01.000Z</time>
      </trkpt>
      <trkpt lat="42.131641" lon="-73.939323">
        <ele>50.523143</ele>
        <time>2024-09-15T08:59:02.000Z</time>
      </trkpt>
      <trkpt lat="42.131011" lon="-73.939226">
        <ele>50.407679</ele>
        <time>2024-09-15T08:59:09.000Z</time>
      </trkpt>
      <trkpt lat="42.130598" lon="-73.939154">
        <ele>50.08069</ele>
        <time>2024-09-15T08:59:14.000Z</time>
      </trkpt>
      <trkpt lat="42.130386" lon="-73.939034">
        <ele>49.894564</ele>
        <time>2024-09-15T08:59:17.000Z</time>
      </trkpt>
      <trkpt lat="42.130343" lon="-73.939174">
        <ele>49.807741</ele>
        <time>2024-09-15T08:59:18.000Z</time>
      </trkpt>
      <trkpt lat="42.130211" lon="-73.93992">
        <ele>49.354281</ele>
        <time>2024-09-15T08:59:24.000Z</time>
      </trkpt>
      <trkpt lat="42.130188" lon="-73.94005">
        <ele>49.270863</ele>
        <time>2024-09-15T08:59:25.000Z</time>
      </trkpt>
      <trkpt lat="42.129925" lon="-73.941501">
        <ele>48.405902</ele>
        <time>2024-09-15T08:59:37.000Z</time>
      </trkpt>
      <trkpt lat="42.129815" lon="-73.94184">
        <ele>48.188622</ele>
        <time>2024-09-15T08:59:40.000Z</time>
      </trkpt>
      <trkpt lat="42.129714" lon="-73.941972">
        <ele>48.074744</ele>
        <time>2024-09-15T08:59:42.000Z</time>
      </trkpt>
      <trkpt lat="42.129504" lon="-73.942099">
        <ele>47.901991</ele>
        <time>2024-09-15T08:59:45.000Z</time>
      </trkpt>
      <trkpt lat="42.128666" lon="-73.942308">
        <ele>48.259109</ele>
        <time>2024-09-15T08:59:54.000Z</time>
      </trkpt>
      <trkpt lat="42.1279" lon="-73.94241">
        <ele>48.725476</ele>
        <time>2024-09-15T09:00:03.000Z</time>
      </trkpt>
      <trkpt lat="42.127562" lon="-73.942524">
        <ele>48.916266</ele>
        <time>2024-09-15T09:00:07.000Z</time>
      </trkpt>
      <trkpt lat="42.127144" lon="-73.942726">
        <ele>49.100223</ele>
        <time>2024-09-15T09:00:12.000Z</time>
      </trkpt>
      <trkpt lat="42.126729" lon="-73.943003">
        <ele>49.286609</ele>
        <time>2024-09-15T09:00:17.000Z</time>
      </trkpt>
      <trkpt lat="42.126123" lon="-73.943557">
        <ele>49.587571</ele>
        <time>2024-09-15T09:00:25.000Z</time>
      </trkpt>
      <trkpt lat="42.125745" lon="-73.943899">
        <ele>49.687194</ele>
        <time>2024-09-15T09:00:30.000Z</time>
      </trkpt>
      <trkpt lat="42.12561" lon="-73.944035">
        <ele>49.718364</ele>
        <time>2024-09-15T09:00:32.000Z</time>
      </trkpt>
      <trkpt lat="42.125528" lon="-73.944129">
        <ele>49.736749</ele>
        <time>2024-09-15T09:00:33.000Z</time>
      </trkpt>
      <trkpt lat="42.125315" lon="-73.944364">
        <ele>49.787694</ele>
        <time>2024-09-15T09:00:36.000Z</time>
      </trkpt>
      <trkpt lat="42.12449" lon="-73.945285">
        <ele>49.855068</ele>
        <time>2024-09-15T09:00:48.000Z</time>
      </trkpt>
      <trkpt lat="42.124226" lon="-73.945632">
        <ele>49.681625</ele>
        <time>2024-09-15T09:00:52.000Z</time>
      </trkpt>
      <trkpt lat="42.123807" lon="-73.946266">
        <ele>49.384113</ele>
        <time>2024-09-15T09:00:59.000Z</time>
      </trkpt>
      <trkpt lat="42.123639" lon="-73.946479">
        <ele>49.275285</ele>
        <time>2024-09-15T09:01:02.000Z</time>
      </trkpt>
      <trkpt lat="42.123582" lon="-73.946674">
        <ele>49.202512</ele>
        <time>2024-09-15T09:01:04.000Z</time>
      </trkpt>
      <trkpt lat="42.123558" lon="-73.94678">
        <ele>49.163961</ele>
        <time>2024-09-15T09:01:05.000Z</time>
      </trkpt>
      <trkpt lat="42.123437" lon="-73.946962">
        <ele>49.047089</ele>
        <time>2024-09-15T09:01:07.000Z</time>
      </trkpt>
      <trkpt lat="42.122775" lon="-73.947547">
        <ele>47.959599</ele>
        <time>2024-09-15T09:01:16.000Z</time>
      </trkpt>
      <trkpt lat="42.122562" lon="-73.947844">
        <ele>47.520053</ele>
        <time>2024-09-15T09:01:19.000Z</time>
      </trkpt>
      <trkpt lat="42.122443" lon="-73.948195">
        <ele>47.123673</ele>
        <time>2024-09-15T09:01:22.000Z</time>
      </trkpt>
      <trkpt lat="42.122324" lon="-73.94868">
        <ele>46.611864</ele>
        <time>2024-09-15T09:01:26.000Z</time>
      </trkpt>
      <trkpt lat="42.122304" lon="-73.948626">
        <ele>46.575997</ele>
        <time>2024-09-15T09:01:26.000Z</time>
      </trkpt>
      <trkpt lat="42.121936" lon="-73.947876">
        <ele>46.114314</ele>
        <time>2024-09-15T09:01:33.000Z</time>
      </trkpt>
      <trkpt lat="42.121115" lon="-73.945968">
        <ele>45.102809</ele>
        <time>2024-09-15T09:01:51.000Z</time>
      </trkpt>
      <trkpt lat="42.121113" lon="-73.945955">
        <ele>45.094789</ele>
        <time>2024-09-15T09:01:51.000Z</time>
      </trkpt>
      <trkpt lat="42.120944" lon="-73.945565">
        <ele>44.952635</ele>
        <time>2024-09-15T09:01:55.000Z</time>
      </trkpt>
      <trkpt lat="42.120744" lon="-73.945269">
        <ele>44.814377</ele>
        <time>2024-09-15T09:01:58.000Z</time>
      </trkpt>
      <trkpt lat="42.120671" lon="-73.945129">
        <ele>44.760441</ele>
        <time>2024-09-15T09:01:59.000Z</time>
      </trkpt>
      <trkpt lat="42.120633" lon="-73.944925">
        <ele>44.691244</ele>
        <time>2024-09-15T09:02:01.000Z</time>
      </trkpt>
      <trkpt lat="42.120599" lon="-73.944687">
        <ele>44.611986</ele>
        <time>2024-09-15T09:02:03.000Z</time>
      </trkpt>
      <trkpt lat="42.120501" lon="-73.944348">
        <ele>44.547791</ele>
        <time>2024-09-15T09:02:06.000Z</time>
      </trkpt>
      <trkpt lat="42.119164" lon="-73.940939">
        <ele>45.232219</ele>
        <time>2024-09-15T09:02:38.000Z</time>
      </trkpt>
      <trkpt lat="42.119158" lon="-73.940929">
        <ele>45.235554</ele>
        <time>2024-09-15T09:02:38.000Z</time>
      </trkpt>
      <trkpt lat="42.119158" lon="-73.940917">
        <ele>45.242599</ele>
        <time>2024-09-15T09:02:38.000Z</time>
      </trkpt>
      <trkpt lat="42.118733" lon="-73.940049">
        <ele>45.819915</ele>
        <time>2024-09-15T09:02:47.000Z</time>
      </trkpt>
      <trkpt lat="42.117655" lon="-73.937988">
        <ele>48.178625</ele>
        <time>2024-09-15T09:03:08.000Z</time>
      </trkpt>
      <trkpt lat="42.117533" lon="-73.937676">
        <ele>48.188762</ele>
        <time>2024-09-15T09:03:11.000Z</time>
      </trkpt>
      <trkpt lat="42.117454" lon="-73.937148">
        <ele>48.204273</ele>
        <time>2024-09-15T09:03:15.000Z</time>
      </trkpt>
      <trkpt lat="42.117402" lon="-73.936772">
        <ele>48.215332</ele>
        <time>2024-09-15T09:03:18.000Z</time>
      </trkpt>
      <trkpt lat="42.117279" lon="-73.935246">
        <ele>47.929363</ele>
        <time>2024-09-15T09:03:31.000Z</time>
      </trkpt>
      <trkpt lat="42.11722" lon="-73.934961">
        <ele>47.795223</ele>
        <time>2024-09-15T09:03:33.000Z</time>
      </trkpt>
      <trkpt lat="42.116984" lon="-73.935185">
        <ele>47.623931</ele>
        <time>2024-09-15T09:03:36.000Z</time>
      </trkpt>
      <trkpt lat="42.116646" lon="-73.935425">
        <ele>47.401792</ele>
        <time>2024-09-15T09:03:40.000Z</time>
      </trkpt>
      <trkpt lat="42.116479" lon="-73.935529">
        <ele>47.288064</ele>
        <time>2024-09-15T09:03:42.000Z</time>
      </trkpt>
      <trkpt lat="42.116191" lon="-73.935625">
        <ele>47.188925</ele>
        <time>2024-09-15T09:03:45.000Z</time>
      </trkpt>
      <trkpt lat="42.114759" lon="-73.935967">
        <ele>47.458567</ele>
        <time>2024-09-15T09:04:01.000Z</time>
      </trkpt>
      <trkpt lat="42.113908" lon="-73.93617">
        <ele>47.125108</ele>
        <time>2024-09-15T09:04:11.000Z</time>
      </trkpt>
      <trkpt lat="42.113084" lon="-73.936253">
        <ele>46.621365</ele>
        <time>2024-09-15T09:04:20.000Z</time>
      </trkpt>
      <trkpt lat="42.112713" lon="-73.936235">
        <ele>46.377128</ele>
        <time>2024-09-15T09:04:24.000Z</time>
      </trkpt>
      <trkpt lat="42.11252" lon="-73.936201">
        <ele>46.142779</ele>
        <time>2024-09-15T09:04:26.000Z</time>
      </trkpt>
      <trkpt lat="42.11178" lon="-73.935923">
        <ele>45.200872</ele>
        <time>2024-09-15T09:04:35.000Z</time>
      </trkpt>
      <trkpt lat="42.111605" lon="-73.935929">
        <ele>44.967611</ele>
        <time>2024-09-15T09:04:37.000Z</time>
      </trkpt>
      <trkpt lat="42.111377" lon="-73.935947">
        <ele>44.701678</ele>
        <time>2024-09-15T09:04:40.000Z</time>
      </trkpt>
      <trkpt lat="42.111096" lon="-73.936074">
        <ele>44.333416</ele>
        <time>2024-09-15T09:04:43.000Z</time>
      </trkpt>
      <trkpt lat="42.109408" lon="-73.937082">
        <ele>43.642319</ele>
        <time>2024-09-15T09:05:04.000Z</time>
      </trkpt>
      <trkpt lat="42.109083" lon="-73.937278">
        <ele>43.679432</ele>
        <time>2024-09-15T09:05:08.000Z</time>
      </trkpt>
      <trkpt lat="42.108802" lon="-73.93743">
        <ele>43.747671</ele>
        <time>2024-09-15T09:05:11.000Z</time>
      </trkpt>
      <trkpt lat="42.108434" lon="-73.937614">
        <ele>43.835192</ele>
        <time>2024-09-15T09:05:15.000Z</time>
      </trkpt>
      <trkpt lat="42.108043" lon="-73.937712">
        <ele>43.926976</ele>
        <time>2024-09-15T09:05:19.000Z</time>
      </trkpt>
      <trkpt lat="42.107399" lon="-73.937782">
        <ele>43.961821</ele>
        <time>2024-09-15T09:05:26.000Z</time>
      </trkpt>
      <trkpt lat="42.105955" lon="-73.9379">
        <ele>43.566594</ele>
        <time>2024-09-15T09:05:42.000Z</time>
      </trkpt>
      <trkpt lat="42.105769" lon="-73.937914">
        <ele>43.550873</ele>
        <time>2024-09-15T09:05:44.000Z</time>
      </trkpt>
      <trkpt lat="42.105294" lon="-73.937923">
        <ele>43.74491</ele>
        <time>2024-09-15T09:05:49.000Z</time>
      </trkpt>
      <trkpt lat="42.105052" lon="-73.937916">
        <ele>43.842987</ele>
        <time>2024-09-15T09:05:52.000Z</time>
      </trkpt>
      <trkpt lat="42.103982" lon="-73.9377">
        <ele>44.254266</ele>
        <time>2024-09-15T09:06:04.000Z</time>
      </trkpt>
      <trkpt lat="42.10339" lon="-73.937536">
        <ele>44.208886</ele>
        <time>2024-09-15T09:06:11.000Z</time>
      </trkpt>
      <trkpt lat="42.103017" lon="-73.9375">
        <ele>44.181594</ele>
        <time>2024-09-15T09:06:15.000Z</time>
      </trkpt>
      <trkpt lat="42.102678" lon="-73.93754">
        <ele>44.157258</ele>
        <time>2024-09-15T09:06:19.000Z</time>
      </trkpt>
      <trkpt lat="42.1023" lon="-73.937623">
        <ele>44.12863</ele>
        <time>2024-09-15T09:06:23.000Z</time>
      </trkpt>
      <trkpt lat="42.101815" lon="-73.937847">
        <ele>44.404289</ele>
        <time>2024-09-15T09:06:29.000Z</time>
      </trkpt>
      <trkpt lat="42.101237" lon="-73.938104">
        <ele>44.754335</ele>
        <time>2024-09-15T09:06:36.000Z</time>
      </trkpt>
      <trkpt lat="42.100115" lon="-73.938572">
        <ele>46.239099</ele>
        <time>2024-09-15T09:06:49.000Z</time>
      </trkpt>
      <trkpt lat="42.099637" lon="-73.938742">
        <ele>47.362745</ele>
        <time>2024-09-15T09:06:54.000Z</time>
      </trkpt>
      <trkpt lat="42.099344" lon="-73.938822">
        <ele>48.016918</ele>
        <time>2024-09-15T09:06:57.000Z</time>
      </trkpt>
      <trkpt lat="42.098287" lon="-73.938887">
        <ele>50.603104</ele>
        <time>2024-09-15T09:07:09.000Z</time>
      </trkpt>
      <trkpt lat="42.097503" lon="-73.939021">
        <ele>52.655074</ele>
        <time>2024-09-15T09:07:18.000Z</time>
      </trkpt>
      <trkpt lat="42.097252" lon="-73.939056">
        <ele>53.288981</ele>
        <time>2024-09-15T09:07:21.000Z</time>
      </trkpt>
      <trkpt lat="42.096667" lon="-73.939173">
        <ele>54.059114</ele>
        <time>2024-09-15T09:07:28.000Z</time>
      </trkpt>
      <trkpt lat="42.096437" lon="-73.939237">
        <ele>54.143668</ele>
        <time>2024-09-15T09:07:31.000Z</time>
      </trkpt>
      <trkpt lat="42.096054" lon="-73.939384">
        <ele>54.282283</ele>
        <time>2024-09-15T09:07:35.000Z</time>
      </trkpt>
      <trkpt lat="42.09597" lon="-73.939428">
        <ele>54.318578</ele>
        <time>2024-09-15T09:07:36.000Z</time>
      </trkpt>
      <trkpt lat="42.095355" lon="-73.939682">
        <ele>54.544994</ele>
        <time>2024-09-15T09:07:43.000Z</time>
      </trkpt>
      <trkpt lat="42.095032" lon="-73.939812">
        <ele>54.219585</ele>
        <time>2024-09-15T09:07:47.000Z</time>
      </trkpt>
      <trkpt lat="42.094435" lon="-73.939975">
        <ele>53.335214</ele>
        <time>2024-09-15T09:07:54.000Z</time>
      </trkpt>
      <trkpt lat="42.094142" lon="-73.939973">
        <ele>52.914582</ele>
        <time>2024-09-15T09:07:57.000Z</time>
      </trkpt>
      <trkpt lat="42.094019" lon="-73.939952">
        <ele>52.715583</ele>
        <time>2024-09-15T09:07:58.000Z</time>
      </trkpt>
      <trkpt lat="42.093252" lon="-73.939742">
        <ele>51.353517</ele>
        <time>2024-09-15T09:08:07.000Z</time>
      </trkpt>
      <trkpt lat="42.092866" lon="-73.939693">
        <ele>50.434096</ele>
        <time>2024-09-15T09:08:11.000Z</time>
      </trkpt>
      <trkpt lat="42.091889" lon="-73.9396">
        <ele>48.13625</ele>
        <time>2024-09-15T09:08:22.000Z</time>
      </trkpt>
      <trkpt lat="42.091439" lon="-73.939637">
        <ele>47.157744</ele>
        <time>2024-09-15T09:08:27.000Z</time>
      </trkpt>
      <trkpt lat="42.091001" lon="-73.939715">
        <ele>46.247787</ele>
        <time>2024-09-15T09:08:32.000Z</time>
      </trkpt>
      <trkpt lat="42.090659" lon="-73.939798">
        <ele>45.536651</ele>
        <time>2024-09-15T09:08:36.000Z</time>
      </trkpt>
      <trkpt lat="42.090375" lon="-73.939958">
        <ele>44.893424</ele>
        <time>2024-09-15T09:08:39.000Z</time>
      </trkpt>
      <trkpt lat="42.090035" lon="-73.940279">
        <ele>44.048875</ele>
        <time>2024-09-15T09:08:44.000Z</time>
      </trkpt>
      <trkpt lat="42.089708" lon="-73.940657">
        <ele>43.673397</ele>
        <time>2024-09-15T09:08:49.000Z</time>
      </trkpt>
      <trkpt lat="42.089401" lon="-73.940971">
        <ele>43.354364</ele>
        <time>2024-09-15T09:08:53.000Z</time>
      </trkpt>
      <trkpt lat="42.089142" lon="-73.941216">
        <ele>43.093141</ele>
        <time>2024-09-15T09:08:57.000Z</time>
      </trkpt>
      <trkpt lat="42.088723" lon="-73.941468">
        <ele>42.695141</ele>
        <time>2024-09-15T09:09:02.000Z</time>
      </trkpt>
      <trkpt lat="42.088276" lon="-73.941633">
        <ele>42.301834</ele>
        <time>2024-09-15T09:09:07.000Z</time>
      </trkpt>
      <trkpt lat="42.087405" lon="-73.941713">
        <ele>41.554936</ele>
        <time>2024-09-15T09:09:17.000Z</time>
      </trkpt>
      <trkpt lat="42.086867" lon="-73.941815">
        <ele>41.099938</ele>
        <time>2024-09-15T09:09:23.000Z</time>
      </trkpt>
      <trkpt lat="42.085494" lon="-73.942349">
        <ele>41.661101</ele>
        <time>2024-09-15T09:09:39.000Z</time>
      </trkpt>
      <trkpt lat="42.085011" lon="-73.942661">
        <ele>42.022376</ele>
        <time>2024-09-15T09:09:45.000Z</time>
      </trkpt>
      <trkpt lat="42.08442" lon="-73.943183">
        <ele>44.515677</ele>
        <time>2024-09-15T09:09:53.000Z</time>
      </trkpt>
      <trkpt lat="42.084273" lon="-73.943308">
        <ele>45.126447</ele>
        <time>2024-09-15T09:09:55.000Z</time>
      </trkpt>
      <trkpt lat="42.084201" lon="-73.94339">
        <ele>45.498079</ele>
        <time>2024-09-15T09:09:56.000Z</time>
      </trkpt>
      <trkpt lat="42.08382" lon="-73.943627">
        <ele>46.959445</ele>
        <time>2024-09-15T09:10:01.000Z</time>
      </trkpt>
      <trkpt lat="42.083558" lon="-73.943736">
        <ele>47.963563</ele>
        <time>2024-09-15T09:10:04.000Z</time>
      </trkpt>
      <trkpt lat="42.083025" lon="-73.943832">
        <ele>48.934549</ele>
        <time>2024-09-15T09:10:10.000Z</time>
      </trkpt>
      <trkpt lat="42.082455" lon="-73.943933">
        <ele>49.779819</ele>
        <time>2024-09-15T09:10:16.000Z</time>
      </trkpt>
      <trkpt lat="42.082245" lon="-73.943961">
        <ele>50.080834</ele>
        <time>2024-09-15T09:10:18.000Z</time>
      </trkpt>
      <trkpt lat="42.081882" lon="-73.944029">
        <ele>50.60959</ele>
        <time>2024-09-15T09:10:22.000Z</time>
      </trkpt>
      <trkpt lat="42.081536" lon="-73.944089">
        <ele>50.619441</ele>
        <time>2024-09-15T09:10:26.000Z</time>
      </trkpt>
      <trkpt lat="42.080733" lon="-73.944128">
        <ele>48.802201</ele>
        <time>2024-09-15T09:10:35.000Z</time>
      </trkpt>
      <trkpt lat="42.080547" lon="-73.944083">
        <ele>48.364826</ele>
        <time>2024-09-15T09:10:37.000Z</time>
      </trkpt>
      <trkpt lat="42.080363" lon="-73.94412">
        <ele>47.956634</ele>
        <time>2024-09-15T09:10:39.000Z</time>
      </trkpt>
      <trkpt lat="42.080288" lon="-73.944318">
        <ele>47.592483</ele>
        <time>2024-09-15T09:10:41.000Z</time>
      </trkpt>
      <trkpt lat="42.079963" lon="-73.945811">
        <ele>45.718996</ele>
        <time>2024-09-15T09:10:54.000Z</time>
      </trkpt>
      <trkpt lat="42.079905" lon="-73.946072">
        <ele>45.43909</ele>
        <time>2024-09-15T09:10:56.000Z</time>
      </trkpt>
      <trkpt lat="42.079797" lon="-73.946531">
        <ele>44.960029</ele>
        <time>2024-09-15T09:11:00.000Z</time>
      </trkpt>
      <trkpt lat="42.079703" lon="-73.946877">
        <ele>44.58136</ele>
        <time>2024-09-15T09:11:03.000Z</time>
      </trkpt>
      <trkpt lat="42.079591" lon="-73.947211">
        <ele>44.465961</ele>
        <time>2024-09-15T09:11:06.000Z</time>
      </trkpt>
      <trkpt lat="42.079337" lon="-73.947917">
        <ele>44.726722</ele>
        <time>2024-09-15T09:11:12.000Z</time>
      </trkpt>
      <trkpt lat="42.079017" lon="-73.948838">
        <ele>45.062074</ele>
        <time>2024-09-15T09:11:20.000Z</time>
      </trkpt>
      <trkpt lat="42.078599" lon="-73.95003">
        <ele>45.336592</ele>
        <time>2024-09-15T09:11:31.000Z</time>
      </trkpt>
      <trkpt lat="42.078227" lon="-73.951071">
        <ele>45.507603</ele>
        <time>2024-09-15T09:11:41.000Z</time>
      </trkpt>
      <trkpt lat="42.077786" lon="-73.952413">
        <ele>44.33805</ele>
        <time>2024-09-15T09:11:53.000Z</time>
      </trkpt>
      <trkpt lat="42.077136" lon="-73.95211">
        <ele>43.309051</ele>
        <time>2024-09-15T09:12:01.000Z</time>
      </trkpt>
      <trkpt lat="42.076701" lon="-73.951891">
        <ele>42.102585</ele>
        <time>2024-09-15T09:12:06.000Z</time>
      </trkpt>
      <trkpt lat="42.076292" lon="-73.951696">
        <ele>40.116873</ele>
        <time>2024-09-15T09:12:11.000Z</time>
      </trkpt>
      <trkpt lat="42.076021" lon="-73.951576">
        <ele>38.731627</ele>
        <time>2024-09-15T09:12:14.000Z</time>
      </trkpt>
      <trkpt lat="42.075836" lon="-73.951493">
        <ele>37.892827</ele>
        <time>2024-09-15T09:12:16.000Z</time>
      </trkpt>
      <trkpt lat="42.075681" lon="-73.951436">
        <ele>37.131942</ele>
        <time>2024-09-15T09:12:18.000Z</time>
      </trkpt>
      <trkpt lat="42.075412" lon="-73.951319">
        <ele>35.80005</ele>
        <time>2024-09-15T09:12:21.000Z</time>
      </trkpt>
      <trkpt lat="42.07493" lon="-73.951095">
        <ele>34.24229</ele>
        <time>2024-09-15T09:12:27.000Z</time>
      </trkpt>
      <trkpt lat="42.074367" lon="-73.950815">
        <ele>33.559281</ele>
        <time>2024-09-15T09:12:34.000Z</time>
      </trkpt>
      <trkpt lat="42.074055" lon="-73.950626">
        <ele>33.154632</ele>
        <time>2024-09-15T09:12:38.000Z</time>
      </trkpt>
      <trkpt lat="42.07405" lon="-73.950609">
        <ele>33.152189</ele>
        <time>2024-09-15T09:12:38.000Z</time>
      </trkpt>
      <trkpt lat="42.074056" lon="-73.950619">
        <ele>33.14975</ele>
        <time>2024-09-15T09:12:38.000Z</time>
      </trkpt>
      <trkpt lat="42.074365" lon="-73.950804">
        <ele>32.745092</ele>
        <time>2024-09-15T09:12:42.000Z</time>
      </trkpt>
      <trkpt lat="42.074929" lon="-73.951097">
        <ele>33.967765</ele>
        <time>2024-09-15T09:12:49.000Z</time>
      </trkpt>
      <trkpt lat="42.075414" lon="-73.951319">
        <ele>36.283325</ele>
        <time>2024-09-15T09:12:55.000Z</time>
      </trkpt>
      <trkpt lat="42.075685" lon="-73.951441">
        <ele>37.592063</ele>
        <time>2024-09-15T09:12:58.000Z</time>
      </trkpt>
      <trkpt lat="42.075851" lon="-73.951505">
        <ele>38.339737</ele>
        <time>2024-09-15T09:13:00.000Z</time>
      </trkpt>
      <trkpt lat="42.076021" lon="-73.951563">
        <ele>39.163957</ele>
        <time>2024-09-15T09:13:02.000Z</time>
      </trkpt>
      <trkpt lat="42.076304" lon="-73.951703">
        <ele>40.525152</ele>
        <time>2024-09-15T09:13:05.000Z</time>
      </trkpt>
      <trkpt lat="42.076697" lon="-73.951897">
        <ele>41.677301</ele>
        <time>2024-09-15T09:13:10.000Z</time>
      </trkpt>
      <trkpt lat="42.07714" lon="-73.952099">
        <ele>42.88919</ele>
        <time>2024-09-15T09:13:15.000Z</time>
      </trkpt>
      <trkpt lat="42.077787" lon="-73.952418">
        <ele>44.639113</ele>
        <time>2024-09-15T09:13:23.000Z</time>
      </trkpt>
      <trkpt lat="42.078236" lon="-73.951079">
        <ele>45.345863</ele>
        <time>2024-09-15T09:13:35.000Z</time>
      </trkpt>
      <trkpt lat="42.078599" lon="-73.950045">
        <ele>45.420373</ele>
        <time>2024-09-15T09:13:44.000Z</time>
      </trkpt>
      <trkpt lat="42.079016" lon="-73.948844">
        <ele>44.990026</ele>
        <time>2024-09-15T09:13:55.000Z</time>
      </trkpt>
      <trkpt lat="42.079342" lon="-73.947919">
        <ele>44.61411</ele>
        <time>2024-09-15T09:14:03.000Z</time>
      </trkpt>
      <trkpt lat="42.079586" lon="-73.947207">
        <ele>44.793407</ele>
        <time>2024-09-15T09:14:09.000Z</time>
      </trkpt>
      <trkpt lat="42.079703" lon="-73.946876">
        <ele>44.953174</ele>
        <time>2024-09-15T09:14:12.000Z</time>
      </trkpt>
      <trkpt lat="42.079805" lon="-73.946524">
        <ele>45.121409</ele>
        <time>2024-09-15T09:14:15.000Z</time>
      </trkpt>
      <trkpt lat="42.079898" lon="-73.946075">
        <ele>45.334241</ele>
        <time>2024-09-15T09:14:19.000Z</time>
      </trkpt>
      <trkpt lat="42.079958" lon="-73.945805">
        <ele>45.458597</ele>
        <time>2024-09-15T09:14:21.000Z</time>
      </trkpt>
      <trkpt lat="42.08028" lon="-73.944307">
        <ele>47.768327</ele>
        <time>2024-09-15T09:14:34.000Z</time>
      </trkpt>
      <trkpt lat="42.080366" lon="-73.944119">
        <ele>48.156337</ele>
        <time>2024-09-15T09:14:36.000Z</time>
      </trkpt>
      <trkpt lat="42.080543" lon="-73.944084">
        <ele>48.591304</ele>
        <time>2024-09-15T09:14:38.000Z</time>
      </trkpt>
      <trkpt lat="42.080743" lon="-73.94412">
        <ele>49.057353</ele>
        <time>2024-09-15T09:14:40.000Z</time>
      </trkpt>
      <trkpt lat="42.081534" lon="-73.944088">
        <ele>49.97436</ele>
        <time>2024-09-15T09:14:49.000Z</time>
      </trkpt>
      <trkpt lat="42.081882" lon="-73.944042">
        <ele>49.988753</ele>
        <time>2024-09-15T09:14:53.000Z</time>
      </trkpt>
      <trkpt lat="42.082237" lon="-73.943958">
        <ele>50.003851</ele>
        <time>2024-09-15T09:14:57.000Z</time>
      </trkpt>
      <trkpt lat="42.082458" lon="-73.943925">
        <ele>50.012453</ele>
        <time>2024-09-15T09:14:59.000Z</time>
      </trkpt>
      <trkpt lat="42.083027" lon="-73.943818">
        <ele>49.546155</ele>
        <time>2024-09-15T09:15:05.000Z</time>
      </trkpt>
      <trkpt lat="42.083552" lon="-73.943721">
        <ele>47.690726</ele>
        <time>2024-09-15T09:15:11.000Z</time>
      </trkpt>
      <trkpt lat="42.083828" lon="-73.943627">
        <ele>46.693724</ele>
        <time>2024-09-15T09:15:14.000Z</time>
      </trkpt>
      <trkpt lat="42.084184" lon="-73.943375">
        <ele>45.242711</ele>
        <time>2024-09-15T09:15:18.000Z</time>
      </trkpt>
      <trkpt lat="42.08429" lon="-73.943307">
        <ele>44.873703</ele>
        <time>2024-09-15T09:15:19.000Z</time>
      </trkpt>
      <trkpt lat="42.084425" lon="-73.943186">
        <ele>44.267259</ele>
        <time>2024-09-15T09:15:21.000Z</time>
      </trkpt>
      <trkpt lat="42.085006" lon="-73.942662">
        <ele>42.775116</ele>
        <time>2024-09-15T09:15:29.000Z</time>
      </trkpt>
      <trkpt lat="42.085489" lon="-73.942348">
        <ele>41.880561</ele>
        <time>2024-09-15T09:15:35.000Z</time>
      </trkpt>
      <trkpt lat="42.086875" lon="-73.941813">
        <ele>41.196054</ele>
        <time>2024-09-15T09:15:51.000Z</time>
      </trkpt>
      <trkpt lat="42.087396" lon="-73.941724">
        <ele>41.614904</ele>
        <time>2024-09-15T09:15:57.000Z</time>
      </trkpt>
      <trkpt lat="42.088274" lon="-73.941632">
        <ele>42.292027</ele>
        <time>2024-09-15T09:16:07.000Z</time>
      </trkpt>
      <trkpt lat="42.08871" lon="-73.941456">
        <ele>42.64096</ele>
        <time>2024-09-15T09:16:12.000Z</time>
      </trkpt>
      <trkpt lat="42.08915" lon="-73.94121">
        <ele>42.996514</ele>
        <time>2024-09-15T09:16:17.000Z</time>
      </trkpt>
      <trkpt lat="42.089397" lon="-73.940985">
        <ele>43.229874</ele>
        <time>2024-09-15T09:16:20.000Z</time>
      </trkpt>
      <trkpt lat="42.089693" lon="-73.940664">
        <ele>43.636111</ele>
        <time>2024-09-15T09:16:24.000Z</time>
      </trkpt>
      <trkpt lat="42.090026" lon="-73.940278">
        <ele>44.352439</ele>
        <time>2024-09-15T09:16:29.000Z</time>
      </trkpt>
      <trkpt lat="42.090369" lon="-73.939957">
        <ele>45.02923</ele>
        <time>2024-09-15T09:16:34.000Z</time>
      </trkpt>
      <trkpt lat="42.090651" lon="-73.939793">
        <ele>45.544701</ele>
        <time>2024-09-15T09:16:37.000Z</time>
      </trkpt>
      <trkpt lat="42.090993" lon="-73.939711">
        <ele>46.114579</ele>
        <time>2024-09-15T09:16:41.000Z</time>
      </trkpt>
      <trkpt lat="42.091432" lon="-73.939637">
        <ele>47.065521</ele>
        <time>2024-09-15T09:16:46.000Z</time>
      </trkpt>
      <trkpt lat="42.091878" lon="-73.9396">
        <ele>48.163663</ele>
        <time>2024-09-15T09:16:51.000Z</time>
      </trkpt>
      <trkpt lat="42.092852" lon="-73.939689">
        <ele>50.542427</ele>
        <time>2024-09-15T09:17:02.000Z</time>
      </trkpt>
      <trkpt lat="42.093252" lon="-73.93974">
        <ele>51.302462</ele>
        <time>2024-09-15T09:17:06.000Z</time>
      </trkpt>
      <trkpt lat="42.094008" lon="-73.939954">
        <ele>52.702392</ele>
        <time>2024-09-15T09:17:15.000Z</time>
      </trkpt>
      <trkpt lat="42.094148" lon="-73.939975">
        <ele>52.948882</ele>
        <time>2024-09-15T09:17:17.000Z</time>
      </trkpt>
      <trkpt lat="42.094442" lon="-73.939974">
        <ele>53.469922</ele>
        <time>2024-09-15T09:17:20.000Z</time>
      </trkpt>
      <trkpt lat="42.095025" lon="-73.939804">
        <ele>54.105312</ele>
        <time>2024-09-15T09:17:27.000Z</time>
      </trkpt>
      <trkpt lat="42.095358" lon="-73.939686">
        <ele>54.225013</ele>
        <time>2024-09-15T09:17:31.000Z</time>
      </trkpt>
      <trkpt lat="42.095958" lon="-73.939417">
        <ele>54.442808</ele>
        <time>2024-09-15T09:17:38.000Z</time>
      </trkpt>
      <trkpt lat="42.096071" lon="-73.93938">
        <ele>54.477716</ele>
        <time>2024-09-15T09:17:39.000Z</time>
      </trkpt>
      <trkpt lat="42.096436" lon="-73.939241">
        <ele>54.611075</ele>
        <time>2024-09-15T09:17:43.000Z</time>
      </trkpt>
      <trkpt lat="42.096666" lon="-73.939175">
        <ele>54.175879</ele>
        <time>2024-09-15T09:17:46.000Z</time>
      </trkpt>
      <trkpt lat="42.097264" lon="-73.939064">
        <ele>52.979077</ele>
        <time>2024-09-15T09:17:53.000Z</time>
      </trkpt>
      <trkpt lat="42.097504" lon="-73.939016">
        <ele>52.485265</ele>
        <time>2024-09-15T09:17:56.000Z</time>
      </trkpt>
      <trkpt lat="42.098286" lon="-73.938895">
        <ele>50.849275</ele>
        <time>2024-09-15T09:18:05.000Z</time>
      </trkpt>
      <trkpt lat="42.099356" lon="-73.938812">
        <ele>47.977868</ele>
        <time>2024-09-15T09:18:17.000Z</time>
      </trkpt>
      <trkpt lat="42.09964" lon="-73.938752">
        <ele>47.206211</ele>
        <time>2024-09-15T09:18:20.000Z</time>
      </trkpt>
      <trkpt lat="42.100106" lon="-73.938584">
        <ele>46.03831</ele>
        <time>2024-09-15T09:18:25.000Z</time>
      </trkpt>
      <trkpt lat="42.101244" lon="-73.938112">
        <ele>44.705652</ele>
        <time>2024-09-15T09:18:38.000Z</time>
      </trkpt>
      <trkpt lat="42.101807" lon="-73.937847">
        <ele>44.146745</ele>
        <time>2024-09-15T09:18:45.000Z</time>
      </trkpt>
      <trkpt lat="42.102296" lon="-73.93763">
        <ele>44.209526</ele>
        <time>2024-09-15T09:18:51.000Z</time>
      </trkpt>
      <trkpt lat="42.102691" lon="-73.937534">
        <ele>44.257148</ele>
        <time>2024-09-15T09:18:55.000Z</time>
      </trkpt>
      <trkpt lat="42.10302" lon="-73.937502">
        <ele>44.29765</ele>
        <time>2024-09-15T09:18:59.000Z</time>
      </trkpt>
      <trkpt lat="42.103393" lon="-73.937542">
        <ele>44.343061</ele>
        <time>2024-09-15T09:19:03.000Z</time>
      </trkpt>
      <trkpt lat="42.10399" lon="-73.937701">
        <ele>44.146157</ele>
        <time>2024-09-15T09:19:10.000Z</time>
      </trkpt>
      <trkpt lat="42.105059" lon="-73.937909">
        <ele>43.711926</ele>
        <time>2024-09-15T09:19:22.000Z</time>
      </trkpt>
      <trkpt lat="42.105288" lon="-73.937936">
        <ele>43.633875</ele>
        <time>2024-09-15T09:19:25.000Z</time>
      </trkpt>
      <trkpt lat="42.105784" lon="-73.937904">
        <ele>43.705034</ele>
        <time>2024-09-15T09:19:31.000Z</time>
      </trkpt>
      <trkpt lat="42.105943" lon="-73.937903">
        <ele>43.730203</ele>
        <time>2024-09-15T09:19:33.000Z</time>
      </trkpt>
      <trkpt lat="42.107395" lon="-73.937798">
        <ele>43.870254</ele>
        <time>2024-09-15T09:19:49.000Z</time>
      </trkpt>
      <trkpt lat="42.108051" lon="-73.937708">
        <ele>43.823703</ele>
        <time>2024-09-15T09:19:56.000Z</time>
      </trkpt>
      <trkpt lat="42.108436" lon="-73.937604">
        <ele>43.79471</ele>
        <time>2024-09-15T09:20:00.000Z</time>
      </trkpt>
      <trkpt lat="42.108807" lon="-73.93743">
        <ele>43.767082</ele>
        <time>2024-09-15T09:20:04.000Z</time>
      </trkpt>
      <trkpt lat="42.109094" lon="-73.93728">
        <ele>43.770205</ele>
        <time>2024-09-15T09:20:07.000Z</time>
      </trkpt>
      <trkpt lat="42.109409" lon="-73.937074">
        <ele>43.775371</ele>
        <time>2024-09-15T09:20:11.000Z</time>
      </trkpt>
      <trkpt lat="42.111093" lon="-73.93607">
        <ele>44.517014</ele>
        <time>2024-09-15T09:20:31.000Z</time>
      </trkpt>
      <trkpt lat="42.111382" lon="-73.935953">
        <ele>44.830874</ele>
        <time>2024-09-15T09:20:34.000Z</time>
      </trkpt>
      <trkpt lat="42.111603" lon="-73.935926">
        <ele>45.057505</ele>
        <time>2024-09-15T09:20:36.000Z</time>
      </trkpt>
      <trkpt lat="42.111785" lon="-73.935932">
        <ele>45.25632</ele>
        <time>2024-09-15T09:20:38.000Z</time>
      </trkpt>
      <trkpt lat="42.112525" lon="-73.936186">
        <ele>46.020759</ele>
        <time>2024-09-15T09:20:46.000Z</time>
      </trkpt>
      <trkpt lat="42.112714" lon="-73.936246">
        <ele>46.200119</ele>
        <time>2024-09-15T09:20:48.000Z</time>
      </trkpt>
      <trkpt lat="42.113084" lon="-73.936251">
        <ele>46.560029</ele>
        <time>2024-09-15T09:20:52.000Z</time>
      </trkpt>
      <trkpt lat="42.113907" lon="-73.936165">
        <ele>47.333638</ele>
        <time>2024-09-15T09:21:01.000Z</time>
      </trkpt>
      <trkpt lat="42.114746" lon="-73.935984">
        <ele>47.329571</ele>
        <time>2024-09-15T09:21:10.000Z</time>
      </trkpt>
      <trkpt lat="42.116201" lon="-73.935636">
        <ele>47.383455</ele>
        <time>2024-09-15T09:21:26.000Z</time>
      </trkpt>
      <trkpt lat="42.116476" lon="-73.935523">
        <ele>47.454916</ele>
        <time>2024-09-15T09:21:29.000Z</time>
      </trkpt>
      <trkpt lat="42.116642" lon="-73.935427">
        <ele>47.502779</ele>
        <time>2024-09-15T09:21:31.000Z</time>
      </trkpt>
      <trkpt lat="42.116972" lon="-73.935177">
        <ele>47.596292</ele>
        <time>2024-09-15T09:21:35.000Z</time>
      </trkpt>
      <trkpt lat="42.117214" lon="-73.934955">
        <ele>47.668411</ele>
        <time>2024-09-15T09:21:38.000Z</time>
      </trkpt>
      <trkpt lat="42.117275" lon="-73.935249">
        <ele>47.735909</ele>
        <time>2024-09-15T09:21:41.000Z</time>
      </trkpt>
      <trkpt lat="42.117407" lon="-73.936783">
        <ele>48.331936</ele>
        <time>2024-09-15T09:21:54.000Z</time>
      </trkpt>
      <trkpt lat="42.117447" lon="-73.937157">
        <ele>48.478577</ele>
        <time>2024-09-15T09:21:57.000Z</time>
      </trkpt>
      <trkpt lat="42.117539" lon="-73.937684">
        <ele>48.578611</ele>
        <time>2024-09-15T09:22:01.000Z</time>
      </trkpt>
      <trkpt lat="42.117652" lon="-73.937985">
        <ele>48.259641</ele>
        <time>2024-09-15T09:22:04.000Z</time>
      </trkpt>
      <trkpt lat="42.118748" lon="-73.940041">
        <ele>46.056456</ele>
        <time>2024-09-15T09:22:25.000Z</time>
      </trkpt>
      <trkpt lat="42.119149" lon="-73.940921">
        <ele>45.330537</ele>
        <time>2024-09-15T09:22:34.000Z</time>
      </trkpt>
      <trkpt lat="42.1205" lon="-73.944351">
        <ele>44.637793</ele>
        <time>2024-09-15T09:23:06.000Z</time>
      </trkpt>
      <trkpt lat="42.120601" lon="-73.944679">
        <ele>44.716469</ele>
        <time>2024-09-15T09:23:09.000Z</time>
      </trkpt>
      <trkpt lat="42.120631" lon="-73.944912">
        <ele>44.769605</ele>
        <time>2024-09-15T09:23:11.000Z</time>
      </trkpt>
      <trkpt lat="42.120674" lon="-73.945123">
        <ele>44.816</ele>
        <time>2024-09-15T09:23:13.000Z</time>
      </trkpt>
      <trkpt lat="42.12073" lon="-73.945274">
        <ele>44.85218</ele>
        <time>2024-09-15T09:23:14.000Z</time>
      </trkpt>
      <trkpt lat="42.120953" lon="-73.94558">
        <ele>44.944871</ele>
        <time>2024-09-15T09:23:18.000Z</time>
      </trkpt>
      <trkpt lat="42.121116" lon="-73.945944">
        <ele>45.04334</ele>
        <time>2024-09-15T09:23:22.000Z</time>
      </trkpt>
      <trkpt lat="42.121112" lon="-73.94597">
        <ele>45.054288</ele>
        <time>2024-09-15T09:23:22.000Z</time>
      </trkpt>
      <trkpt lat="42.121365" lon="-73.946544">
        <ele>45.344166</ele>
        <time>2024-09-15T09:23:28.000Z</time>
      </trkpt>
      <trkpt lat="42.121954" lon="-73.947878">
        <ele>46.041369</ele>
        <time>2024-09-15T09:23:41.000Z</time>
      </trkpt>
      <trkpt lat="42.122305" lon="-73.948629">
        <ele>46.759168</ele>
        <time>2024-09-15T09:23:48.000Z</time>
      </trkpt>
      <trkpt lat="42.122341" lon="-73.948681">
        <ele>46.813538</ele>
        <time>2024-09-15T09:23:49.000Z</time>
      </trkpt>
      <trkpt lat="42.122438" lon="-73.94819">
        <ele>47.262999</ele>
        <time>2024-09-15T09:23:53.000Z</time>
      </trkpt>
      <trkpt lat="42.122559" lon="-73.947848">
        <ele>47.611094</ele>
        <time>2024-09-15T09:23:56.000Z</time>
      </trkpt>
      <trkpt lat="42.122788" lon="-73.947546">
        <ele>47.997092</ele>
        <time>2024-09-15T09:24:00.000Z</time>
      </trkpt>
      <trkpt lat="42.123427" lon="-73.946965">
        <ele>48.778711</ele>
        <time>2024-09-15T09:24:09.000Z</time>
      </trkpt>
      <trkpt lat="42.123554" lon="-73.946766">
        <ele>48.942115</ele>
        <time>2024-09-15T09:24:11.000Z</time>
      </trkpt>
      <trkpt lat="42.123594" lon="-73.946678">
        <ele>49.014525</ele>
        <time>2024-09-15T09:24:12.000Z</time>
      </trkpt>
      <trkpt lat="42.12364" lon="-73.946475">
        <ele>49.151218</ele>
        <time>2024-09-15T09:24:14.000Z</time>
      </trkpt>
      <trkpt lat="42.123811" lon="-73.946264">
        <ele>49.355626</ele>
        <time>2024-09-15T09:24:17.000Z</time>
      </trkpt>
      <trkpt lat="42.124232" lon="-73.94562">
        <ele>49.904713</ele>
        <time>2024-09-15T09:24:24.000Z</time>
      </trkpt>
      <trkpt lat="42.124493" lon="-73.945288">
        <ele>49.869571</ele>
        <time>2024-09-15T09:24:28.000Z</time>
      </trkpt>
      <trkpt lat="42.1253" lon="-73.944359">
        <ele>49.767275</ele>
        <time>2024-09-15T09:24:40.000Z</time>
      </trkpt>
      <trkpt lat="42.125531" lon="-73.944126">
        <ele>49.739708</ele>
        <time>2024-09-15T09:24:43.000Z</time>
      </trkpt>
      <trkpt lat="42.125605" lon="-73.944038">
        <ele>49.723595</ele>
        <time>2024-09-15T09:24:44.000Z</time>
      </trkpt>
      <trkpt lat="42.125761" lon="-73.943893">
        <ele>49.676183</ele>
        <time>2024-09-15T09:24:46.000Z</time>
      </trkpt>
      <trkpt lat="42.12613" lon="-73.943564">
        <ele>49.556528</ele>
        <time>2024-09-15T09:24:51.000Z</time>
      </trkpt>
      <trkpt lat="42.12673" lon="-73.943004">
        <ele>49.35701</ele>
        <time>2024-09-15T09:24:59.000Z</time>
      </trkpt>
      <trkpt lat="42.127146" lon="-73.942737">
        <ele>49.210363</ele>
        <time>2024-09-15T09:25:04.000Z</time>
      </trkpt>
      <trkpt lat="42.127579" lon="-73.942526">
        <ele>48.894412</ele>
        <time>2024-09-15T09:25:09.000Z</time>
      </trkpt>
      <trkpt lat="42.127891" lon="-73.942398">
        <ele>48.659602</ele>
        <time>2024-09-15T09:25:13.000Z</time>
      </trkpt>
      <trkpt lat="42.128661" lon="-73.942311">
        <ele>48.11738</ele>
        <time>2024-09-15T09:25:22.000Z</time>
      </trkpt>
      <trkpt lat="42.129522" lon="-73.942095">
        <ele>48.199327</ele>
        <time>2024-09-15T09:25:32.000Z</time>
      </trkpt>
      <trkpt lat="42.129712" lon="-73.941969">
        <ele>48.266974</ele>
        <time>2024-09-15T09:25:34.000Z</time>
      </trkpt>
      <trkpt lat="42.129826" lon="-73.941841">
        <ele>48.311578</ele>
        <time>2024-09-15T09:25:36.000Z</time>
      </trkpt>
      <trkpt lat="42.129929" lon="-73.9415">
        <ele>48.396687</ele>
        <time>2024-09-15T09:25:39.000Z</time>
      </trkpt>
      <trkpt lat="42.130193" lon="-73.940056">
        <ele>49.204182</ele>
        <time>2024-09-15T09:25:51.000Z</time>
      </trkpt>
      <trkpt lat="42.130202" lon="-73.939915">
        <ele>49.315428</ele>
        <time>2024-09-15T09:25:52.000Z</time>
      </trkpt>
      <trkpt lat="42.13035" lon="-73.939167">
        <ele>49.920029</ele>
        <time>2024-09-15T09:25:58.000Z</time>
      </trkpt>
      <trkpt lat="42.130376" lon="-73.939032">
        <ele>50.035798</ele>
        <time>2024-09-15T09:25:59.000Z</time>
      </trkpt>
      <trkpt lat="42.130603" lon="-73.93915">
        <ele>50.283938</ele>
        <time>2024-09-15T09:26:02.000Z</time>
      </trkpt>
      <trkpt lat="42.131019" lon="-73.939214">
        <ele>50.424838</ele>
        <time>2024-09-15T09:26:07.000Z</time>
      </trkpt>
      <trkpt lat="42.131645" lon="-73.939315">
        <ele>50.3826</ele>
        <time>2024-09-15T09:26:14.000Z</time>
      </trkpt>
      <trkpt lat="42.131768" lon="-73.939396">
        <ele>50.373604</ele>
        <time>2024-09-15T09:26:16.000Z</time>
      </trkpt>
      <trkpt lat="42.13201" lon="-73.939585">
        <ele>50.355224</ele>
        <time>2024-09-15T09:26:19.000Z</time>
      </trkpt>
      <trkpt lat="42.132127" lon="-73.939687">
        <ele>50.346125</ele>
        <time>2024-09-15T09:26:21.000Z</time>
      </trkpt>
      <trkpt lat="42.132339" lon="-73.93994">
        <ele>50.3281</ele>
        <time>2024-09-15T09:26:24.000Z</time>
      </trkpt>
      <trkpt lat="42.1333" lon="-73.941702">
        <ele>49.67646</ele>
        <time>2024-09-15T09:26:42.000Z</time>
      </trkpt>
      <trkpt lat="42.133458" lon="-73.941951">
        <ele>49.573841</ele>
        <time>2024-09-15T09:26:45.000Z</time>
      </trkpt>
      <trkpt lat="42.13377" lon="-73.942249">
        <ele>49.414694</ele>
        <time>2024-09-15T09:26:49.000Z</time>
      </trkpt>
      <trkpt lat="42.133803" lon="-73.942323">
        <ele>49.380758</ele>
        <time>2024-09-15T09:26:50.000Z</time>
      </trkpt>
      <trkpt lat="42.133896" lon="-73.942561">
        <ele>49.299878</ele>
        <time>2024-09-15T09:26:52.000Z</time>
      </trkpt>
      <trkpt lat="42.13411" lon="-73.943398">
        <ele>49.012765</ele>
        <time>2024-09-15T09:26:59.000Z</time>
      </trkpt>
      <trkpt lat="42.134178" lon="-73.943535">
        <ele>48.965194</ele>
        <time>2024-09-15T09:27:00.000Z</time>
      </trkpt>
      <trkpt lat="42.134335" lon="-73.94373">
        <ele>48.869751</ele>
        <time>2024-09-15T09:27:02.000Z</time>
      </trkpt>
      <trkpt lat="42.134948" lon="-73.944352">
        <ele>48.721091</ele>
        <time>2024-09-15T09:27:11.000Z</time>
      </trkpt>
      <trkpt lat="42.135507" lon="-73.944975">
        <ele>48.624084</ele>
        <time>2024-09-15T09:27:19.000Z</time>
      </trkpt>
      <trkpt lat="42.135685" lon="-73.945143">
        <ele>48.595505</ele>
        <time>2024-09-15T09:27:21.000Z</time>
      </trkpt>
      <trkpt lat="42.135874" lon="-73.945352">
        <ele>48.563989</ele>
        <time>2024-09-15T09:27:24.000Z</time>
      </trkpt>
      <trkpt lat="42.136057" lon="-73.945494">
        <ele>48.643496</ele>
        <time>2024-09-15T09:27:26.000Z</time>
      </trkpt>
      <trkpt lat="42.136192" lon="-73.945562">
        <ele>48.696881</ele>
        <time>2024-09-15T09:27:28.000Z</time>
      </trkpt>
      <trkpt lat="42.136466" lon="-73.945548">
        <ele>48.800583</ele>
        <time>2024-09-15T09:27:31.000Z</time>
      </trkpt>
      <trkpt lat="42.136996" lon="-73.945342">
        <ele>49.009302</ele>
        <time>2024-09-15T09:27:37.000Z</time>
      </trkpt>
      <trkpt lat="42.137236" lon="-73.945347">
        <ele>49.097667</ele>
        <time>2024-09-15T09:27:40.000Z</time>
      </trkpt>
      <trkpt lat="42.137346" lon="-73.945412">
        <ele>49.143931</ele>
        <time>2024-09-15T09:27:41.000Z</time>
      </trkpt>
      <trkpt lat="42.137445" lon="-73.945545">
        <ele>49.194952</ele>
        <time>2024-09-15T09:27:43.000Z</time>
      </trkpt>
      <trkpt lat="42.137569" lon="-73.945773">
        <ele>49.197008</ele>
        <time>2024-09-15T09:27:45.000Z</time>
      </trkpt>
      <trkpt lat="42.137844" lon="-73.946557">
        <ele>48.959318</ele>
        <time>2024-09-15T09:27:52.000Z</time>
      </trkpt>
      <trkpt lat="42.138003" lon="-73.946938">
        <ele>48.842028</ele>
        <time>2024-09-15T09:27:56.000Z</time>
      </trkpt>
      <trkpt lat="42.138911" lon="-73.949002">
        <ele>48.618136</ele>
        <time>2024-09-15T09:28:16.000Z</time>
      </trkpt>
      <trkpt lat="42.139222" lon="-73.949717">
        <ele>48.645623</ele>
        <time>2024-09-15T09:28:23.000Z</time>
      </trkpt>
      <trkpt lat="42.140198" lon="-73.951936">
        <ele>50.560365</ele>
        <time>2024-09-15T09:28:44.000Z</time>
      </trkpt>
      <trkpt lat="42.140212" lon="-73.95195">
        <ele>50.566752</ele>
        <time>2024-09-15T09:28:44.000Z</time>
      </trkpt>
      <trkpt lat="42.140475" lon="-73.952374">
        <ele>51.30601</ele>
        <time>2024-09-15T09:28:49.000Z</time>
      </trkpt>
      <trkpt lat="42.141342" lon="-73.953571">
        <ele>53.512322</ele>
        <time>2024-09-15T09:29:03.000Z</time>
      </trkpt>
      <trkpt lat="42.14139" lon="-73.953667">
        <ele>53.673333</ele>
        <time>2024-09-15T09:29:04.000Z</time>
      </trkpt>
      <trkpt lat="42.14129" lon="-73.953687">
        <ele>53.903353</ele>
        <time>2024-09-15T09:29:05.000Z</time>
      </trkpt>
      <trkpt lat="42.140164" lon="-73.954055">
        <ele>57.086197</ele>
        <time>2024-09-15T09:29:18.000Z</time>
      </trkpt>
      <trkpt lat="42.139865" lon="-73.954229">
        <ele>57.970045</ele>
        <time>2024-09-15T09:29:22.000Z</time>
      </trkpt>
      <trkpt lat="42.139404" lon="-73.954619">
        <ele>59.212073</ele>
        <time>2024-09-15T09:29:28.000Z</time>
      </trkpt>
      <trkpt lat="42.138975" lon="-73.954828">
        <ele>60.057455</ele>
        <time>2024-09-15T09:29:33.000Z</time>
      </trkpt>
      <trkpt lat="42.1381" lon="-73.955196">
        <ele>61.791313</ele>
        <time>2024-09-15T09:29:43.000Z</time>
      </trkpt>
      <trkpt lat="42.137151" lon="-73.955439">
        <ele>63.031014</ele>
        <time>2024-09-15T09:29:54.000Z</time>
      </trkpt>
      <trkpt lat="42.1363" lon="-73.95564">
        <ele>64.057541</ele>
        <time>2024-09-15T09:30:04.000Z</time>
      </trkpt>
      <trkpt lat="42.136019" lon="-73.95577">
        <ele>64.329794</ele>
        <time>2024-09-15T09:30:07.000Z</time>
      </trkpt>
      <trkpt lat="42.135592" lon="-73.956016">
        <ele>64.684809</ele>
        <time>2024-09-15T09:30:12.000Z</time>
      </trkpt>
      <trkpt lat="42.135053" lon="-73.956378">
        <ele>65.161342</ele>
        <time>2024-09-15T09:30:19.000Z</time>
      </trkpt>
      <trkpt lat="42.134431" lon="-73.95676">
        <ele>65.705416</ele>
        <time>2024-09-15T09:30:27.000Z</time>
      </trkpt>
      <trkpt lat="42.133862" lon="-73.957036">
        <ele>66.197793</ele>
        <time>2024-09-15T09:30:34.000Z</time>
      </trkpt>
      <trkpt lat="42.133496" lon="-73.957179">
        <ele>66.507008</ele>
        <time>2024-09-15T09:30:38.000Z</time>
      </trkpt>
      <trkpt lat="42.133431" lon="-73.957204">
        <ele>66.565038</ele>
        <time>2024-09-15T09:30:39.000Z</time>
      </trkpt>
      <trkpt lat="42.132851" lon="-73.957298">
        <ele>67.026018</ele>
        <time>2024-09-15T09:30:45.000Z</time>
      </trkpt>
      <trkpt lat="42.132559" lon="-73.957347">
        <ele>67.341663</ele>
        <time>2024-09-15T09:30:48.000Z</time>
      </trkpt>
      <trkpt lat="42.132353" lon="-73.957418">
        <ele>67.570892</ele>
        <time>2024-09-15T09:30:50.000Z</time>
      </trkpt>
      <trkpt lat="42.131739" lon="-73.9577">
        <ele>68.253772</ele>
        <time>2024-09-15T09:30:57.000Z</time>
      </trkpt>
      <trkpt lat="42.13119" lon="-73.95794">
        <ele>68.881633</ele>
        <time>2024-09-15T09:31:03.000Z</time>
      </trkpt>
      <trkpt lat="42.130899" lon="-73.958128">
        <ele>69.09306</ele>
        <time>2024-09-15T09:31:07.000Z</time>
      </trkpt>
      <trkpt lat="42.130729" lon="-73.958293">
        <ele>69.195138</ele>
        <time>2024-09-15T09:31:09.000Z</time>
      </trkpt>
      <trkpt lat="42.130396" lon="-73.958565">
        <ele>69.393213</ele>
        <time>2024-09-15T09:31:13.000Z</time>
      </trkpt>
      <trkpt lat="42.13026" lon="-73.95863">
        <ele>69.461614</ele>
        <time>2024-09-15T09:31:15.000Z</time>
      </trkpt>
      <trkpt lat="42.130059" lon="-73.958683">
        <ele>69.562333</ele>
        <time>2024-09-15T09:31:17.000Z</time>
      </trkpt>
      <trkpt lat="42.129101" lon="-73.958754">
        <ele>69.659989</ele>
        <time>2024-09-15T09:31:28.000Z</time>
      </trkpt>
      <trkpt lat="42.128945" lon="-73.958773">
        <ele>69.554249</ele>
        <time>2024-09-15T09:31:30.000Z</time>
      </trkpt>
      <trkpt lat="42.128704" lon="-73.958792">
        <ele>69.403963</ele>
        <time>2024-09-15T09:31:33.000Z</time>
      </trkpt>
      <trkpt lat="42.128596" lon="-73.958804">
        <ele>69.334933</ele>
        <time>2024-09-15T09:31:34.000Z</time>
      </trkpt>
      <trkpt lat="42.127914" lon="-73.958887">
        <ele>68.896683</ele>
        <time>2024-09-15T09:31:42.000Z</time>
      </trkpt>
      <trkpt lat="42.127698" lon="-73.958942">
        <ele>68.743831</ele>
        <time>2024-09-15T09:31:44.000Z</time>
      </trkpt>
      <trkpt lat="42.12661" lon="-73.959396">
        <ele>69.207637</ele>
        <time>2024-09-15T09:31:57.000Z</time>
      </trkpt>
      <trkpt lat="42.126877" lon="-73.959682">
        <ele>69.367342</ele>
        <time>2024-09-15T09:32:01.000Z</time>
      </trkpt>
      <trkpt lat="42.127027" lon="-73.959803">
        <ele>69.444625</ele>
        <time>2024-09-15T09:32:03.000Z</time>
      </trkpt>
      <trkpt lat="42.127983" lon="-73.960334">
        <ele>69.506198</ele>
        <time>2024-09-15T09:32:14.000Z</time>
      </trkpt>
      <trkpt lat="42.128242" lon="-73.960477">
        <ele>69.499091</ele>
        <time>2024-09-15T09:32:17.000Z</time>
      </trkpt>
      <trkpt lat="42.129052" lon="-73.96087">
        <ele>69.086474</ele>
        <time>2024-09-15T09:32:27.000Z</time>
      </trkpt>
      <trkpt lat="42.129354" lon="-73.960971">
        <ele>68.429288</ele>
        <time>2024-09-15T09:32:30.000Z</time>
      </trkpt>
      <trkpt lat="42.129632" lon="-73.961022">
        <ele>67.857324</ele>
        <time>2024-09-15T09:32:33.000Z</time>
      </trkpt>
      <trkpt lat="42.130191" lon="-73.961074">
        <ele>66.691977</ele>
        <time>2024-09-15T09:32:39.000Z</time>
      </trkpt>
      <trkpt lat="42.130468" lon="-73.961138">
        <ele>66.116872</ele>
        <time>2024-09-15T09:32:42.000Z</time>
      </trkpt>
      <trkpt lat="42.131191" lon="-73.961503">
        <ele>64.153188</ele>
        <time>2024-09-15T09:32:51.000Z</time>
      </trkpt>
      <trkpt lat="42.131719" lon="-73.961679">
        <ele>62.767382</ele>
        <time>2024-09-15T09:32:57.000Z</time>
      </trkpt>
      <trkpt lat="42.132055" lon="-73.96169">
        <ele>61.869603</ele>
        <time>2024-09-15T09:33:01.000Z</time>
      </trkpt>
      <trkpt lat="42.132329" lon="-73.961661">
        <ele>61.159234</ele>
        <time>2024-09-15T09:33:04.000Z</time>
      </trkpt>
      <trkpt lat="42.133173" lon="-73.961391">
        <ele>57.606231</ele>
        <time>2024-09-15T09:33:14.000Z</time>
      </trkpt>
      <trkpt lat="42.133358" lon="-73.961425">
        <ele>56.802558</ele>
        <time>2024-09-15T09:33:16.000Z</time>
      </trkpt>
      <trkpt lat="42.133473" lon="-73.961579">
        <ele>56.144675</ele>
        <time>2024-09-15T09:33:18.000Z</time>
      </trkpt>
      <trkpt lat="42.133533" lon="-73.961879">
        <ele>55.184599</ele>
        <time>2024-09-15T09:33:21.000Z</time>
      </trkpt>
      <trkpt lat="42.133596" lon="-73.963899">
        <ele>48.359362</ele>
        <time>2024-09-15T09:33:38.000Z</time>
      </trkpt>
      <trkpt lat="42.133601" lon="-73.964102">
        <ele>47.618103</ele>
        <time>2024-09-15T09:33:40.000Z</time>
      </trkpt>
      <trkpt lat="42.133688" lon="-73.964519">
        <ele>46.191323</ele>
        <time>2024-09-15T09:33:44.000Z</time>
      </trkpt>
      <trkpt lat="42.133881" lon="-73.965212">
        <ele>44.662455</ele>
        <time>2024-09-15T09:33:50.000Z</time>
      </trkpt>
      <trkpt lat="42.133961" lon="-73.965416">
        <ele>44.436871</ele>
        <time>2024-09-15T09:33:52.000Z</time>
      </trkpt>
      <trkpt lat="42.134129" lon="-73.965563">
        <ele>44.181711</ele>
        <time>2024-09-15T09:33:54.000Z</time>
      </trkpt>
      <trkpt lat="42.13693" lon="-73.966615">
        <ele>43.133904</ele>
        <time>2024-09-15T09:34:26.000Z</time>
      </trkpt>
      <trkpt lat="42.13776" lon="-73.96716">
        <ele>45.111619</ele>
        <time>2024-09-15T09:34:36.000Z</time>
      </trkpt>
      <trkpt lat="42.137856" lon="-73.967225">
        <ele>45.363989</ele>
        <time>2024-09-15T09:34:37.000Z</time>
      </trkpt>
      <trkpt lat="42.137953" lon="-73.967386">
        <ele>45.670904</ele>
        <time>2024-09-15T09:34:39.000Z</time>
      </trkpt>
      <trkpt lat="42.137969" lon="-73.967485">
        <ele>45.839183</ele>
        <time>2024-09-15T09:34:40.000Z</time>
      </trkpt>
      <trkpt lat="42.137984" lon="-73.967567">
        <ele>45.985224</ele>
        <time>2024-09-15T09:34:41.000Z</time>
      </trkpt>
      <trkpt lat="42.137952" lon="-73.967755">
        <ele>46.275951</ele>
        <time>2024-09-15T09:34:43.000Z</time>
      </trkpt>
      <trkpt lat="42.137839" lon="-73.968053">
        <ele>46.812592</ele>
        <time>2024-09-15T09:34:46.000Z</time>
      </trkpt>
      <trkpt lat="42.137286" lon="-73.96944">
        <ele>49.306556</ele>
        <time>2024-09-15T09:34:59.000Z</time>
      </trkpt>
      <trkpt lat="42.137182" lon="-73.969649">
        <ele>49.72361</ele>
        <time>2024-09-15T09:35:01.000Z</time>
      </trkpt>
      <trkpt lat="42.137104" lon="-73.969726">
        <ele>49.912375</ele>
        <time>2024-09-15T09:35:02.000Z</time>
      </trkpt>
      <trkpt lat="42.136954" lon="-73.969851">
        <ele>50.305461</ele>
        <time>2024-09-15T09:35:04.000Z</time>
      </trkpt>
      <trkpt lat="42.136566" lon="-73.970028">
        <ele>51.284638</ele>
        <time>2024-09-15T09:35:09.000Z</time>
      </trkpt>
      <trkpt lat="42.136369" lon="-73.970175">
        <ele>51.963218</ele>
        <time>2024-09-15T09:35:12.000Z</time>
      </trkpt>
      <trkpt lat="42.135761" lon="-73.970806">
        <ele>54.188023</ele>
        <time>2024-09-15T09:35:21.000Z</time>
      </trkpt>
      <trkpt lat="42.135515" lon="-73.971189">
        <ele>55.284898</ele>
        <time>2024-09-15T09:35:25.000Z</time>
      </trkpt>
      <trkpt lat="42.135433" lon="-73.971437">
        <ele>55.900783</ele>
        <time>2024-09-15T09:35:27.000Z</time>
      </trkpt>
      <trkpt lat="42.135373" lon="-73.97175">
        <ele>56.929012</ele>
        <time>2024-09-15T09:35:30.000Z</time>
      </trkpt>
      <trkpt lat="42.135371" lon="-73.972026">
        <ele>57.904299</ele>
        <time>2024-09-15T09:35:32.000Z</time>
      </trkpt>
      <trkpt lat="42.135423" lon="-73.97253">
        <ele>59.810688</ele>
        <time>2024-09-15T09:35:36.000Z</time>
      </trkpt>
      <trkpt lat="42.135437" lon="-73.972984">
        <ele>61.51842</ele>
        <time>2024-09-15T09:35:40.000Z</time>
      </trkpt>
      <trkpt lat="42.135448" lon="-73.973099">
        <ele>61.965779</ele>
        <time>2024-09-15T09:35:41.000Z</time>
      </trkpt>
      <trkpt lat="42.13554" lon="-73.973307">
        <ele>62.888047</ele>
        <time>2024-09-15T09:35:43.000Z</time>
      </trkpt>
      <trkpt lat="42.135901" lon="-73.973722">
        <ele>65.250596</ele>
        <time>2024-09-15T09:35:48.000Z</time>
      </trkpt>
      <trkpt lat="42.136183" lon="-73.97397">
        <ele>67.447741</ele>
        <time>2024-09-15T09:35:52.000Z</time>
      </trkpt>
      <trkpt lat="42.136331" lon="-73.974204">
        <ele>68.849165</ele>
        <time>2024-09-15T09:35:55.000Z</time>
      </trkpt>
      <trkpt lat="42.136374" lon="-73.974304">
        <ele>69.435787</ele>
        <time>2024-09-15T09:35:56.000Z</time>
      </trkpt>
      <trkpt lat="42.136488" lon="-73.975105">
        <ele>73.263359</ele>
        <time>2024-09-15T09:36:03.000Z</time>
      </trkpt>
      <trkpt lat="42.136504" lon="-73.97529">
        <ele>74.157166</ele>
        <time>2024-09-15T09:36:05.000Z</time>
      </trkpt>
      <trkpt lat="42.136548" lon="-73.976366">
        <ele>79.288814</ele>
        <time>2024-09-15T09:36:14.000Z</time>
      </trkpt>
      <trkpt lat="42.136645" lon="-73.97746">
        <ele>84.668794</ele>
        <time>2024-09-15T09:36:23.000Z</time>
      </trkpt>
      <trkpt lat="42.136661" lon="-73.9784">
        <ele>88.779422</ele>
        <time>2024-09-15T09:36:31.000Z</time>
      </trkpt>
      <trkpt lat="42.136555" lon="-73.978975">
        <ele>90.09189</ele>
        <time>2024-09-15T09:36:36.000Z</time>
      </trkpt>
      <trkpt lat="42.13651" lon="-73.979564">
        <ele>91.352868</ele>
        <time>2024-09-15T09:36:41.000Z</time>
      </trkpt>
      <trkpt lat="42.136501" lon="-73.979722">
        <ele>91.726229</ele>
        <time>2024-09-15T09:36:42.000Z</time>
      </trkpt>
      <trkpt lat="42.136586" lon="-73.980431">
        <ele>93.261463</ele>
        <time>2024-09-15T09:36:48.000Z</time>
      </trkpt>
      <trkpt lat="42.136743" lon="-73.980839">
        <ele>93.908853</ele>
        <time>2024-09-15T09:36:52.000Z</time>
      </trkpt>
      <trkpt lat="42.136963" lon="-73.981198">
        <ele>94.259977</ele>
        <time>2024-09-15T09:36:56.000Z</time>
      </trkpt>
      <trkpt lat="42.137336" lon="-73.981702">
        <ele>94.810343</ele>
        <time>2024-09-15T09:37:02.000Z</time>
      </trkpt>
      <trkpt lat="42.137666" lon="-73.982206">
        <ele>95.326577</ele>
        <time>2024-09-15T09:37:08.000Z</time>
      </trkpt>
      <trkpt lat="42.138007" lon="-73.98264">
        <ele>95.881332</ele>
        <time>2024-09-15T09:37:13.000Z</time>
      </trkpt>
      <trkpt lat="42.138071" lon="-73.982773">
        <ele>96.031566</ele>
        <time>2024-09-15T09:37:14.000Z</time>
      </trkpt>
      <trkpt lat="42.138239" lon="-73.983334">
        <ele>96.617227</ele>
        <time>2024-09-15T09:37:19.000Z</time>
      </trkpt>
      <trkpt lat="42.138531" lon="-73.984142">
        <ele>97.490826</ele>
        <time>2024-09-15T09:37:26.000Z</time>
      </trkpt>
      <trkpt lat="42.138614" lon="-73.984284">
        <ele>97.657956</ele>
        <time>2024-09-15T09:37:27.000Z</time>
      </trkpt>
      <trkpt lat="42.138869" lon="-73.984571">
        <ele>98.087552</ele>
        <time>2024-09-15T09:37:31.000Z</time>
      </trkpt>
      <trkpt lat="42.13921" lon="-73.985181">
        <ele>98.808066</ele>
        <time>2024-09-15T09:37:37.000Z</time>
      </trkpt>
      <trkpt lat="42.139335" lon="-73.985326">
        <ele>99.020804</ele>
        <time>2024-09-15T09:37:39.000Z</time>
      </trkpt>
      <trkpt lat="42.139517" lon="-73.985463">
        <ele>99.268667</ele>
        <time>2024-09-15T09:37:41.000Z</time>
      </trkpt>
      <trkpt lat="42.139793" lon="-73.985607">
        <ele>99.637333</ele>
        <time>2024-09-15T09:37:44.000Z</time>
      </trkpt>
      <trkpt lat="42.140226" lon="-73.985691">
        <ele>100.184017</ele>
        <time>2024-09-15T09:37:49.000Z</time>
      </trkpt>
      <trkpt lat="42.140376" lon="-73.985702">
        <ele>100.190541</ele>
        <time>2024-09-15T09:37:51.000Z</time>
      </trkpt>
      <trkpt lat="42.140675" lon="-73.985668">
        <ele>100.204038</ele>
        <time>2024-09-15T09:37:54.000Z</time>
      </trkpt>
      <trkpt lat="42.14081" lon="-73.985688">
        <ele>100.209955</ele>
        <time>2024-09-15T09:37:56.000Z</time>
      </trkpt>
      <trkpt lat="42.140946" lon="-73.985786">
        <ele>100.21651</ele>
        <time>2024-09-15T09:37:58.000Z</time>
      </trkpt>
      <trkpt lat="42.140988" lon="-73.985866">
        <ele>100.220321</ele>
        <time>2024-09-15T09:37:59.000Z</time>
      </trkpt>
      <trkpt lat="42.141335" lon="-73.987492">
        <ele>100.208898</ele>
        <time>2024-09-15T09:38:13.000Z</time>
      </trkpt>
      <trkpt lat="42.141604" lon="-73.98935">
        <ele>99.932958</ele>
        <time>2024-09-15T09:38:29.000Z</time>
      </trkpt>
      <trkpt lat="42.141632" lon="-73.989645">
        <ele>99.92878</ele>
        <time>2024-09-15T09:38:31.000Z</time>
      </trkpt>
      <trkpt lat="42.142252" lon="-73.989258">
        <ele>100.028413</ele>
        <time>2024-09-15T09:38:39.000Z</time>
      </trkpt>
      <trkpt lat="42.142516" lon="-73.98915">
        <ele>100.07039</ele>
        <time>2024-09-15T09:38:42.000Z</time>
      </trkpt>
      <trkpt lat="42.1427" lon="-73.989116">
        <ele>100.098398</ele>
        <time>2024-09-15T09:38:44.000Z</time>
      </trkpt>
      <trkpt lat="42.143287" lon="-73.98897">
        <ele>100.207541</ele>
        <time>2024-09-15T09:38:51.000Z</time>
      </trkpt>
      <trkpt lat="42.143438" lon="-73.988906">
        <ele>100.294326</ele>
        <time>2024-09-15T09:38:53.000Z</time>
      </trkpt>
      <trkpt lat="42.143787" lon="-73.988736">
        <ele>100.509597</ele>
        <time>2024-09-15T09:38:57.000Z</time>
      </trkpt>
      <trkpt lat="42.144016" lon="-73.988701">
        <ele>100.641773</ele>
        <time>2024-09-15T09:39:00.000Z</time>
      </trkpt>
      <trkpt lat="42.144284" lon="-73.988644">
        <ele>100.795361</ele>
        <time>2024-09-15T09:39:03.000Z</time>
      </trkpt>
      <trkpt lat="42.14472" lon="-73.988452">
        <ele>101.051703</ele>
        <time>2024-09-15T09:39:08.000Z</time>
      </trkpt>
      <trkpt lat="42.144722" lon="-73.988448">
        <ele>101.055866</ele>
        <time>2024-09-15T09:39:08.000Z</time>
      </trkpt>
      <trkpt lat="42.14518" lon="-73.988263">
        <ele>101.534587</ele>
        <time>2024-09-15T09:39:13.000Z</time>
      </trkpt>
      <trkpt lat="42.145306" lon="-73.98827">
        <ele>101.745683</ele>
        <time>2024-09-15T09:39:14.000Z</time>
      </trkpt>
      <trkpt lat="42.145421" lon="-73.988326">
        <ele>101.936248</ele>
        <time>2024-09-15T09:39:15.000Z</time>
      </trkpt>
      <trkpt lat="42.145631" lon="-73.988477">
        <ele>102.29589</ele>
        <time>2024-09-15T09:39:18.000Z</time>
      </trkpt>
      <trkpt lat="42.145759" lon="-73.988548">
        <ele>102.491309</ele>
        <time>2024-09-15T09:39:20.000Z</time>
      </trkpt>
      <trkpt lat="42.145866" lon="-73.988565">
        <ele>102.670972</ele>
        <time>2024-09-15T09:39:21.000Z</time>
      </trkpt>
      <trkpt lat="42.146368" lon="-73.988412">
        <ele>103.445043</ele>
        <time>2024-09-15T09:39:27.000Z</time>
      </trkpt>
      <trkpt lat="42.146991" lon="-73.98824">
        <ele>104.253841</ele>
        <time>2024-09-15T09:39:34.000Z</time>
      </trkpt>
      <trkpt lat="42.147827" lon="-73.987861">
        <ele>105.088429</ele>
        <time>2024-09-15T09:39:44.000Z</time>
      </trkpt>
      <trkpt lat="42.148857" lon="-73.987379">
        <ele>105.506969</ele>
        <time>2024-09-15T09:39:56.000Z</time>
      </trkpt>
      <trkpt lat="42.14936" lon="-73.987133">
        <ele>105.328345</ele>
        <time>2024-09-15T09:40:02.000Z</time>
      </trkpt>
      <trkpt lat="42.149571" lon="-73.987027">
        <ele>105.258315</ele>
        <time>2024-09-15T09:40:05.000Z</time>
      </trkpt>
      <trkpt lat="42.149705" lon="-73.986904">
        <ele>105.206062</ele>
        <time>2024-09-15T09:40:07.000Z</time>
      </trkpt>
      <trkpt lat="42.149785" lon="-73.986828">
        <ele>105.171845</ele>
        <time>2024-09-15T09:40:08.000Z</time>
      </trkpt>
      <trkpt lat="42.149961" lon="-73.986387">
        <ele>104.996831</ele>
        <time>2024-09-15T09:40:12.000Z</time>
      </trkpt>
      <trkpt lat="42.150137" lon="-73.98603">
        <ele>104.661019</ele>
        <time>2024-09-15T09:40:16.000Z</time>
      </trkpt>
      <trkpt lat="42.150304" lon="-73.985823">
        <ele>104.403009</ele>
        <time>2024-09-15T09:40:19.000Z</time>
      </trkpt>
      <trkpt lat="42.150744" lon="-73.985372">
        <ele>103.80047</ele>
        <time>2024-09-15T09:40:25.000Z</time>
      </trkpt>
      <trkpt lat="42.151161" lon="-73.984912">
        <ele>103.21898</ele>
        <time>2024-09-15T09:40:31.000Z</time>
      </trkpt>
      <trkpt lat="42.151466" lon="-73.98476">
        <ele>102.728878</ele>
        <time>2024-09-15T09:40:35.000Z</time>
      </trkpt>
      <trkpt lat="42.151738" lon="-73.984574">
        <ele>102.224338</ele>
        <time>2024-09-15T09:40:38.000Z</time>
      </trkpt>
      <trkpt lat="42.152067" lon="-73.984118">
        <ele>101.448114</ele>
        <time>2024-09-15T09:40:43.000Z</time>
      </trkpt>
      <trkpt lat="42.152498" lon="-73.9837">
        <ele>100.550524</ele>
        <time>2024-09-15T09:40:49.000Z</time>
      </trkpt>
      <trkpt lat="42.153415" lon="-73.982897">
        <ele>99.370386</ele>
        <time>2024-09-15T09:41:01.000Z</time>
      </trkpt>
      <trkpt lat="42.154004" lon="-73.982505">
        <ele>98.775852</ele>
        <time>2024-09-15T09:41:08.000Z</time>
      </trkpt>
      <trkpt lat="42.154247" lon="-73.982294">
        <ele>98.519988</ele>
        <time>2024-09-15T09:41:11.000Z</time>
      </trkpt>
      <trkpt lat="42.154492" lon="-73.98201">
        <ele>97.87439</ele>
        <time>2024-09-15T09:41:15.000Z</time>
      </trkpt>
      <trkpt lat="42.154995" lon="-73.98134">
        <ele>96.43821</ele>
        <time>2024-09-15T09:41:23.000Z</time>
      </trkpt>
      <trkpt lat="42.155217" lon="-73.981066">
        <ele>95.81118</ele>
        <time>2024-09-15T09:41:26.000Z</time>
      </trkpt>
      <trkpt lat="42.155751" lon="-73.980578">
        <ele>94.145299</ele>
        <time>2024-09-15T09:41:33.000Z</time>
      </trkpt>
      <trkpt lat="42.155873" lon="-73.980486">
        <ele>93.585242</ele>
        <time>2024-09-15T09:41:35.000Z</time>
      </trkpt>
      <trkpt lat="42.15661" lon="-73.97989">
        <ele>90.094329</ele>
        <time>2024-09-15T09:41:45.000Z</time>
      </trkpt>
      <trkpt lat="42.1568" lon="-73.979678">
        <ele>89.106302</ele>
        <time>2024-09-15T09:41:48.000Z</time>
      </trkpt>
      <trkpt lat="42.156901" lon="-73.979516">
        <ele>88.401329</ele>
        <time>2024-09-15T09:41:50.000Z</time>
      </trkpt>
      <trkpt lat="42.157224" lon="-73.978802">
        <ele>86.847764</ele>
        <time>2024-09-15T09:41:57.000Z</time>
      </trkpt>
      <trkpt lat="42.15734" lon="-73.978613">
        <ele>86.54987</ele>
        <time>2024-09-15T09:41:59.000Z</time>
      </trkpt>
      <trkpt lat="42.15746" lon="-73.978527">
        <ele>86.322771</ele>
        <time>2024-09-15T09:42:01.000Z</time>
      </trkpt>
      <trkpt lat="42.157486" lon="-73.978503">
        <ele>86.292926</ele>
        <time>2024-09-15T09:42:01.000Z</time>
      </trkpt>
      <trkpt lat="42.15755" lon="-73.978462">
        <ele>86.168576</ele>
        <time>2024-09-15T09:42:02.000Z</time>
      </trkpt>
      <trkpt lat="42.158287" lon="-73.978337">
        <ele>84.980243</ele>
        <time>2024-09-15T09:42:10.000Z</time>
      </trkpt>
      <trkpt lat="42.159494" lon="-73.978008">
        <ele>83.973398</ele>
        <time>2024-09-15T09:42:24.000Z</time>
      </trkpt>
      <trkpt lat="42.159777" lon="-73.977892">
        <ele>83.791045</ele>
        <time>2024-09-15T09:42:27.000Z</time>
      </trkpt>
      <trkpt lat="42.160471" lon="-73.977528">
        <ele>83.415531</ele>
        <time>2024-09-15T09:42:35.000Z</time>
      </trkpt>
      <trkpt lat="42.160896" lon="-73.97736">
        <ele>83.289348</ele>
        <time>2024-09-15T09:42:40.000Z</time>
      </trkpt>
      <trkpt lat="42.161155" lon="-73.977176">
        <ele>83.210366</ele>
        <time>2024-09-15T09:42:43.000Z</time>
      </trkpt>
      <trkpt lat="42.161449" lon="-73.976875">
        <ele>83.107189</ele>
        <time>2024-09-15T09:42:47.000Z</time>
      </trkpt>
      <trkpt lat="42.161418" lon="-73.976747">
        <ele>83.077029</ele>
        <time>2024-09-15T09:42:48.000Z</time>
      </trkpt>
      <trkpt lat="42.161408" lon="-73.976585">
        <ele>83.044323</ele>
        <time>2024-09-15T09:42:49.000Z</time>
      </trkpt>
      <trkpt lat="42.16143" lon="-73.976451">
        <ele>83.014619</ele>
        <time>2024-09-15T09:42:50.000Z</time>
      </trkpt>
      <trkpt lat="42.161639" lon="-73.975966">
        <ele>83.119684</ele>
        <time>2024-09-15T09:42:55.000Z</time>
      </trkpt>
      <trkpt lat="42.16166" lon="-73.975897">
        <ele>83.144295</ele>
        <time>2024-09-15T09:42:56.000Z</time>
      </trkpt>
      <trkpt lat="42.161716" lon="-73.975702">
        <ele>83.234419</ele>
        <time>2024-09-15T09:42:58.000Z</time>
      </trkpt>
      <trkpt lat="42.161754" lon="-73.975278">
        <ele>83.399333</ele>
        <time>2024-09-15T09:43:02.000Z</time>
      </trkpt>
      <trkpt lat="42.161656" lon="-73.974627">
        <ele>83.665321</ele>
        <time>2024-09-15T09:43:07.000Z</time>
      </trkpt>
      <trkpt lat="42.161695" lon="-73.974011">
        <ele>83.91041</ele>
        <time>2024-09-15T09:43:12.000Z</time>
      </trkpt>
      <trkpt lat="42.161733" lon="-73.97368">
        <ele>83.625853</ele>
        <time>2024-09-15T09:43:15.000Z</time>
      </trkpt>
      <trkpt lat="42.161981" lon="-73.973317">
        <ele>83.035533</ele>
        <time>2024-09-15T09:43:19.000Z</time>
      </trkpt>
      <trkpt lat="42.162046" lon="-73.973164">
        <ele>82.827922</ele>
        <time>2024-09-15T09:43:20.000Z</time>
      </trkpt>
      <trkpt lat="42.162042" lon="-73.972956">
        <ele>82.585903</ele>
        <time>2024-09-15T09:43:22.000Z</time>
      </trkpt>
      <trkpt lat="42.161977" lon="-73.972568">
        <ele>82.109794</ele>
        <time>2024-09-15T09:43:25.000Z</time>
      </trkpt>
      <trkpt lat="42.161986" lon="-73.97249">
        <ele>82.003958</ele>
        <time>2024-09-15T09:43:26.000Z</time>
      </trkpt>
      <trkpt lat="42.161849" lon="-73.972344">
        <ele>81.706839</ele>
        <time>2024-09-15T09:43:28.000Z</time>
      </trkpt>
      <trkpt lat="42.161722" lon="-73.972165">
        <ele>81.422054</ele>
        <time>2024-09-15T09:43:30.000Z</time>
      </trkpt>
      <trkpt lat="42.161673" lon="-73.971926">
        <ele>81.137469</ele>
        <time>2024-09-15T09:43:32.000Z</time>
      </trkpt>
      <trkpt lat="42.161665" lon="-73.971678">
        <ele>80.509333</ele>
        <time>2024-09-15T09:43:34.000Z</time>
      </trkpt>
      <trkpt lat="42.16173" lon="-73.971476">
        <ele>79.830537</ele>
        <time>2024-09-15T09:43:36.000Z</time>
      </trkpt>
      <trkpt lat="42.162055" lon="-73.971031">
        <ele>77.807079</ele>
        <time>2024-09-15T09:43:41.000Z</time>
      </trkpt>
      <trkpt lat="42.162203" lon="-73.970715">
        <ele>76.624137</ele>
        <time>2024-09-15T09:43:44.000Z</time>
      </trkpt>
      <trkpt lat="42.162266" lon="-73.970461">
        <ele>75.772482</ele>
        <time>2024-09-15T09:43:46.000Z</time>
      </trkpt>
      <trkpt lat="42.162291" lon="-73.970037">
        <ele>74.355954</ele>
        <time>2024-09-15T09:43:50.000Z</time>
      </trkpt>
      <trkpt lat="42.162334" lon="-73.96992">
        <ele>73.988584</ele>
        <time>2024-09-15T09:43:51.000Z</time>
      </trkpt>
      <trkpt lat="42.162565" lon="-73.969505">
        <ele>73.014668</ele>
        <time>2024-09-15T09:43:55.000Z</time>
      </trkpt>
      <trkpt lat="42.162606" lon="-73.969346">
        <ele>72.883397</ele>
        <time>2024-09-15T09:43:56.000Z</time>
      </trkpt>
      <trkpt lat="42.162631" lon="-73.969031">
        <ele>72.628371</ele>
        <time>2024-09-15T09:43:59.000Z</time>
      </trkpt>
      <trkpt lat="42.162581" lon="-73.968721">
        <ele>72.378392</ele>
        <time>2024-09-15T09:44:02.000Z</time>
      </trkpt>
      <trkpt lat="42.162331" lon="-73.96809">
        <ele>71.799759</ele>
        <time>2024-09-15T09:44:08.000Z</time>
      </trkpt>
      <trkpt lat="42.162197" lon="-73.967808">
        <ele>71.536758</ele>
        <time>2024-09-15T09:44:11.000Z</time>
      </trkpt>
      <trkpt lat="42.162107" lon="-73.967681">
        <ele>71.39559</ele>
        <time>2024-09-15T09:44:12.000Z</time>
      </trkpt>
      <trkpt lat="42.16229" lon="-73.967517">
        <ele>72.324768</ele>
        <time>2024-09-15T09:44:14.000Z</time>
      </trkpt>
      <trkpt lat="42.16259" lon="-73.967036">
        <ele>75.775407</ele>
        <time>2024-09-15T09:44:19.000Z</time>
      </trkpt>
      <trkpt lat="42.162729" lon="-73.966887">
        <ele>77.096945</ele>
        <time>2024-09-15T09:44:21.000Z</time>
      </trkpt>
      <trkpt lat="42.163008" lon="-73.966709">
        <ele>79.404476</ele>
        <time>2024-09-15T09:44:24.000Z</time>
      </trkpt>
      <trkpt lat="42.163565" lon="-73.96576">
        <ele>86.132168</ele>
        <time>2024-09-15T09:44:34.000Z</time>
      </trkpt>
      <trkpt lat="42.163872" lon="-73.965128">
        <ele>90.071018</ele>
        <time>2024-09-15T09:44:40.000Z</time>
      </trkpt>
      <trkpt lat="42.163909" lon="-73.964992">
        <ele>90.839877</ele>
        <time>2024-09-15T09:44:41.000Z</time>
      </trkpt>
      <trkpt lat="42.163939" lon="-73.964583">
        <ele>92.988854</ele>
        <time>2024-09-15T09:44:44.000Z</time>
      </trkpt>
      <trkpt lat="42.164016" lon="-73.964263">
        <ele>94.744047</ele>
        <time>2024-09-15T09:44:47.000Z</time>
      </trkpt>
      <trkpt lat="42.164537" lon="-73.963339">
        <ele>97.310692</ele>
        <time>2024-09-15T09:44:57.000Z</time>
      </trkpt>
      <trkpt lat="42.164712" lon="-73.962971">
        <ele>97.166161</ele>
        <time>2024-09-15T09:45:01.000Z</time>
      </trkpt>
      <trkpt lat="42.164911" lon="-73.962623">
        <ele>97.021414</ele>
        <time>2024-09-15T09:45:05.000Z</time>
      </trkpt>
      <trkpt lat="42.165291" lon="-73.96205">
        <ele>96.768421</ele>
        <time>2024-09-15T09:45:11.000Z</time>
      </trkpt>
      <trkpt lat="42.165443" lon="-73.96177">
        <ele>95.900745</ele>
        <time>2024-09-15T09:45:14.000Z</time>
      </trkpt>
      <trkpt lat="42.165554" lon="-73.961364">
        <ele>94.21708</ele>
        <time>2024-09-15T09:45:18.000Z</time>
      </trkpt>
      <trkpt lat="42.165752" lon="-73.960359">
        <ele>90.036954</ele>
        <time>2024-09-15T09:45:27.000Z</time>
      </trkpt>
      <trkpt lat="42.165871" lon="-73.95993">
        <ele>88.287036</ele>
        <time>2024-09-15T09:45:31.000Z</time>
      </trkpt>
      <trkpt lat="42.166017" lon="-73.9595">
        <ele>86.233462</ele>
        <time>2024-09-15T09:45:35.000Z</time>
      </trkpt>
      <trkpt lat="42.166252" lon="-73.958974">
        <ele>83.247986</ele>
        <time>2024-09-15T09:45:40.000Z</time>
      </trkpt>
      <trkpt lat="42.166505" lon="-73.958625">
        <ele>80.9263</ele>
        <time>2024-09-15T09:45:44.000Z</time>
      </trkpt>
      <trkpt lat="42.166929" lon="-73.958223">
        <ele>77.477277</ele>
        <time>2024-09-15T09:45:50.000Z</time>
      </trkpt>
      <trkpt lat="42.167523" lon="-73.957886">
        <ele>73.775539</ele>
        <time>2024-09-15T09:45:57.000Z</time>
      </trkpt>
      <trkpt lat="42.168113" lon="-73.957467">
        <ele>70.419328</ele>
        <time>2024-09-15T09:46:04.000Z</time>
      </trkpt>
      <trkpt lat="42.168381" lon="-73.957139">
        <ele>68.581181</ele>
        <time>2024-09-15T09:46:08.000Z</time>
      </trkpt>
      <trkpt lat="42.168517" lon="-73.956923">
        <ele>67.537664</ele>
        <time>2024-09-15T09:46:10.000Z</time>
      </trkpt>
      <trkpt lat="42.168706" lon="-73.956477">
        <ele>66.042495</ele>
        <time>2024-09-15T09:46:14.000Z</time>
      </trkpt>
      <trkpt lat="42.168826" lon="-73.956314">
        <ele>65.72294</ele>
        <time>2024-09-15T09:46:16.000Z</time>
      </trkpt>
      <trkpt lat="42.168937" lon="-73.956169">
        <ele>65.380241</ele>
        <time>2024-09-15T09:46:18.000Z</time>
      </trkpt>
      <trkpt lat="42.169308" lon="-73.955821">
        <ele>64.444254</ele>
        <time>2024-09-15T09:46:23.000Z</time>
      </trkpt>
      <trkpt lat="42.169964" lon="-73.95535">
        <ele>62.929602</ele>
        <time>2024-09-15T09:46:31.000Z</time>
      </trkpt>
      <trkpt lat="42.170561" lon="-73.954981">
        <ele>62.679295</ele>
        <time>2024-09-15T09:46:38.000Z</time>
      </trkpt>
      <trkpt lat="42.17089" lon="-73.954747">
        <ele>62.732118</ele>
        <time>2024-09-15T09:46:42.000Z</time>
      </trkpt>
      <trkpt lat="42.171576" lon="-73.954067">
        <ele>62.849123</ele>
        <time>2024-09-15T09:46:51.000Z</time>
      </trkpt>
      <trkpt lat="42.171858" lon="-73.953702">
        <ele>62.71805</ele>
        <time>2024-09-15T09:46:55.000Z</time>
      </trkpt>
      <trkpt lat="42.172091" lon="-73.953222">
        <ele>62.540536</ele>
        <time>2024-09-15T09:47:00.000Z</time>
      </trkpt>
      <trkpt lat="42.172338" lon="-73.952399">
        <ele>62.251314</ele>
        <time>2024-09-15T09:47:07.000Z</time>
      </trkpt>
      <trkpt lat="42.172508" lon="-73.951863">
        <ele>61.998337</ele>
        <time>2024-09-15T09:47:12.000Z</time>
      </trkpt>
      <trkpt lat="42.17262" lon="-73.9516">
        <ele>61.621785</ele>
        <time>2024-09-15T09:47:14.000Z</time>
      </trkpt>
      <trkpt lat="42.17287" lon="-73.951221">
        <ele>60.953385</ele>
        <time>2024-09-15T09:47:18.000Z</time>
      </trkpt>
      <trkpt lat="42.173137" lon="-73.950962">
        <ele>60.357246</ele>
        <time>2024-09-15T09:47:22.000Z</time>
      </trkpt>
      <trkpt lat="42.173308" lon="-73.950832">
        <ele>60.000502</ele>
        <time>2024-09-15T09:47:24.000Z</time>
      </trkpt>
      <trkpt lat="42.173773" lon="-73.950641">
        <ele>59.138465</ele>
        <time>2024-09-15T09:47:29.000Z</time>
      </trkpt>
      <trkpt lat="42.174093" lon="-73.950438">
        <ele>58.289455</ele>
        <time>2024-09-15T09:47:33.000Z</time>
      </trkpt>
      <trkpt lat="42.175219" lon="-73.949951">
        <ele>54.968163</ele>
        <time>2024-09-15T09:47:46.000Z</time>
      </trkpt>
      <trkpt lat="42.175605" lon="-73.94972">
        <ele>53.712726</ele>
        <time>2024-09-15T09:47:51.000Z</time>
      </trkpt>
      <trkpt lat="42.175903" lon="-73.94949">
        <ele>52.291596</ele>
        <time>2024-09-15T09:47:55.000Z</time>
      </trkpt>
      <trkpt lat="42.176468" lon="-73.948714">
        <ele>48.81866</ele>
        <time>2024-09-15T09:48:04.000Z</time>
      </trkpt>
      <trkpt lat="42.176731" lon="-73.948214">
        <ele>46.876096</ele>
        <time>2024-09-15T09:48:09.000Z</time>
      </trkpt>
      <trkpt lat="42.176848" lon="-73.947412">
        <ele>45.314316</ele>
        <time>2024-09-15T09:48:16.000Z</time>
      </trkpt>
      <trkpt lat="42.176924" lon="-73.947217">
        <ele>45.047282</ele>
        <time>2024-09-15T09:48:18.000Z</time>
      </trkpt>
      <trkpt lat="42.177011" lon="-73.94703">
        <ele>44.730025</ele>
        <time>2024-09-15T09:48:20.000Z</time>
      </trkpt>
      <trkpt lat="42.177293" lon="-73.946619">
        <ele>44.003533</ele>
        <time>2024-09-15T09:48:25.000Z</time>
      </trkpt>
      <trkpt lat="42.177566" lon="-73.946377">
        <ele>43.431181</ele>
        <time>2024-09-15T09:48:29.000Z</time>
      </trkpt>
      <trkpt lat="42.178404" lon="-73.945743">
        <ele>40.855843</ele>
        <time>2024-09-15T09:48:40.000Z</time>
      </trkpt>
      <trkpt lat="42.178644" lon="-73.94551">
        <ele>39.923867</ele>
        <time>2024-09-15T09:48:43.000Z</time>
      </trkpt>
      <trkpt lat="42.178675" lon="-73.945353">
        <ele>39.524002</ele>
        <time>2024-09-15T09:48:44.000Z</time>
      </trkpt>
      <trkpt lat="42.178678" lon="-73.945123">
        <ele>38.995101</ele>
        <time>2024-09-15T09:48:46.000Z</time>
      </trkpt>
      <trkpt lat="42.17868" lon="-73.945047">
        <ele>38.781928</ele>
        <time>2024-09-15T09:48:47.000Z</time>
      </trkpt>
      <trkpt lat="42.178429" lon="-73.944224">
        <ele>36.534826</ele>
        <time>2024-09-15T09:48:54.000Z</time>
      </trkpt>
      <trkpt lat="42.178349" lon="-73.943802">
        <ele>35.176506</ele>
        <time>2024-09-15T09:48:58.000Z</time>
      </trkpt>
      <trkpt lat="42.178316" lon="-73.943435">
        <ele>33.949704</ele>
        <time>2024-09-15T09:49:01.000Z</time>
      </trkpt>
      <trkpt lat="42.178306" lon="-73.94318">
        <ele>33.149617</ele>
        <time>2024-09-15T09:49:03.000Z</time>
      </trkpt>
      <trkpt lat="42.178368" lon="-73.942871">
        <ele>32.114405</ele>
        <time>2024-09-15T09:49:06.000Z</time>
      </trkpt>
      <trkpt lat="42.178466" lon="-73.94263">
        <ele>31.243795</ele>
        <time>2024-09-15T09:49:08.000Z</time>
      </trkpt>
      <trkpt lat="42.178749" lon="-73.942129">
        <ele>29.397025</ele>
        <time>2024-09-15T09:49:13.000Z</time>
      </trkpt>
      <trkpt lat="42.179003" lon="-73.941734">
        <ele>29.217916</ele>
        <time>2024-09-15T09:49:17.000Z</time>
      </trkpt>
      <trkpt lat="42.179988" lon="-73.940303">
        <ele>28.694163</ele>
        <time>2024-09-15T09:49:33.000Z</time>
      </trkpt>
      <trkpt lat="42.180181" lon="-73.940217">
        <ele>28.95177</ele>
        <time>2024-09-15T09:49:35.000Z</time>
      </trkpt>
      <trkpt lat="42.180259" lon="-73.940245">
        <ele>29.037483</ele>
        <time>2024-09-15T09:49:36.000Z</time>
      </trkpt>
      <trkpt lat="42.180411" lon="-73.94027">
        <ele>29.22246</ele>
        <time>2024-09-15T09:49:38.000Z</time>
      </trkpt>
      <trkpt lat="42.180523" lon="-73.940297">
        <ele>29.370828</ele>
        <time>2024-09-15T09:49:39.000Z</time>
      </trkpt>
      <trkpt lat="42.180646" lon="-73.940299">
        <ele>29.518728</ele>
        <time>2024-09-15T09:49:40.000Z</time>
      </trkpt>
      <trkpt lat="42.180706" lon="-73.94025">
        <ele>29.600771</ele>
        <time>2024-09-15T09:49:41.000Z</time>
      </trkpt>
      <trkpt lat="42.180758" lon="-73.940132">
        <ele>29.726981</ele>
        <time>2024-09-15T09:49:42.000Z</time>
      </trkpt>
      <trkpt lat="42.180774" lon="-73.939974">
        <ele>29.87557</ele>
        <time>2024-09-15T09:49:43.000Z</time>
      </trkpt>
      <trkpt lat="42.180724" lon="-73.939786">
        <ele>30.054763</ele>
        <time>2024-09-15T09:49:45.000Z</time>
      </trkpt>
      <trkpt lat="42.180327" lon="-73.939361">
        <ele>30.66636</ele>
        <time>2024-09-15T09:49:51.000Z</time>
      </trkpt>
      <trkpt lat="42.179713" lon="-73.938568">
        <ele>30.652155</ele>
        <time>2024-09-15T09:50:00.000Z</time>
      </trkpt>
      <trkpt lat="42.179709" lon="-73.938555">
        <ele>30.650165</ele>
        <time>2024-09-15T09:50:00.000Z</time>
      </trkpt>
      <trkpt lat="42.179718" lon="-73.938553">
        <ele>30.648164</ele>
        <time>2024-09-15T09:50:00.000Z</time>
      </trkpt>
      <trkpt lat="42.180325" lon="-73.939376">
        <ele>30.491445</ele>
        <time>2024-09-15T09:50:10.000Z</time>
      </trkpt>
      <trkpt lat="42.180718" lon="-73.939795">
        <ele>30.072676</ele>
        <time>2024-09-15T09:50:16.000Z</time>
      </trkpt>
      <trkpt lat="42.180774" lon="-73.939981">
        <ele>29.904076</ele>
        <time>2024-09-15T09:50:18.000Z</time>
      </trkpt>
      <trkpt lat="42.180755" lon="-73.940145">
        <ele>29.764278</ele>
        <time>2024-09-15T09:50:19.000Z</time>
      </trkpt>
      <trkpt lat="42.180697" lon="-73.940255">
        <ele>29.645503</ele>
        <time>2024-09-15T09:50:20.000Z</time>
      </trkpt>
      <trkpt lat="42.180654" lon="-73.940303">
        <ele>29.568297</ele>
        <time>2024-09-15T09:50:21.000Z</time>
      </trkpt>
      <trkpt lat="42.180521" lon="-73.940309">
        <ele>29.429149</ele>
        <time>2024-09-15T09:50:22.000Z</time>
      </trkpt>
      <trkpt lat="42.180406" lon="-73.940276">
        <ele>29.289547</ele>
        <time>2024-09-15T09:50:23.000Z</time>
      </trkpt>
      <trkpt lat="42.180262" lon="-73.940242">
        <ele>29.115488</ele>
        <time>2024-09-15T09:50:25.000Z</time>
      </trkpt>
      <trkpt lat="42.180182" lon="-73.940219">
        <ele>29.034856</ele>
        <time>2024-09-15T09:50:26.000Z</time>
      </trkpt>
      <trkpt lat="42.179998" lon="-73.940302">
        <ele>28.792462</ele>
        <time>2024-09-15T09:50:28.000Z</time>
      </trkpt>
      <trkpt lat="42.178996" lon="-73.941733">
        <ele>29.482472</ele>
        <time>2024-09-15T09:50:44.000Z</time>
      </trkpt>
      <trkpt lat="42.178736" lon="-73.942132">
        <ele>29.869091</ele>
        <time>2024-09-15T09:50:48.000Z</time>
      </trkpt>
      <trkpt lat="42.178458" lon="-73.942624">
        <ele>30.903785</ele>
        <time>2024-09-15T09:50:53.000Z</time>
      </trkpt>
      <trkpt lat="42.178363" lon="-73.942861">
        <ele>31.829671</ele>
        <time>2024-09-15T09:50:55.000Z</time>
      </trkpt>
      <trkpt lat="42.178322" lon="-73.943184">
        <ele>32.93058</ele>
        <time>2024-09-15T09:50:58.000Z</time>
      </trkpt>
      <trkpt lat="42.178312" lon="-73.943442">
        <ele>33.781446</ele>
        <time>2024-09-15T09:51:00.000Z</time>
      </trkpt>
      <trkpt lat="42.178351" lon="-73.9438">
        <ele>35.086098</ele>
        <time>2024-09-15T09:51:03.000Z</time>
      </trkpt>
      <trkpt lat="42.178431" lon="-73.944213">
        <ele>36.530653</ele>
        <time>2024-09-15T09:51:07.000Z</time>
      </trkpt>
      <trkpt lat="42.178675" lon="-73.945048">
        <ele>39.083531</ele>
        <time>2024-09-15T09:51:14.000Z</time>
      </trkpt>
      <trkpt lat="42.178676" lon="-73.945129">
        <ele>39.261177</ele>
        <time>2024-09-15T09:51:15.000Z</time>
      </trkpt>
      <trkpt lat="42.178684" lon="-73.945353">
        <ele>39.701965</ele>
        <time>2024-09-15T09:51:17.000Z</time>
      </trkpt>
      <trkpt lat="42.178646" lon="-73.94552">
        <ele>40.035219</ele>
        <time>2024-09-15T09:51:18.000Z</time>
      </trkpt>
      <trkpt lat="42.178391" lon="-73.945759">
        <ele>40.81194</ele>
        <time>2024-09-15T09:51:21.000Z</time>
      </trkpt>
      <trkpt lat="42.177566" lon="-73.946362">
        <ele>43.291334</ele>
        <time>2024-09-15T09:51:31.000Z</time>
      </trkpt>
      <trkpt lat="42.177297" lon="-73.946627">
        <ele>43.975432</ele>
        <time>2024-09-15T09:51:35.000Z</time>
      </trkpt>
      <trkpt lat="42.177008" lon="-73.947017">
        <ele>44.84379</ele>
        <time>2024-09-15T09:51:40.000Z</time>
      </trkpt>
      <trkpt lat="42.176921" lon="-73.947222">
        <ele>45.222974</ele>
        <time>2024-09-15T09:51:42.000Z</time>
      </trkpt>
      <trkpt lat="42.176862" lon="-73.9474">
        <ele>45.542158</ele>
        <time>2024-09-15T09:51:44.000Z</time>
      </trkpt>
      <trkpt lat="42.176726" lon="-73.948217">
        <ele>46.846078</ele>
        <time>2024-09-15T09:51:51.000Z</time>
      </trkpt>
      <trkpt lat="42.176463" lon="-73.948711">
        <ele>48.64089</ele>
        <time>2024-09-15T09:51:56.000Z</time>
      </trkpt>
      <trkpt lat="42.175902" lon="-73.949494">
        <ele>52.152456</ele>
        <time>2024-09-15T09:52:05.000Z</time>
      </trkpt>
      <trkpt lat="42.175622" lon="-73.949714">
        <ele>53.589391</ele>
        <time>2024-09-15T09:52:09.000Z</time>
      </trkpt>
      <trkpt lat="42.175221" lon="-73.949952">
        <ele>55.207949</ele>
        <time>2024-09-15T09:52:14.000Z</time>
      </trkpt>
      <trkpt lat="42.174096" lon="-73.950434">
        <ele>58.219721</ele>
        <time>2024-09-15T09:52:27.000Z</time>
      </trkpt>
      <trkpt lat="42.173777" lon="-73.95063">
        <ele>59.127579</ele>
        <time>2024-09-15T09:52:31.000Z</time>
      </trkpt>
      <trkpt lat="42.173307" lon="-73.950833">
        <ele>60.026788</ele>
        <time>2024-09-15T09:52:36.000Z</time>
      </trkpt>
      <trkpt lat="42.173144" lon="-73.950966">
        <ele>60.354441</ele>
        <time>2024-09-15T09:52:38.000Z</time>
      </trkpt>
      <trkpt lat="42.172868" lon="-73.951232">
        <ele>60.901976</ele>
        <time>2024-09-15T09:52:42.000Z</time>
      </trkpt>
      <trkpt lat="42.172623" lon="-73.951602">
        <ele>61.515853</ele>
        <time>2024-09-15T09:52:46.000Z</time>
      </trkpt>
      <trkpt lat="42.172523" lon="-73.951852">
        <ele>61.861698</ele>
        <time>2024-09-15T09:52:48.000Z</time>
      </trkpt>
      <trkpt lat="42.17235" lon="-73.952384">
        <ele>62.399052</ele>
        <time>2024-09-15T09:52:53.000Z</time>
      </trkpt>
      <trkpt lat="42.172087" lon="-73.95324">
        <ele>62.53699</ele>
        <time>2024-09-15T09:53:01.000Z</time>
      </trkpt>
      <trkpt lat="42.171858" lon="-73.953689">
        <ele>62.621668</ele>
        <time>2024-09-15T09:53:05.000Z</time>
      </trkpt>
      <trkpt lat="42.171581" lon="-73.95407">
        <ele>62.700678</ele>
        <time>2024-09-15T09:53:09.000Z</time>
      </trkpt>
      <trkpt lat="42.170892" lon="-73.954758">
        <ele>62.786628</ele>
        <time>2024-09-15T09:53:19.000Z</time>
      </trkpt>
      <trkpt lat="42.170549" lon="-73.954987">
        <ele>62.812998</ele>
        <time>2024-09-15T09:53:23.000Z</time>
      </trkpt>
      <trkpt lat="42.169948" lon="-73.955349">
        <ele>62.858218</ele>
        <time>2024-09-15T09:53:30.000Z</time>
      </trkpt>
      <trkpt lat="42.169304" lon="-73.955821">
        <ele>64.41398</ele>
        <time>2024-09-15T09:53:38.000Z</time>
      </trkpt>
      <trkpt lat="42.168946" lon="-73.956169">
        <ele>65.53706</ele>
        <time>2024-09-15T09:53:43.000Z</time>
      </trkpt>
      <trkpt lat="42.168814" lon="-73.956325">
        <ele>65.948276</ele>
        <time>2024-09-15T09:53:45.000Z</time>
      </trkpt>
      <trkpt lat="42.168714" lon="-73.956474">
        <ele>66.331714</ele>
        <time>2024-09-15T09:53:47.000Z</time>
      </trkpt>
      <trkpt lat="42.168514" lon="-73.956916">
        <ele>67.269745</ele>
        <time>2024-09-15T09:53:51.000Z</time>
      </trkpt>
      <trkpt lat="42.168392" lon="-73.957129">
        <ele>68.330383</ele>
        <time>2024-09-15T09:53:53.000Z</time>
      </trkpt>
      <trkpt lat="42.168117" lon="-73.957455">
        <ele>70.300537</ele>
        <time>2024-09-15T09:53:57.000Z</time>
      </trkpt>
      <trkpt lat="42.16752" lon="-73.957882">
        <ele>73.897831</ele>
        <time>2024-09-15T09:54:05.000Z</time>
      </trkpt>
      <trkpt lat="42.166934" lon="-73.958219">
        <ele>77.394719</ele>
        <time>2024-09-15T09:54:12.000Z</time>
      </trkpt>
      <trkpt lat="42.166503" lon="-73.958621">
        <ele>80.847199</ele>
        <time>2024-09-15T09:54:18.000Z</time>
      </trkpt>
      <trkpt lat="42.166261" lon="-73.958986">
        <ele>83.171201</ele>
        <time>2024-09-15T09:54:22.000Z</time>
      </trkpt>
      <trkpt lat="42.166025" lon="-73.959516">
        <ele>86.159651</ele>
        <time>2024-09-15T09:54:27.000Z</time>
      </trkpt>
      <trkpt lat="42.165872" lon="-73.95993">
        <ele>88.483065</ele>
        <time>2024-09-15T09:54:31.000Z</time>
      </trkpt>
      <trkpt lat="42.165755" lon="-73.96036">
        <ele>90.158981</ele>
        <time>2024-09-15T09:54:35.000Z</time>
      </trkpt>
      <trkpt lat="42.165561" lon="-73.96137">
        <ele>94.011153</ele>
        <time>2024-09-15T09:54:44.000Z</time>
      </trkpt>
      <trkpt lat="42.165443" lon="-73.961771">
        <ele>95.56269</ele>
        <time>2024-09-15T09:54:48.000Z</time>
      </trkpt>
      <trkpt lat="42.165304" lon="-73.962057">
        <ele>96.854578</ele>
        <time>2024-09-15T09:54:51.000Z</time>
      </trkpt>
      <trkpt lat="42.164904" lon="-73.962611">
        <ele>97.347252</ele>
        <time>2024-09-15T09:54:57.000Z</time>
      </trkpt>
      <trkpt lat="42.164712" lon="-73.962975">
        <ele>97.134132</ele>
        <time>2024-09-15T09:55:01.000Z</time>
      </trkpt>
      <trkpt lat="42.164526" lon="-73.963342">
        <ele>96.921318</ele>
        <time>2024-09-15T09:55:05.000Z</time>
      </trkpt>
      <trkpt lat="42.164015" lon="-73.964269">
        <ele>95.426068</ele>
        <time>2024-09-15T09:55:15.000Z</time>
      </trkpt>
      <trkpt lat="42.16394" lon="-73.964575">
        <ele>93.466802</ele>
        <time>2024-09-15T09:55:18.000Z</time>
      </trkpt>
      <trkpt lat="42.163906" lon="-73.964994">
        <ele>91.067964</ele>
        <time>2024-09-15T09:55:21.000Z</time>
      </trkpt>
      <trkpt lat="42.163887" lon="-73.965132">
        <ele>90.209713</ele>
        <time>2024-09-15T09:55:22.000Z</time>
      </trkpt>
      <trkpt lat="42.163566" lon="-73.965746">
        <ele>85.812887</ele>
        <time>2024-09-15T09:55:28.000Z</time>
      </trkpt>
      <trkpt lat="42.163005" lon="-73.966705">
        <ele>79.316381</ele>
        <time>2024-09-15T09:55:38.000Z</time>
      </trkpt>
      <trkpt lat="42.162726" lon="-73.966902">
        <ele>77.327425</ele>
        <time>2024-09-15T09:55:42.000Z</time>
      </trkpt>
      <trkpt lat="42.16258" lon="-73.967025">
        <ele>76.188321</ele>
        <time>2024-09-15T09:55:44.000Z</time>
      </trkpt>
      <trkpt lat="42.162293" lon="-73.967508">
        <ele>73.214045</ele>
        <time>2024-09-15T09:55:49.000Z</time>
      </trkpt>
      <trkpt lat="42.162115" lon="-73.967685">
        <ele>71.803512</ele>
        <time>2024-09-15T09:55:51.000Z</time>
      </trkpt>
      <trkpt lat="42.162193" lon="-73.967821">
        <ele>70.957861</ele>
        <time>2024-09-15T09:55:52.000Z</time>
      </trkpt>
      <trkpt lat="42.162328" lon="-73.968078">
        <ele>71.039123</ele>
        <time>2024-09-15T09:55:55.000Z</time>
      </trkpt>
      <trkpt lat="42.162579" lon="-73.96873">
        <ele>72.181126</ele>
        <time>2024-09-15T09:56:01.000Z</time>
      </trkpt>
      <trkpt lat="42.162619" lon="-73.969025">
        <ele>72.674457</ele>
        <time>2024-09-15T09:56:03.000Z</time>
      </trkpt>
      <trkpt lat="42.162598" lon="-73.969346">
        <ele>73.177818</ele>
        <time>2024-09-15T09:56:06.000Z</time>
      </trkpt>
      <trkpt lat="42.162558" lon="-73.969499">
        <ele>73.43686</ele>
        <time>2024-09-15T09:56:07.000Z</time>
      </trkpt>
      <trkpt lat="42.162323" lon="-73.969929">
        <ele>74.269688</ele>
        <time>2024-09-15T09:56:11.000Z</time>
      </trkpt>
      <trkpt lat="42.162292" lon="-73.970022">
        <ele>74.451042</ele>
        <time>2024-09-15T09:56:12.000Z</time>
      </trkpt>
      <trkpt lat="42.16226" lon="-73.970469">
        <ele>75.77471</ele>
        <time>2024-09-15T09:56:16.000Z</time>
      </trkpt>
      <trkpt lat="42.162205" lon="-73.970726">
        <ele>76.580422</ele>
        <time>2024-09-15T09:56:18.000Z</time>
      </trkpt>
      <trkpt lat="42.162055" lon="-73.971023">
        <ele>77.699579</ele>
        <time>2024-09-15T09:56:21.000Z</time>
      </trkpt>
      <trkpt lat="42.161721" lon="-73.971475">
        <ele>79.613878</ele>
        <time>2024-09-15T09:56:26.000Z</time>
      </trkpt>
      <trkpt lat="42.161681" lon="-73.97168">
        <ele>80.256069</ele>
        <time>2024-09-15T09:56:28.000Z</time>
      </trkpt>
      <trkpt lat="42.161675" lon="-73.971927">
        <ele>81.017432</ele>
        <time>2024-09-15T09:56:30.000Z</time>
      </trkpt>
      <trkpt lat="42.161729" lon="-73.97216">
        <ele>81.738099</ele>
        <time>2024-09-15T09:56:32.000Z</time>
      </trkpt>
      <trkpt lat="42.161834" lon="-73.972342">
        <ele>82.003019</ele>
        <time>2024-09-15T09:56:34.000Z</time>
      </trkpt>
      <trkpt lat="42.161981" lon="-73.972481">
        <ele>82.210746</ele>
        <time>2024-09-15T09:56:36.000Z</time>
      </trkpt>
      <trkpt lat="42.161978" lon="-73.972565">
        <ele>82.284748</ele>
        <time>2024-09-15T09:56:37.000Z</time>
      </trkpt>
      <trkpt lat="42.162038" lon="-73.972969">
        <ele>82.617624</ele>
        <time>2024-09-15T09:56:40.000Z</time>
      </trkpt>
      <trkpt lat="42.162045" lon="-73.973167">
        <ele>82.786854</ele>
        <time>2024-09-15T09:56:42.000Z</time>
      </trkpt>
      <trkpt lat="42.161993" lon="-73.973328">
        <ele>82.93202</ele>
        <time>2024-09-15T09:56:43.000Z</time>
      </trkpt>
      <trkpt lat="42.161746" lon="-73.973681">
        <ele>83.344749</ele>
        <time>2024-09-15T09:56:47.000Z</time>
      </trkpt>
      <trkpt lat="42.161686" lon="-73.974016">
        <ele>83.622543</ele>
        <time>2024-09-15T09:56:50.000Z</time>
      </trkpt>
      <trkpt lat="42.161652" lon="-73.97463">
        <ele>83.729825</ele>
        <time>2024-09-15T09:56:55.000Z</time>
      </trkpt>
      <trkpt lat="42.161749" lon="-73.975286">
        <ele>83.464967</ele>
        <time>2024-09-15T09:57:01.000Z</time>
      </trkpt>
      <trkpt lat="42.161729" lon="-73.975687">
        <ele>83.300759</ele>
        <time>2024-09-15T09:57:04.000Z</time>
      </trkpt>
      <trkpt lat="42.161652" lon="-73.975903">
        <ele>83.211032</ele>
        <time>2024-09-15T09:57:06.000Z</time>
      </trkpt>
      <trkpt lat="42.161639" lon="-73.975968">
        <ele>83.186531</ele>
        <time>2024-09-15T09:57:07.000Z</time>
      </trkpt>
      <trkpt lat="42.161417" lon="-73.976445">
        <ele>82.962376</ele>
        <time>2024-09-15T09:57:12.000Z</time>
      </trkpt>
      <trkpt lat="42.161407" lon="-73.976593">
        <ele>82.905341</ele>
        <time>2024-09-15T09:57:13.000Z</time>
      </trkpt>
      <trkpt lat="42.16142" lon="-73.976747">
        <ele>82.947229</ele>
        <time>2024-09-15T09:57:14.000Z</time>
      </trkpt>
      <trkpt lat="42.161451" lon="-73.976893">
        <ele>82.994169</ele>
        <time>2024-09-15T09:57:15.000Z</time>
      </trkpt>
      <trkpt lat="42.16116" lon="-73.97719">
        <ele>83.15473</ele>
        <time>2024-09-15T09:57:19.000Z</time>
      </trkpt>
      <trkpt lat="42.160898" lon="-73.97735">
        <ele>83.27766</ele>
        <time>2024-09-15T09:57:22.000Z</time>
      </trkpt>
      <trkpt lat="42.160474" lon="-73.977523">
        <ele>83.474067</ele>
        <time>2024-09-15T09:57:27.000Z</time>
      </trkpt>
      <trkpt lat="42.159783" lon="-73.977887">
        <ele>83.825824</ele>
        <time>2024-09-15T09:57:35.000Z</time>
      </trkpt>
      <trkpt lat="42.159495" lon="-73.977997">
        <ele>83.996195</ele>
        <time>2024-09-15T09:57:38.000Z</time>
      </trkpt>
      <trkpt lat="42.158296" lon="-73.978331">
        <ele>84.695422</ele>
        <time>2024-09-15T09:57:52.000Z</time>
      </trkpt>
      <trkpt lat="42.157555" lon="-73.97847">
        <ele>86.213962</ele>
        <time>2024-09-15T09:58:00.000Z</time>
      </trkpt>
      <trkpt lat="42.157477" lon="-73.978516">
        <ele>86.373786</ele>
        <time>2024-09-15T09:58:01.000Z</time>
      </trkpt>
      <trkpt lat="42.157469" lon="-73.978518">
        <ele>86.412156</ele>
        <time>2024-09-15T09:58:01.000Z</time>
      </trkpt>
      <trkpt lat="42.157343" lon="-73.978629">
        <ele>86.704042</ele>
        <time>2024-09-15T09:58:03.000Z</time>
      </trkpt>
      <trkpt lat="42.157231" lon="-73.978812">
        <ele>87.086927</ele>
        <time>2024-09-15T09:58:05.000Z</time>
      </trkpt>
      <trkpt lat="42.156902" lon="-73.979506">
        <ele>88.351098</ele>
        <time>2024-09-15T09:58:12.000Z</time>
      </trkpt>
      <trkpt lat="42.156785" lon="-73.979678">
        <ele>88.984704</ele>
        <time>2024-09-15T09:58:14.000Z</time>
      </trkpt>
      <trkpt lat="42.156597" lon="-73.979888">
        <ele>89.966836</ele>
        <time>2024-09-15T09:58:17.000Z</time>
      </trkpt>
      <trkpt lat="42.155868" lon="-73.980493">
        <ele>93.436873</ele>
        <time>2024-09-15T09:58:27.000Z</time>
      </trkpt>
      <trkpt lat="42.155751" lon="-73.980591">
        <ele>93.993565</ele>
        <time>2024-09-15T09:58:29.000Z</time>
      </trkpt>
      <trkpt lat="42.155218" lon="-73.981059">
        <ele>96.093579</ele>
        <time>2024-09-15T09:58:36.000Z</time>
      </trkpt>
      <trkpt lat="42.154984" lon="-73.981345">
        <ele>96.592341</ele>
        <time>2024-09-15T09:58:40.000Z</time>
      </trkpt>
      <trkpt lat="42.154507" lon="-73.982011">
        <ele>97.734708</ele>
        <time>2024-09-15T09:58:48.000Z</time>
      </trkpt>
      <trkpt lat="42.15425" lon="-73.9823">
        <ele>98.263794</ele>
        <time>2024-09-15T09:58:52.000Z</time>
      </trkpt>
      <trkpt lat="42.154009" lon="-73.982492">
        <ele>98.703997</ele>
        <time>2024-09-15T09:58:55.000Z</time>
      </trkpt>
      <trkpt lat="42.153418" lon="-73.982901">
        <ele>99.397535</ele>
        <time>2024-09-15T09:59:02.000Z</time>
      </trkpt>
      <trkpt lat="42.152495" lon="-73.983694">
        <ele>100.552284</ele>
        <time>2024-09-15T09:59:14.000Z</time>
      </trkpt>
      <trkpt lat="42.152052" lon="-73.984109">
        <ele>101.422594</ele>
        <time>2024-09-15T09:59:20.000Z</time>
      </trkpt>
      <trkpt lat="42.151736" lon="-73.984564">
        <ele>102.180849</ele>
        <time>2024-09-15T09:59:25.000Z</time>
      </trkpt>
      <trkpt lat="42.151467" lon="-73.984754">
        <ele>102.673698</ele>
        <time>2024-09-15T09:59:28.000Z</time>
      </trkpt>
      <trkpt lat="42.151161" lon="-73.98491">
        <ele>103.204614</ele>
        <time>2024-09-15T09:59:32.000Z</time>
      </trkpt>
      <trkpt lat="42.150758" lon="-73.985382">
        <ele>103.84064</ele>
        <time>2024-09-15T09:59:38.000Z</time>
      </trkpt>
      <trkpt lat="42.150296" lon="-73.985813">
        <ele>104.38801</ele>
        <time>2024-09-15T09:59:44.000Z</time>
      </trkpt>
      <trkpt lat="42.150126" lon="-73.986039">
        <ele>104.622398</ele>
        <time>2024-09-15T09:59:47.000Z</time>
      </trkpt>
      <trkpt lat="42.149951" lon="-73.98638">
        <ele>104.927473</ele>
        <time>2024-09-15T09:59:50.000Z</time>
      </trkpt>
      <trkpt lat="42.149785" lon="-73.986823">
        <ele>105.264248</ele>
        <time>2024-09-15T09:59:54.000Z</time>
      </trkpt>
      <trkpt lat="42.149701" lon="-73.986917">
        <ele>105.282878</ele>
        <time>2024-09-15T09:59:55.000Z</time>
      </trkpt>
      <trkpt lat="42.149568" lon="-73.987027">
        <ele>105.311308</ele>
        <time>2024-09-15T09:59:57.000Z</time>
      </trkpt>
      <trkpt lat="42.149369" lon="-73.987133">
        <ele>105.349425</ele>
        <time>2024-09-15T09:59:59.000Z</time>
      </trkpt>
      <trkpt lat="42.148857" lon="-73.987365">
        <ele>105.446636</ele>
        <time>2024-09-15T10:00:05.000Z</time>
      </trkpt>
      <trkpt lat="42.147835" lon="-73.987858">
        <ele>105.187653</ele>
        <time>2024-09-15T10:00:17.000Z</time>
      </trkpt>
      <trkpt lat="42.146992" lon="-73.98824">
        <ele>104.183317</ele>
        <time>2024-09-15T10:00:27.000Z</time>
      </trkpt>
      <trkpt lat="42.146364" lon="-73.98841">
        <ele>103.427242</ele>
        <time>2024-09-15T10:00:34.000Z</time>
      </trkpt>
      <trkpt lat="42.145862" lon="-73.988557">
        <ele>102.707043</ele>
        <time>2024-09-15T10:00:40.000Z</time>
      </trkpt>
      <trkpt lat="42.145752" lon="-73.988534">
        <ele>102.539877</ele>
        <time>2024-09-15T10:00:41.000Z</time>
      </trkpt>
      <trkpt lat="42.145626" lon="-73.988478">
        <ele>102.358066</ele>
        <time>2024-09-15T10:00:42.000Z</time>
      </trkpt>
      <trkpt lat="42.145431" lon="-73.98834">
        <ele>102.023434</ele>
        <time>2024-09-15T10:00:44.000Z</time>
      </trkpt>
      <trkpt lat="42.145304" lon="-73.988286">
        <ele>101.846147</ele>
        <time>2024-09-15T10:00:45.000Z</time>
      </trkpt>
      <trkpt lat="42.145163" lon="-73.988256">
        <ele>101.649733</ele>
        <time>2024-09-15T10:00:47.000Z</time>
      </trkpt>
      <trkpt lat="42.14429" lon="-73.988654">
        <ele>100.754875</ele>
        <time>2024-09-15T10:00:57.000Z</time>
      </trkpt>
      <trkpt lat="42.144019" lon="-73.988692">
        <ele>100.630095</ele>
        <time>2024-09-15T10:01:00.000Z</time>
      </trkpt>
      <trkpt lat="42.143781" lon="-73.988733">
        <ele>100.522709</ele>
        <time>2024-09-15T10:01:03.000Z</time>
      </trkpt>
      <trkpt lat="42.143427" lon="-73.988901">
        <ele>100.347817</ele>
        <time>2024-09-15T10:01:07.000Z</time>
      </trkpt>
      <trkpt lat="42.143277" lon="-73.988986">
        <ele>100.277295</ele>
        <time>2024-09-15T10:01:09.000Z</time>
      </trkpt>
      <trkpt lat="42.142702" lon="-73.989122">
        <ele>100.098289</ele>
        <time>2024-09-15T10:01:15.000Z</time>
      </trkpt>
      <trkpt lat="42.14251" lon="-73.989147">
        <ele>100.075182</ele>
        <time>2024-09-15T10:01:17.000Z</time>
      </trkpt>
      <trkpt lat="42.14225" lon="-73.98926">
        <ele>100.040563</ele>
        <time>2024-09-15T10:01:20.000Z</time>
      </trkpt>
      <trkpt lat="42.141633" lon="-73.989642">
        <ele>99.958376</ele>
        <time>2024-09-15T10:01:28.000Z</time>
      </trkpt>
      <trkpt lat="42.141606" lon="-73.989343">
        <ele>99.930858</ele>
        <time>2024-09-15T10:01:30.000Z</time>
      </trkpt>
      <trkpt lat="42.141326" lon="-73.987485">
        <ele>100.227389</ele>
        <time>2024-09-15T10:01:46.000Z</time>
      </trkpt>
      <trkpt lat="42.140991" lon="-73.985873">
        <ele>100.201276</ele>
        <time>2024-09-15T10:02:00.000Z</time>
      </trkpt>
      <trkpt lat="42.140937" lon="-73.985781">
        <ele>100.181552</ele>
        <time>2024-09-15T10:02:01.000Z</time>
      </trkpt>
      <trkpt lat="42.140805" lon="-73.985689">
        <ele>100.147584</ele>
        <time>2024-09-15T10:02:03.000Z</time>
      </trkpt>
      <trkpt lat="42.140688" lon="-73.985669">
        <ele>100.11702</ele>
        <time>2024-09-15T10:02:04.000Z</time>
      </trkpt>
      <trkpt lat="42.140388" lon="-73.9857">
        <ele>100.047178</ele>
        <time>2024-09-15T10:02:07.000Z</time>
      </trkpt>
      <trkpt lat="42.140244" lon="-73.985693">
        <ele>100.013327</ele>
        <time>2024-09-15T10:02:09.000Z</time>
      </trkpt>
      <trkpt lat="42.139776" lon="-73.985595">
        <ele>99.719228</ele>
        <time>2024-09-15T10:02:14.000Z</time>
      </trkpt>
      <trkpt lat="42.13952" lon="-73.985463">
        <ele>99.326648</ele>
        <time>2024-09-15T10:02:17.000Z</time>
      </trkpt>
      <trkpt lat="42.139332" lon="-73.985322">
        <ele>99.062716</ele>
        <time>2024-09-15T10:02:19.000Z</time>
      </trkpt>
      <trkpt lat="42.139201" lon="-73.985172">
        <ele>98.836178</ele>
        <time>2024-09-15T10:02:21.000Z</time>
      </trkpt>
      <trkpt lat="42.138869" lon="-73.984557">
        <ele>98.068925</ele>
        <time>2024-09-15T10:02:27.000Z</time>
      </trkpt>
      <trkpt lat="42.138607" lon="-73.984271">
        <ele>97.621066</ele>
        <time>2024-09-15T10:02:31.000Z</time>
      </trkpt>
      <trkpt lat="42.138529" lon="-73.984151">
        <ele>97.455186</ele>
        <time>2024-09-15T10:02:32.000Z</time>
      </trkpt>
      <trkpt lat="42.138229" lon="-73.983342">
        <ele>96.618546</ele>
        <time>2024-09-15T10:02:39.000Z</time>
      </trkpt>
      <trkpt lat="42.138076" lon="-73.982763">
        <ele>96.057672</ele>
        <time>2024-09-15T10:02:44.000Z</time>
      </trkpt>
      <trkpt lat="42.138017" lon="-73.982627">
        <ele>95.913774</ele>
        <time>2024-09-15T10:02:45.000Z</time>
      </trkpt>
      <trkpt lat="42.137655" lon="-73.982209">
        <ele>95.321982</ele>
        <time>2024-09-15T10:02:50.000Z</time>
      </trkpt>
      <trkpt lat="42.137347" lon="-73.981691">
        <ele>94.776549</ele>
        <time>2024-09-15T10:02:55.000Z</time>
      </trkpt>
      <trkpt lat="42.136973" lon="-73.981185">
        <ele>94.199371</ele>
        <time>2024-09-15T10:03:01.000Z</time>
      </trkpt>
      <trkpt lat="42.136744" lon="-73.980827">
        <ele>93.831154</ele>
        <time>2024-09-15T10:03:05.000Z</time>
      </trkpt>
      <trkpt lat="42.136585" lon="-73.980423">
        <ele>93.454215</ele>
        <time>2024-09-15T10:03:09.000Z</time>
      </trkpt>
      <trkpt lat="42.136577" lon="-73.980429">
        <ele>93.452873</ele>
        <time>2024-09-15T10:03:09.000Z</time>
      </trkpt>
      <trkpt lat="42.136504" lon="-73.979731">
        <ele>91.87133</ele>
        <time>2024-09-15T10:03:15.000Z</time>
      </trkpt>
      <trkpt lat="42.136513" lon="-73.979561">
        <ele>91.420408</ele>
        <time>2024-09-15T10:03:16.000Z</time>
      </trkpt>
      <trkpt lat="42.13656" lon="-73.978981">
        <ele>89.897444</ele>
        <time>2024-09-15T10:03:21.000Z</time>
      </trkpt>
      <trkpt lat="42.136659" lon="-73.978388">
        <ele>88.312317</ele>
        <time>2024-09-15T10:03:26.000Z</time>
      </trkpt>
      <trkpt lat="42.136632" lon="-73.977468">
        <ele>84.863519</ele>
        <time>2024-09-15T10:03:34.000Z</time>
      </trkpt>
      <trkpt lat="42.13654" lon="-73.97635">
        <ele>79.327751</ele>
        <time>2024-09-15T10:03:43.000Z</time>
      </trkpt>
      <trkpt lat="42.13651" lon="-73.975293">
        <ele>74.054493</ele>
        <time>2024-09-15T10:03:52.000Z</time>
      </trkpt>
      <trkpt lat="42.13648" lon="-73.975102">
        <ele>73.186344</ele>
        <time>2024-09-15T10:03:54.000Z</time>
      </trkpt>
      <trkpt lat="42.136363" lon="-73.974303">
        <ele>69.468646</ele>
        <time>2024-09-15T10:04:01.000Z</time>
      </trkpt>
      <trkpt lat="42.136331" lon="-73.974189">
        <ele>68.898889</ele>
        <time>2024-09-15T10:04:02.000Z</time>
      </trkpt>
      <trkpt lat="42.136185" lon="-73.973971">
        <ele>67.537677</ele>
        <time>2024-09-15T10:04:04.000Z</time>
      </trkpt>
      <trkpt lat="42.135898" lon="-73.973736">
        <ele>65.403622</ele>
        <time>2024-09-15T10:04:08.000Z</time>
      </trkpt>
      <trkpt lat="42.135542" lon="-73.973311">
        <ele>62.783747</ele>
        <time>2024-09-15T10:04:13.000Z</time>
      </trkpt>
      <trkpt lat="42.135459" lon="-73.973101">
        <ele>61.905944</ele>
        <time>2024-09-15T10:04:15.000Z</time>
      </trkpt>
      <trkpt lat="42.135426" lon="-73.972973">
        <ele>61.480176</ele>
        <time>2024-09-15T10:04:16.000Z</time>
      </trkpt>
      <trkpt lat="42.13542" lon="-73.972527">
        <ele>59.854806</ele>
        <time>2024-09-15T10:04:20.000Z</time>
      </trkpt>
      <trkpt lat="42.135372" lon="-73.972012">
        <ele>58.040378</ele>
        <time>2024-09-15T10:04:24.000Z</time>
      </trkpt>
      <trkpt lat="42.135358" lon="-73.971761">
        <ele>57.112137</ele>
        <time>2024-09-15T10:04:26.000Z</time>
      </trkpt>
      <trkpt lat="42.135421" lon="-73.971449">
        <ele>55.971615</ele>
        <time>2024-09-15T10:04:29.000Z</time>
      </trkpt>
      <trkpt lat="42.135517" lon="-73.9712">
        <ele>55.023101</ele>
        <time>2024-09-15T10:04:31.000Z</time>
      </trkpt>
      <trkpt lat="42.135768" lon="-73.970819">
        <ele>54.033701</ele>
        <time>2024-09-15T10:04:35.000Z</time>
      </trkpt>
      <trkpt lat="42.136358" lon="-73.970186">
        <ele>52.026839</ele>
        <time>2024-09-15T10:04:43.000Z</time>
      </trkpt>
      <trkpt lat="42.136556" lon="-73.970029">
        <ele>51.414742</ele>
        <time>2024-09-15T10:04:46.000Z</time>
      </trkpt>
      <trkpt lat="42.136955" lon="-73.969847">
        <ele>50.345255</ele>
        <time>2024-09-15T10:04:51.000Z</time>
      </trkpt>
      <trkpt lat="42.137106" lon="-73.969718">
        <ele>49.937048</ele>
        <time>2024-09-15T10:04:53.000Z</time>
      </trkpt>
      <trkpt lat="42.137168" lon="-73.969657">
        <ele>49.741501</ele>
        <time>2024-09-15T10:04:54.000Z</time>
      </trkpt>
      <trkpt lat="42.137292" lon="-73.969439">
        <ele>49.309432</ele>
        <time>2024-09-15T10:04:56.000Z</time>
      </trkpt>
      <trkpt lat="42.137849" lon="-73.968062">
        <ele>46.72708</ele>
        <time>2024-09-15T10:05:09.000Z</time>
      </trkpt>
      <trkpt lat="42.137948" lon="-73.967758">
        <ele>46.198072</ele>
        <time>2024-09-15T10:05:12.000Z</time>
      </trkpt>
      <trkpt lat="42.13798" lon="-73.967579">
        <ele>45.938531</ele>
        <time>2024-09-15T10:05:14.000Z</time>
      </trkpt>
      <trkpt lat="42.137976" lon="-73.967492">
        <ele>45.80817</ele>
        <time>2024-09-15T10:05:15.000Z</time>
      </trkpt>
      <trkpt lat="42.137954" lon="-73.967384">
        <ele>45.657949</ele>
        <time>2024-09-15T10:05:16.000Z</time>
      </trkpt>
      <trkpt lat="42.137856" lon="-73.967221">
        <ele>45.383977</ele>
        <time>2024-09-15T10:05:18.000Z</time>
      </trkpt>
      <trkpt lat="42.13776" lon="-73.967167">
        <ele>45.15868</ele>
        <time>2024-09-15T10:05:19.000Z</time>
      </trkpt>
      <trkpt lat="42.136928" lon="-73.966602">
        <ele>43.375984</ele>
        <time>2024-09-15T10:05:29.000Z</time>
      </trkpt>
      <trkpt lat="42.134128" lon="-73.965557">
        <ele>44.315455</ele>
        <time>2024-09-15T10:06:01.000Z</time>
      </trkpt>
      <trkpt lat="42.133956" lon="-73.9654">
        <ele>44.675206</ele>
        <time>2024-09-15T10:06:03.000Z</time>
      </trkpt>
      <trkpt lat="42.133875" lon="-73.965199">
        <ele>44.993254</ele>
        <time>2024-09-15T10:06:05.000Z</time>
      </trkpt>
      <trkpt lat="42.133674" lon="-73.964501">
        <ele>46.002257</ele>
        <time>2024-09-15T10:06:11.000Z</time>
      </trkpt>
      <trkpt lat="42.133601" lon="-73.964108">
        <ele>47.423295</ele>
        <time>2024-09-15T10:06:14.000Z</time>
      </trkpt>
      <trkpt lat="42.133578" lon="-73.963897">
        <ele>48.195317</ele>
        <time>2024-09-15T10:06:16.000Z</time>
      </trkpt>
      <trkpt lat="42.133534" lon="-73.961876">
        <ele>55.357773</ele>
        <time>2024-09-15T10:06:33.000Z</time>
      </trkpt>
      <trkpt lat="42.133473" lon="-73.961582">
        <ele>56.248463</ele>
        <time>2024-09-15T10:06:36.000Z</time>
      </trkpt>
      <trkpt lat="42.133362" lon="-73.961439">
        <ele>56.858791</ele>
        <time>2024-09-15T10:06:38.000Z</time>
      </trkpt>
      <trkpt lat="42.133166" lon="-73.961387">
        <ele>57.604378</ele>
        <time>2024-09-15T10:06:40.000Z</time>
      </trkpt>
      <trkpt lat="42.132325" lon="-73.961646">
        <ele>60.981683</ele>
        <time>2024-09-15T10:06:50.000Z</time>
      </trkpt>
      <trkpt lat="42.132051" lon="-73.961694">
        <ele>61.953466</ele>
        <time>2024-09-15T10:06:53.000Z</time>
      </trkpt>
      <trkpt lat="42.131715" lon="-73.961675">
        <ele>62.824297</ele>
        <time>2024-09-15T10:06:57.000Z</time>
      </trkpt>
      <trkpt lat="42.131193" lon="-73.961507">
        <ele>64.168463</ele>
        <time>2024-09-15T10:07:03.000Z</time>
      </trkpt>
      <trkpt lat="42.130461" lon="-73.961137">
        <ele>66.169511</ele>
        <time>2024-09-15T10:07:12.000Z</time>
      </trkpt>
      <trkpt lat="42.13019" lon="-73.961063">
        <ele>66.742834</ele>
        <time>2024-09-15T10:07:15.000Z</time>
      </trkpt>
      <trkpt lat="42.129627" lon="-73.961016">
        <ele>67.801211</ele>
        <time>2024-09-15T10:07:21.000Z</time>
      </trkpt>
      <trkpt lat="42.129357" lon="-73.960969">
        <ele>68.320686</ele>
        <time>2024-09-15T10:07:24.000Z</time>
      </trkpt>
      <trkpt lat="42.129048" lon="-73.960869">
        <ele>68.917567</ele>
        <time>2024-09-15T10:07:28.000Z</time>
      </trkpt>
      <trkpt lat="42.128243" lon="-73.960475">
        <ele>69.670838</ele>
        <time>2024-09-15T10:07:38.000Z</time>
      </trkpt>
      <trkpt lat="42.127993" lon="-73.96033">
        <ele>69.598867</ele>
        <time>2024-09-15T10:07:41.000Z</time>
      </trkpt>
      <trkpt lat="42.127021" lon="-73.959794">
        <ele>69.32791</ele>
        <time>2024-09-15T10:07:53.000Z</time>
      </trkpt>
      <trkpt lat="42.126873" lon="-73.959676">
        <ele>69.28232</ele>
        <time>2024-09-15T10:07:55.000Z</time>
      </trkpt>
      <trkpt lat="42.126611" lon="-73.959398">
        <ele>69.186217</ele>
        <time>2024-09-15T10:07:59.000Z</time>
      </trkpt>
      <trkpt lat="42.127696" lon="-73.958954">
        <ele>68.878074</ele>
        <time>2024-09-15T10:08:12.000Z</time>
      </trkpt>
      <trkpt lat="42.12792" lon="-73.958882">
        <ele>68.82965</ele>
        <time>2024-09-15T10:08:15.000Z</time>
      </trkpt>
      <trkpt lat="42.128595" lon="-73.958806">
        <ele>69.25222</ele>
        <time>2024-09-15T10:08:23.000Z</time>
      </trkpt>
      <trkpt lat="42.1287" lon="-73.958794">
        <ele>69.318757</ele>
        <time>2024-09-15T10:08:24.000Z</time>
      </trkpt>
      <trkpt lat="42.128934" lon="-73.958774">
        <ele>69.463658</ele>
        <time>2024-09-15T10:08:27.000Z</time>
      </trkpt>
      <trkpt lat="42.129105" lon="-73.958765">
        <ele>69.565613</ele>
        <time>2024-09-15T10:08:29.000Z</time>
      </trkpt>
      <trkpt lat="42.13007" lon="-73.95868">
        <ele>69.681441</ele>
        <time>2024-09-15T10:08:40.000Z</time>
      </trkpt>
      <trkpt lat="42.130266" lon="-73.95863">
        <ele>69.540246</ele>
        <time>2024-09-15T10:08:42.000Z</time>
      </trkpt>
      <trkpt lat="42.130395" lon="-73.958574">
        <ele>69.444383</ele>
        <time>2024-09-15T10:08:44.000Z</time>
      </trkpt>
      <trkpt lat="42.130735" lon="-73.958291">
        <ele>69.166703</ele>
        <time>2024-09-15T10:08:48.000Z</time>
      </trkpt>
      <trkpt lat="42.130907" lon="-73.958122">
        <ele>69.02361</ele>
        <time>2024-09-15T10:08:50.000Z</time>
      </trkpt>
      <trkpt lat="42.131182" lon="-73.957952">
        <ele>68.804426</ele>
        <time>2024-09-15T10:08:53.000Z</time>
      </trkpt>
      <trkpt lat="42.131751" lon="-73.957686">
        <ele>68.251031</ele>
        <time>2024-09-15T10:09:00.000Z</time>
      </trkpt>
      <trkpt lat="42.132343" lon="-73.95741">
        <ele>67.585077</ele>
        <time>2024-09-15T10:09:07.000Z</time>
      </trkpt>
      <trkpt lat="42.132564" lon="-73.957357">
        <ele>67.361533</ele>
        <time>2024-09-15T10:09:09.000Z</time>
      </trkpt>
      <trkpt lat="42.132851" lon="-73.957292">
        <ele>67.043693</ele>
        <time>2024-09-15T10:09:12.000Z</time>
      </trkpt>
      <trkpt lat="42.133416" lon="-73.9572">
        <ele>66.544255</ele>
        <time>2024-09-15T10:09:18.000Z</time>
      </trkpt>
      <trkpt lat="42.133484" lon="-73.957182">
        <ele>66.488878</ele>
        <time>2024-09-15T10:09:19.000Z</time>
      </trkpt>
      <trkpt lat="42.133862" lon="-73.957024">
        <ele>66.193809</ele>
        <time>2024-09-15T10:09:23.000Z</time>
      </trkpt>
      <trkpt lat="42.134433" lon="-73.956752">
        <ele>65.723931</ele>
        <time>2024-09-15T10:09:30.000Z</time>
      </trkpt>
      <trkpt lat="42.135047" lon="-73.956368">
        <ele>65.17389</ele>
        <time>2024-09-15T10:09:38.000Z</time>
      </trkpt>
      <trkpt lat="42.135594" lon="-73.956006">
        <ele>64.671704</ele>
        <time>2024-09-15T10:09:45.000Z</time>
      </trkpt>
      <trkpt lat="42.136015" lon="-73.955774">
        <ele>64.297584</ele>
        <time>2024-09-15T10:09:50.000Z</time>
      </trkpt>
      <trkpt lat="42.136294" lon="-73.955648">
        <ele>64.056839</ele>
        <time>2024-09-15T10:09:53.000Z</time>
      </trkpt>
      <trkpt lat="42.137151" lon="-73.955442">
        <ele>63.022274</ele>
        <time>2024-09-15T10:10:03.000Z</time>
      </trkpt>
      <trkpt lat="42.138099" lon="-73.955194">
        <ele>61.807548</ele>
        <time>2024-09-15T10:10:14.000Z</time>
      </trkpt>
      <trkpt lat="42.138978" lon="-73.954826">
        <ele>59.794279</ele>
        <time>2024-09-15T10:10:24.000Z</time>
      </trkpt>
      <trkpt lat="42.1394" lon="-73.954608">
        <ele>58.754419</ele>
        <time>2024-09-15T10:10:29.000Z</time>
      </trkpt>
      <trkpt lat="42.139866" lon="-73.954223">
        <ele>57.497147</ele>
        <time>2024-09-15T10:10:35.000Z</time>
      </trkpt>
      <trkpt lat="42.140165" lon="-73.954053">
        <ele>56.607648</ele>
        <time>2024-09-15T10:10:39.000Z</time>
      </trkpt>
      <trkpt lat="42.141403" lon="-73.953665">
        <ele>53.112496</ele>
        <time>2024-09-15T10:10:53.000Z</time>
      </trkpt>
      <trkpt lat="42.140473" lon="-73.952374">
        <ele>51.014233</ele>
        <time>2024-09-15T10:11:08.000Z</time>
      </trkpt>
      <trkpt lat="42.140204" lon="-73.951947">
        <ele>50.434407</ele>
        <time>2024-09-15T10:11:13.000Z</time>
      </trkpt>
      <trkpt lat="42.139224" lon="-73.949714">
        <ele>48.587924</ele>
        <time>2024-09-15T10:11:34.000Z</time>
      </trkpt>
      <trkpt lat="42.138912" lon="-73.949002">
        <ele>48.533765</ele>
        <time>2024-09-15T10:11:41.000Z</time>
      </trkpt>
      <trkpt lat="42.138003" lon="-73.946922">
        <ele>48.82942</ele>
        <time>2024-09-15T10:12:01.000Z</time>
      </trkpt>
      <trkpt lat="42.137843" lon="-73.946551">
        <ele>48.918982</ele>
        <time>2024-09-15T10:12:05.000Z</time>
      </trkpt>
      <trkpt lat="42.137562" lon="-73.945761">
        <ele>49.100464</ele>
        <time>2024-09-15T10:12:12.000Z</time>
      </trkpt>
      <trkpt lat="42.137462" lon="-73.945535">
        <ele>49.157156</ele>
        <time>2024-09-15T10:12:14.000Z</time>
      </trkpt>
      <trkpt lat="42.137349" lon="-73.945406">
        <ele>49.195627</ele>
        <time>2024-09-15T10:12:16.000Z</time>
      </trkpt>
      <trkpt lat="42.137242" lon="-73.945335">
        <ele>49.163319</ele>
        <time>2024-09-15T10:12:17.000Z</time>
      </trkpt>
      <trkpt lat="42.137012" lon="-73.945336">
        <ele>49.071518</ele>
        <time>2024-09-15T10:12:20.000Z</time>
      </trkpt>
      <trkpt lat="42.136474" lon="-73.945552">
        <ele>48.854651</ele>
        <time>2024-09-15T10:12:26.000Z</time>
      </trkpt>
      <trkpt lat="42.136185" lon="-73.945568">
        <ele>48.746917</ele>
        <time>2024-09-15T10:12:29.000Z</time>
      </trkpt>
      <trkpt lat="42.136048" lon="-73.945502">
        <ele>48.691455</ele>
        <time>2024-09-15T10:12:31.000Z</time>
      </trkpt>
      <trkpt lat="42.135869" lon="-73.945355">
        <ele>48.608858</ele>
        <time>2024-09-15T10:12:33.000Z</time>
      </trkpt>
      <trkpt lat="42.135671" lon="-73.945157">
        <ele>48.512682</ele>
        <time>2024-09-15T10:12:36.000Z</time>
      </trkpt>
      <trkpt lat="42.135508" lon="-73.944964">
        <ele>48.551665</ele>
        <time>2024-09-15T10:12:38.000Z</time>
      </trkpt>
      <trkpt lat="42.134948" lon="-73.944343">
        <ele>48.722934</ele>
        <time>2024-09-15T10:12:46.000Z</time>
      </trkpt>
      <trkpt lat="42.134343" lon="-73.94373">
        <ele>48.904362</ele>
        <time>2024-09-15T10:12:54.000Z</time>
      </trkpt>
      <trkpt lat="42.134164" lon="-73.943535">
        <ele>48.974129</ele>
        <time>2024-09-15T10:12:57.000Z</time>
      </trkpt>
      <trkpt lat="42.134113" lon="-73.94341">
        <ele>49.017403</ele>
        <time>2024-09-15T10:12:58.000Z</time>
      </trkpt>
      <trkpt lat="42.133885" lon="-73.942557">
        <ele>49.278485</ele>
        <time>2024-09-15T10:13:05.000Z</time>
      </trkpt>
      <trkpt lat="42.133811" lon="-73.942323">
        <ele>49.352009</ele>
        <time>2024-09-15T10:13:07.000Z</time>
      </trkpt>
      <trkpt lat="42.133754" lon="-73.942238">
        <ele>49.38288</ele>
        <time>2024-09-15T10:13:08.000Z</time>
      </trkpt>
      <trkpt lat="42.133461" lon="-73.94196">
        <ele>49.527598</ele>
        <time>2024-09-15T10:13:12.000Z</time>
      </trkpt>
      <trkpt lat="42.133303" lon="-73.941698">
        <ele>49.624564</ele>
        <time>2024-09-15T10:13:15.000Z</time>
      </trkpt>
      <trkpt lat="42.132819" lon="-73.940829">
        <ele>49.968437</ele>
        <time>2024-09-15T10:13:24.000Z</time>
      </trkpt>
      <trkpt lat="42.132652" lon="-73.940517">
        <ele>50.094623</ele>
        <time>2024-09-15T10:13:27.000Z</time>
      </trkpt>
      <trkpt lat="42.132338" lon="-73.939933">
        <ele>50.323257</ele>
        <time>2024-09-15T10:13:33.000Z</time>
      </trkpt>
      <trkpt lat="42.132131" lon="-73.939693">
        <ele>50.400152</ele>
        <time>2024-09-15T10:13:36.000Z</time>
      </trkpt>
      <trkpt lat="42.132018" lon="-73.939581">
        <ele>50.38875</ele>
        <time>2024-09-15T10:13:38.000Z</time>
      </trkpt>
      <trkpt lat="42.131778" lon="-73.939381">
        <ele>50.365768</ele>
        <time>2024-09-15T10:13:41.000Z</time>
      </trkpt>
      <trkpt lat="42.131643" lon="-73.939317">
        <ele>50.35451</ele>
        <time>2024-09-15T10:13:43.000Z</time>
      </trkpt>
      <trkpt lat="42.131009" lon="-73.939217">
        <ele>50.301702</ele>
        <time>2024-09-15T10:13:50.000Z</time>
      </trkpt>
      <trkpt lat="42.130605" lon="-73.939149">
        <ele>50.267644</ele>
        <time>2024-09-15T10:13:55.000Z</time>
      </trkpt>
      <trkpt lat="42.130382" lon="-73.939033">
        <ele>50.12386</ele>
        <time>2024-09-15T10:13:58.000Z</time>
      </trkpt>
      <trkpt lat="42.130334" lon="-73.939166">
        <ele>50.002508</ele>
        <time>2024-09-15T10:13:59.000Z</time>
      </trkpt>
      <trkpt lat="42.1302" lon="-73.939919">
        <ele>49.368817</ele>
        <time>2024-09-15T10:14:05.000Z</time>
      </trkpt>
      <trkpt lat="42.130182" lon="-73.940061">
        <ele>49.252239</ele>
        <time>2024-09-15T10:14:06.000Z</time>
      </trkpt>
      <trkpt lat="42.129931" lon="-73.941507">
        <ele>48.254454</ele>
        <time>2024-09-15T10:14:18.000Z</time>
      </trkpt>
      <trkpt lat="42.129832" lon="-73.94185">
        <ele>48.23713</ele>
        <time>2024-09-15T10:14:21.000Z</time>
      </trkpt>
      <trkpt lat="42.129714" lon="-73.941975">
        <ele>48.228044</ele>
        <time>2024-09-15T10:14:23.000Z</time>
      </trkpt>
      <trkpt lat="42.129518" lon="-73.942093">
        <ele>48.214281</ele>
        <time>2024-09-15T10:14:25.000Z</time>
      </trkpt>
      <trkpt lat="42.12866" lon="-73.942294">
        <ele>48.16054</ele>
        <time>2024-09-15T10:14:35.000Z</time>
      </trkpt>
      <trkpt lat="42.127901" lon="-73.942413">
        <ele>48.622763</ele>
        <time>2024-09-15T10:14:43.000Z</time>
      </trkpt>
      <trkpt lat="42.127578" lon="-73.94253">
        <ele>48.849254</ele>
        <time>2024-09-15T10:14:47.000Z</time>
      </trkpt>
      <trkpt lat="42.127145" lon="-73.942733">
        <ele>49.154008</ele>
        <time>2024-09-15T10:14:52.000Z</time>
      </trkpt>
      <trkpt lat="42.126736" lon="-73.943006">
        <ele>49.401097</ele>
        <time>2024-09-15T10:14:57.000Z</time>
      </trkpt>
      <trkpt lat="42.126112" lon="-73.943556">
        <ele>49.575705</ele>
        <time>2024-09-15T10:15:05.000Z</time>
      </trkpt>
      <trkpt lat="42.125754" lon="-73.943888">
        <ele>49.680431</ele>
        <time>2024-09-15T10:15:10.000Z</time>
      </trkpt>
      <trkpt lat="42.125612" lon="-73.944033">
        <ele>49.721947</ele>
        <time>2024-09-15T10:15:12.000Z</time>
      </trkpt>
      <trkpt lat="42.125524" lon="-73.944119">
        <ele>49.746428</ele>
        <time>2024-09-15T10:15:13.000Z</time>
      </trkpt>
      <trkpt lat="42.125314" lon="-73.944368">
        <ele>49.794294</ele>
        <time>2024-09-15T10:15:16.000Z</time>
      </trkpt>
      <trkpt lat="42.124493" lon="-73.945276">
        <ele>49.815174</ele>
        <time>2024-09-15T10:15:28.000Z</time>
      </trkpt>
      <trkpt lat="42.124224" lon="-73.945632">
        <ele>49.822345</ele>
        <time>2024-09-15T10:15:32.000Z</time>
      </trkpt>
      <trkpt lat="42.123805" lon="-73.946259">
        <ele>49.446248</ele>
        <time>2024-09-15T10:15:39.000Z</time>
      </trkpt>
      <trkpt lat="42.123636" lon="-73.946466">
        <ele>49.199436</ele>
        <time>2024-09-15T10:15:42.000Z</time>
      </trkpt>
      <trkpt lat="42.123582" lon="-73.94668">
        <ele>49.034376</ele>
        <time>2024-09-15T10:15:44.000Z</time>
      </trkpt>
      <trkpt lat="42.123562" lon="-73.946773">
        <ele>48.946944</ele>
        <time>2024-09-15T10:15:45.000Z</time>
      </trkpt>
      <trkpt lat="42.123429" lon="-73.946949">
        <ele>48.749624</ele>
        <time>2024-09-15T10:15:47.000Z</time>
      </trkpt>
      <trkpt lat="42.122789" lon="-73.947538">
        <ele>47.906421</ele>
        <time>2024-09-15T10:15:56.000Z</time>
      </trkpt>
      <trkpt lat="42.122553" lon="-73.947834">
        <ele>47.561442</ele>
        <time>2024-09-15T10:16:00.000Z</time>
      </trkpt>
      <trkpt lat="42.122441" lon="-73.948185">
        <ele>47.250225</ele>
        <time>2024-09-15T10:16:03.000Z</time>
      </trkpt>
      <trkpt lat="42.122334" lon="-73.94867">
        <ele>46.848379</ele>
        <time>2024-09-15T10:16:07.000Z</time>
      </trkpt>
      <trkpt lat="42.122306" lon="-73.948629">
        <ele>46.799771</ele>
        <time>2024-09-15T10:16:07.000Z</time>
      </trkpt>
      <trkpt lat="42.121952" lon="-73.947875">
        <ele>46.08591</ele>
        <time>2024-09-15T10:16:14.000Z</time>
      </trkpt>
      <trkpt lat="42.121115" lon="-73.945966">
        <ele>45.069668</ele>
        <time>2024-09-15T10:16:32.000Z</time>
      </trkpt>
      <trkpt lat="42.121111" lon="-73.945948">
        <ele>45.059135</ele>
        <time>2024-09-15T10:16:32.000Z</time>
      </trkpt>
      <trkpt lat="42.120955" lon="-73.945569">
        <ele>44.889155</ele>
        <time>2024-09-15T10:16:36.000Z</time>
      </trkpt>
      <trkpt lat="42.120735" lon="-73.945272">
        <ele>44.815699</ele>
        <time>2024-09-15T10:16:39.000Z</time>
      </trkpt>
      <trkpt lat="42.120674" lon="-73.945118">
        <ele>44.787041</ele>
        <time>2024-09-15T10:16:40.000Z</time>
      </trkpt>
      <trkpt lat="42.12064" lon="-73.944912">
        <ele>44.750275</ele>
        <time>2024-09-15T10:16:42.000Z</time>
      </trkpt>
      <trkpt lat="42.120591" lon="-73.944694">
        <ele>44.708155</ele>
        <time>2024-09-15T10:16:44.000Z</time>
      </trkpt>
      <trkpt lat="42.120493" lon="-73.944349">
        <ele>44.645835</ele>
        <time>2024-09-15T10:16:47.000Z</time>
      </trkpt>
      <trkpt lat="42.119169" lon="-73.940944">
        <ele>45.162106</ele>
        <time>2024-09-15T10:17:19.000Z</time>
      </trkpt>
      <trkpt lat="42.119157" lon="-73.940943">
        <ele>45.168715</ele>
        <time>2024-09-15T10:17:19.000Z</time>
      </trkpt>
      <trkpt lat="42.119151" lon="-73.940925">
        <ele>45.182685</ele>
        <time>2024-09-15T10:17:19.000Z</time>
      </trkpt>
      <trkpt lat="42.118734" lon="-73.940038">
        <ele>46.033309</ele>
        <time>2024-09-15T10:17:28.000Z</time>
      </trkpt>
      <trkpt lat="42.117642" lon="-73.937979">
        <ele>48.085646</ele>
        <time>2024-09-15T10:17:49.000Z</time>
      </trkpt>
      <trkpt lat="42.117542" lon="-73.93768">
        <ele>48.366442</ele>
        <time>2024-09-15T10:17:52.000Z</time>
      </trkpt>
      <trkpt lat="42.117455" lon="-73.937152">
        <ele>48.670701</ele>
        <time>2024-09-15T10:17:56.000Z</time>
      </trkpt>
      <trkpt lat="42.117415" lon="-73.936772">
        <ele>48.481015</ele>
        <time>2024-09-15T10:17:59.000Z</time>
      </trkpt>
      <trkpt lat="42.117271" lon="-73.935258">
        <ele>47.70993</ele>
        <time>2024-09-15T10:18:12.000Z</time>
      </trkpt>
      <trkpt lat="42.117205" lon="-73.934952">
        <ele>47.557373</ele>
        <time>2024-09-15T10:18:15.000Z</time>
      </trkpt>
      <trkpt lat="42.116983" lon="-73.935177">
        <ele>47.486257</ele>
        <time>2024-09-15T10:18:18.000Z</time>
      </trkpt>
      <trkpt lat="42.116658" lon="-73.935434">
        <ele>47.453461</ele>
        <time>2024-09-15T10:18:22.000Z</time>
      </trkpt>
      <trkpt lat="42.116477" lon="-73.935525">
        <ele>47.436674</ele>
        <time>2024-09-15T10:18:24.000Z</time>
      </trkpt>
      <trkpt lat="42.116206" lon="-73.935636">
        <ele>47.411613</ele>
        <time>2024-09-15T10:18:27.000Z</time>
      </trkpt>
      <trkpt lat="42.114751" lon="-73.935967">
        <ele>47.307503</ele>
        <time>2024-09-15T10:18:43.000Z</time>
      </trkpt>
      <trkpt lat="42.113909" lon="-73.936177">
        <ele>47.261259</ele>
        <time>2024-09-15T10:18:53.000Z</time>
      </trkpt>
      <trkpt lat="42.1131" lon="-73.936251">
        <ele>46.595527</ele>
        <time>2024-09-15T10:19:02.000Z</time>
      </trkpt>
      <trkpt lat="42.112703" lon="-73.93624">
        <ele>46.184351</ele>
        <time>2024-09-15T10:19:06.000Z</time>
      </trkpt>
      <trkpt lat="42.112531" lon="-73.936193">
        <ele>45.979441</ele>
        <time>2024-09-15T10:19:08.000Z</time>
      </trkpt>
      <trkpt lat="42.111792" lon="-73.935921">
        <ele>45.18124</ele>
        <time>2024-09-15T10:19:17.000Z</time>
      </trkpt>
      <trkpt lat="42.111593" lon="-73.935916">
        <ele>45.010957</ele>
        <time>2024-09-15T10:19:19.000Z</time>
      </trkpt>
      <trkpt lat="42.111379" lon="-73.935957">
        <ele>44.816833</ele>
        <time>2024-09-15T10:19:21.000Z</time>
      </trkpt>
      <trkpt lat="42.111109" lon="-73.936071">
        <ele>44.548003</ele>
        <time>2024-09-15T10:19:24.000Z</time>
      </trkpt>
      <trkpt lat="42.109414" lon="-73.937078">
        <ele>43.775442</ele>
        <time>2024-09-15T10:19:45.000Z</time>
      </trkpt>
      <trkpt lat="42.109081" lon="-73.937273">
        <ele>43.809762</ele>
        <time>2024-09-15T10:19:49.000Z</time>
      </trkpt>
      <trkpt lat="42.108813" lon="-73.937431">
        <ele>43.838765</ele>
        <time>2024-09-15T10:19:52.000Z</time>
      </trkpt>
      <trkpt lat="42.108438" lon="-73.937602">
        <ele>43.857683</ele>
        <time>2024-09-15T10:19:56.000Z</time>
      </trkpt>
      <trkpt lat="42.108045" lon="-73.93771">
        <ele>43.843017</ele>
        <time>2024-09-15T10:20:00.000Z</time>
      </trkpt>
      <trkpt lat="42.107396" lon="-73.937785">
        <ele>43.819499</ele>
        <time>2024-09-15T10:20:07.000Z</time>
      </trkpt>
      <trkpt lat="42.105948" lon="-73.937899">
        <ele>43.77667</ele>
        <time>2024-09-15T10:20:23.000Z</time>
      </trkpt>
      <trkpt lat="42.105774" lon="-73.937911">
        <ele>43.772408</ele>
        <time>2024-09-15T10:20:25.000Z</time>
      </trkpt>
      <trkpt lat="42.105295" lon="-73.93794">
        <ele>43.760396</ele>
        <time>2024-09-15T10:20:30.000Z</time>
      </trkpt>
      <trkpt lat="42.105054" lon="-73.937907">
        <ele>43.754326</ele>
        <time>2024-09-15T10:20:33.000Z</time>
      </trkpt>
      <trkpt lat="42.10399" lon="-73.937698">
        <ele>44.081431</ele>
        <time>2024-09-15T10:20:45.000Z</time>
      </trkpt>
      <trkpt lat="42.103382" lon="-73.937547">
        <ele>44.281294</ele>
        <time>2024-09-15T10:20:52.000Z</time>
      </trkpt>
      <trkpt lat="42.103011" lon="-73.937503">
        <ele>44.322615</ele>
        <time>2024-09-15T10:20:56.000Z</time>
      </trkpt>
      <trkpt lat="42.102682" lon="-73.937536">
        <ele>44.30515</ele>
        <time>2024-09-15T10:21:00.000Z</time>
      </trkpt>
      <trkpt lat="42.102295" lon="-73.937618">
        <ele>44.284626</ele>
        <time>2024-09-15T10:21:04.000Z</time>
      </trkpt>
      <trkpt lat="42.101817" lon="-73.937838">
        <ele>44.257561</ele>
        <time>2024-09-15T10:21:10.000Z</time>
      </trkpt>
      <trkpt lat="42.101252" lon="-73.9381">
        <ele>44.575176</ele>
        <time>2024-09-15T10:21:17.000Z</time>
      </trkpt>
      <trkpt lat="42.100114" lon="-73.938581">
        <ele>46.205828</ele>
        <time>2024-09-15T10:21:30.000Z</time>
      </trkpt>
      <trkpt lat="42.099629" lon="-73.93876">
        <ele>47.064968</ele>
        <time>2024-09-15T10:21:36.000Z</time>
      </trkpt>
      <trkpt lat="42.099344" lon="-73.938824">
        <ele>47.870238</ele>
        <time>2024-09-15T10:21:39.000Z</time>
      </trkpt>
      <trkpt lat="42.098289" lon="-73.9389">
        <ele>50.866675</ele>
        <time>2024-09-15T10:21:51.000Z</time>
      </trkpt>
      <trkpt lat="42.097499" lon="-73.939023">
        <ele>52.556318</ele>
        <time>2024-09-15T10:22:00.000Z</time>
      </trkpt>
      <trkpt lat="42.097254" lon="-73.93906">
        <ele>52.965832</ele>
        <time>2024-09-15T10:22:03.000Z</time>
      </trkpt>
      <trkpt lat="42.096661" lon="-73.939168">
        <ele>53.958358</ele>
        <time>2024-09-15T10:22:10.000Z</time>
      </trkpt>
      <trkpt lat="42.096443" lon="-73.939234">
        <ele>54.351925</ele>
        <time>2024-09-15T10:22:12.000Z</time>
      </trkpt>
      <trkpt lat="42.096072" lon="-73.939388">
        <ele>54.675995</ele>
        <time>2024-09-15T10:22:16.000Z</time>
      </trkpt>
      <trkpt lat="42.09596" lon="-73.939425">
        <ele>54.612597</ele>
        <time>2024-09-15T10:22:17.000Z</time>
      </trkpt>
      <trkpt lat="42.095363" lon="-73.939681">
        <ele>54.217044</ele>
        <time>2024-09-15T10:22:24.000Z</time>
      </trkpt>
      <trkpt lat="42.095028" lon="-73.939802">
        <ele>53.999679</ele>
        <time>2024-09-15T10:22:28.000Z</time>
      </trkpt>
      <trkpt lat="42.094426" lon="-73.939969">
        <ele>53.581291</ele>
        <time>2024-09-15T10:22:35.000Z</time>
      </trkpt>
      <trkpt lat="42.09414" lon="-73.939978">
        <ele>53.019151</ele>
        <time>2024-09-15T10:22:38.000Z</time>
      </trkpt>
      <trkpt lat="42.094007" lon="-73.939947">
        <ele>52.753195</ele>
        <time>2024-09-15T10:22:40.000Z</time>
      </trkpt>
      <trkpt lat="42.093242" lon="-73.939733">
        <ele>51.242804</ele>
        <time>2024-09-15T10:22:49.000Z</time>
      </trkpt>
      <trkpt lat="42.092868" lon="-73.939688">
        <ele>50.481838</ele>
        <time>2024-09-15T10:22:53.000Z</time>
      </trkpt>
      <trkpt lat="42.091876" lon="-73.939615">
        <ele>48.202046</ele>
        <time>2024-09-15T10:23:04.000Z</time>
      </trkpt>
      <trkpt lat="42.091433" lon="-73.939626">
        <ele>47.111158</ele>
        <time>2024-09-15T10:23:09.000Z</time>
      </trkpt>
      <trkpt lat="42.090986" lon="-73.939723">
        <ele>46.042117</ele>
        <time>2024-09-15T10:23:14.000Z</time>
      </trkpt>
      <trkpt lat="42.090648" lon="-73.939802">
        <ele>45.443412</ele>
        <time>2024-09-15T10:23:18.000Z</time>
      </trkpt>
      <trkpt lat="42.090373" lon="-73.939959">
        <ele>44.993815</ele>
        <time>2024-09-15T10:23:21.000Z</time>
      </trkpt>
      <trkpt lat="42.090029" lon="-73.940278">
        <ele>44.403495</ele>
        <time>2024-09-15T10:23:26.000Z</time>
      </trkpt>
      <trkpt lat="42.089693" lon="-73.940653">
        <ele>43.778683</ele>
        <time>2024-09-15T10:23:31.000Z</time>
      </trkpt>
      <trkpt lat="42.089411" lon="-73.94097">
        <ele>43.236119</ele>
        <time>2024-09-15T10:23:35.000Z</time>
      </trkpt>
      <trkpt lat="42.089156" lon="-73.941215">
        <ele>42.979243</ele>
        <time>2024-09-15T10:23:38.000Z</time>
      </trkpt>
      <trkpt lat="42.088712" lon="-73.94147">
        <ele>42.609555</ele>
        <time>2024-09-15T10:23:43.000Z</time>
      </trkpt>
      <trkpt lat="42.088262" lon="-73.941615">
        <ele>42.246764</ele>
        <time>2024-09-15T10:23:48.000Z</time>
      </trkpt>
      <trkpt lat="42.087399" lon="-73.94172">
        <ele>41.604716</ele>
        <time>2024-09-15T10:23:58.000Z</time>
      </trkpt>
      <trkpt lat="42.086881" lon="-73.941813">
        <ele>41.26513</ele>
        <time>2024-09-15T10:24:04.000Z</time>
      </trkpt>
      <trkpt lat="42.085481" lon="-73.942362">
        <ele>41.694563</ele>
        <time>2024-09-15T10:24:20.000Z</time>
      </trkpt>
      <trkpt lat="42.085009" lon="-73.942665">
        <ele>42.873436</ele>
        <time>2024-09-15T10:24:26.000Z</time>
      </trkpt>
      <trkpt lat="42.084428" lon="-73.943191">
        <ele>44.440777</ele>
        <time>2024-09-15T10:24:34.000Z</time>
      </trkpt>
      <trkpt lat="42.084281" lon="-73.943311">
        <ele>44.903171</ele>
        <time>2024-09-15T10:24:36.000Z</time>
      </trkpt>
      <trkpt lat="42.084189" lon="-73.943392">
        <ele>45.248237</ele>
        <time>2024-09-15T10:24:37.000Z</time>
      </trkpt>
      <trkpt lat="42.083833" lon="-73.943634">
        <ele>46.605126</ele>
        <time>2024-09-15T10:24:41.000Z</time>
      </trkpt>
      <trkpt lat="42.083557" lon="-73.943722">
        <ele>47.537425</ele>
        <time>2024-09-15T10:24:44.000Z</time>
      </trkpt>
      <trkpt lat="42.083024" lon="-73.943824">
        <ele>49.27249</ele>
        <time>2024-09-15T10:24:50.000Z</time>
      </trkpt>
      <trkpt lat="42.082459" lon="-73.943931">
        <ele>50.465419</ele>
        <time>2024-09-15T10:24:56.000Z</time>
      </trkpt>
      <trkpt lat="42.082254" lon="-73.943972">
        <ele>50.318406</ele>
        <time>2024-09-15T10:24:58.000Z</time>
      </trkpt>
      <trkpt lat="42.081888" lon="-73.944034">
        <ele>50.060171</ele>
        <time>2024-09-15T10:25:02.000Z</time>
      </trkpt>
      <trkpt lat="42.081535" lon="-73.94408">
        <ele>49.814143</ele>
        <time>2024-09-15T10:25:06.000Z</time>
      </trkpt>
      <trkpt lat="42.080739" lon="-73.94413">
        <ele>49.071357</ele>
        <time>2024-09-15T10:25:15.000Z</time>
      </trkpt>
      <trkpt lat="42.080537" lon="-73.944083">
        <ele>48.626165</ele>
        <time>2024-09-15T10:25:17.000Z</time>
      </trkpt>
      <trkpt lat="42.080369" lon="-73.944125">
        <ele>48.21066</ele>
        <time>2024-09-15T10:25:19.000Z</time>
      </trkpt>
      <trkpt lat="42.080287" lon="-73.944317">
        <ele>47.840029</ele>
        <time>2024-09-15T10:25:21.000Z</time>
      </trkpt>
      <trkpt lat="42.079949" lon="-73.945808">
        <ele>45.181148</ele>
        <time>2024-09-15T10:25:34.000Z</time>
      </trkpt>
      <trkpt lat="42.079904" lon="-73.946073">
        <ele>45.122352</ele>
        <time>2024-09-15T10:25:36.000Z</time>
      </trkpt>
      <trkpt lat="42.079796" lon="-73.946523">
        <ele>45.021716</ele>
        <time>2024-09-15T10:25:40.000Z</time>
      </trkpt>
      <trkpt lat="42.079697" lon="-73.946893">
        <ele>44.942184</ele>
        <time>2024-09-15T10:25:43.000Z</time>
      </trkpt>
      <trkpt lat="42.079584" lon="-73.947204">
        <ele>44.86666</ele>
        <time>2024-09-15T10:25:46.000Z</time>
      </trkpt>
      <trkpt lat="42.079334" lon="-73.947924">
        <ele>44.698671</ele>
        <time>2024-09-15T10:25:53.000Z</time>
      </trkpt>
      <trkpt lat="42.079022" lon="-73.948851">
        <ele>44.972788</ele>
        <time>2024-09-15T10:26:01.000Z</time>
      </trkpt>
      <trkpt lat="42.078595" lon="-73.95003">
        <ele>45.429648</ele>
        <time>2024-09-15T10:26:12.000Z</time>
      </trkpt>
      <trkpt lat="42.078234" lon="-73.951074">
        <ele>45.309341</ele>
        <time>2024-09-15T10:26:22.000Z</time>
      </trkpt>
      <trkpt lat="42.077787" lon="-73.952416">
        <ele>44.995824</ele>
        <time>2024-09-15T10:26:34.000Z</time>
      </trkpt>
      <trkpt lat="42.077137" lon="-73.952106">
        <ele>42.90917</ele>
        <time>2024-09-15T10:26:42.000Z</time>
      </trkpt>
      <trkpt lat="42.0767" lon="-73.951889">
        <ele>41.428083</ele>
        <time>2024-09-15T10:26:47.000Z</time>
      </trkpt>
      <trkpt lat="42.076292" lon="-73.951699">
        <ele>40.07694</ele>
        <time>2024-09-15T10:26:52.000Z</time>
      </trkpt>
      <trkpt lat="42.076019" lon="-73.951574">
        <ele>39.2331735194</ele>
        <time>2024-09-15T10:26:55.000Z</time>
      </trkpt>
      <trkpt lat="42.075834" lon="-73.951491">
        <ele>38.6625724358</ele>
        <time>2024-09-15T10:26:57.000Z</time>
      </trkpt>
      <trkpt lat="42.075681" lon="-73.951438">
        <ele>38.2002800813</ele>
        <time>2024-09-15T10:26:59.000Z</time>
      </trkpt>
      <trkpt lat="42.075406" lon="-73.95131">
        <ele>37.3488637256</ele>
        <time>2024-09-15T10:27:02.000Z</time>
      </trkpt>
      <trkpt lat="42.074931" lon="-73.951106">
        <ele>35.8899352573</ele>
        <time>2024-09-15T10:27:08.000Z</time>
      </trkpt>
      <trkpt lat="42.074366" lon="-73.950812">
        <ele>34.1175128326</ele>
        <time>2024-09-15T10:27:15.000Z</time>
      </trkpt>
      <trkpt lat="42.07404" lon="-73.950617">
        <ele>33.0737224864</ele>
        <time>2024-09-15T10:27:19.000Z</time>
      </trkpt>
      <trkpt lat="42.074052" lon="-73.950619">
        <ele>33.0383387766</ele>
        <time>2024-09-15T10:27:19.000Z</time>
      </trkpt>
      <trkpt lat="42.073804" lon="-73.950522">
        <ele>32.282640744</ele>
        <time>2024-09-15T10:27:22.000Z</time>
      </trkpt>
      <trkpt lat="42.073733" lon="-73.950529">
        <ele>32.074315409</ele>
        <time>2024-09-15T10:27:23.000Z</time>
      </trkpt>
      <trkpt lat="42.073668" lon="-73.950543">
        <ele>31.8816880999</ele>
        <time>2024-09-15T10:27:24.000Z</time>
      </trkpt>
      <trkpt lat="42.073601" lon="-73.950588">
        <ele>31.6626085444</ele>
        <time>2024-09-15T10:27:25.000Z</time>
      </trkpt>
    </trkseg>
  </trk>
</gpx>

<!--
Performance optimized by W3 Total Cache. Learn more: https://www.boldgrid.com/w3-total-cache/?utm_source=w3tc&utm_medium=footer_comment&utm_campaign=free_plugin

Page Caching using Disk: Enhanced{w3tc_pagecache_reject_reason} 

Served from: www.aquabike.world @ 2026-05-11 00:10:11 by W3 Total Cache
-->